<?xml version='1.0' encoding='UTF-8'?><gpx version="1.1" creator="JPX - https://github.com/jenetics/jpx" xmlns="http://www.topografix.com/GPX/1/1"><trk><trkseg><trkpt lat="44.99477680990015" lon="7.826130204906001"><ele>270.0</ele><time>2026-04-17T15:25:14.008Z</time></trkpt><trkpt lat="44.99487312430943" lon="7.826140272188392"><ele>270.0</ele><time>2026-04-17T15:25:16.009Z</time></trkpt><trkpt lat="44.99496617484555" lon="7.826169888600026"><ele>270.0</ele><time>2026-04-17T15:25:17.007Z</time></trkpt><trkpt lat="44.99506516196274" lon="7.8261769381632975"><ele>270.0</ele><time>2026-04-17T15:25:18.007Z</time></trkpt><trkpt lat="44.99518148545286" lon="7.826187072365926"><ele>270.0</ele><time>2026-04-17T15:25:19.008Z</time></trkpt><trkpt lat="44.995267906557416" lon="7.8261998628661775"><ele>270.3333333333333</ele><time>2026-04-17T15:25:20.007Z</time></trkpt><trkpt lat="44.99533554249369" lon="7.82620513666595"><ele>270.6666666666667</ele><time>2026-04-17T15:25:21.005Z</time></trkpt><trkpt lat="44.99541450442884" lon="7.826211223449392"><ele>271.0</ele><time>2026-04-17T15:25:22.007Z</time></trkpt><trkpt lat="44.99551016795043" lon="7.826222364552433"><ele>271.33333333333337</ele><time>2026-04-17T15:25:23.004Z</time></trkpt><trkpt lat="44.99560740551136" lon="7.826242708808677"><ele>271.6666666666667</ele><time>2026-04-17T15:25:24.007Z</time></trkpt><trkpt lat="44.9957004925766" lon="7.826267166372402"><ele>272.0</ele><time>2026-04-17T15:25:25.007Z</time></trkpt><trkpt lat="44.99581597148575" lon="7.826284366440694"><ele>271.83333333333337</ele><time>2026-04-17T15:25:26.009Z</time></trkpt><trkpt lat="44.99592602327003" lon="7.826300883740803"><ele>271.6666666666667</ele><time>2026-04-17T15:25:27.004Z</time></trkpt><trkpt lat="44.99602093473385" lon="7.826315284101613"><ele>271.5</ele><time>2026-04-17T15:25:28.008Z</time></trkpt><trkpt lat="44.99608797206948" lon="7.826325354373814"><ele>271.3333333333333</ele><time>2026-04-17T15:25:29.007Z</time></trkpt><trkpt lat="44.996167296134225" lon="7.826335392470913"><ele>271.16666666666663</ele><time>2026-04-17T15:25:30.005Z</time></trkpt><trkpt lat="44.99625539649834" lon="7.826349339476233"><ele>271.0</ele><time>2026-04-17T15:25:31.008Z</time></trkpt><trkpt lat="44.9963217752619" lon="7.826372870606045"><ele>271.0</ele><time>2026-04-17T15:25:32.009Z</time></trkpt><trkpt lat="44.99642454482472" lon="7.8265033286978705"><ele>271.0</ele><time>2026-04-17T15:25:34.008Z</time></trkpt><trkpt lat="44.996468256751136" lon="7.826619964318269"><ele>271.0</ele><time>2026-04-17T15:25:35.009Z</time></trkpt><trkpt lat="44.996451855611355" lon="7.8267480061403605"><ele>271.0</ele><time>2026-04-17T15:25:36.006Z</time></trkpt><trkpt lat="44.99644747448929" lon="7.826928397155832"><ele>270.75</ele><time>2026-04-17T15:25:37.009Z</time></trkpt><trkpt lat="44.996422244055566" lon="7.827094751224845"><ele>270.5</ele><time>2026-04-17T15:25:38.009Z</time></trkpt><trkpt lat="44.996415814559896" lon="7.8272681980409375"><ele>270.25</ele><time>2026-04-17T15:25:39.008Z</time></trkpt><trkpt lat="44.99640591002221" lon="7.827455921231775"><ele>270.0</ele><time>2026-04-17T15:25:40.009Z</time></trkpt><trkpt lat="44.99639818103555" lon="7.8276350743882706"><ele>270.0</ele><time>2026-04-17T15:25:41.007Z</time></trkpt><trkpt lat="44.99639551053037" lon="7.827792509289544"><ele>270.0</ele><time>2026-04-17T15:25:42.008Z</time></trkpt><trkpt lat="44.99639161574324" lon="7.8279250938485925"><ele>270.0</ele><time>2026-04-17T15:25:43.008Z</time></trkpt><trkpt lat="44.99638253826179" lon="7.828045302269919"><ele>270.0</ele><time>2026-04-17T15:25:44.003Z</time></trkpt><trkpt lat="44.99637858505313" lon="7.828154532017466"><ele>270.0</ele><time>2026-04-17T15:25:45.005Z</time></trkpt><trkpt lat="44.99636791199979" lon="7.828259624181905"><ele>270.0</ele><time>2026-04-17T15:25:46.008Z</time></trkpt><trkpt lat="44.99635604017411" lon="7.828352211121122"><ele>270.0</ele><time>2026-04-17T15:25:47.007Z</time></trkpt><trkpt lat="44.99633053090177" lon="7.828448950466967"><ele>270.0</ele><time>2026-04-17T15:25:48.01Z</time></trkpt><trkpt lat="44.99623980988921" lon="7.828510351097384"><ele>270.0</ele><time>2026-04-17T15:25:49.009Z</time></trkpt><trkpt lat="44.99614293061881" lon="7.828575312671304"><ele>270.0</ele><time>2026-04-17T15:25:50.005Z</time></trkpt><trkpt lat="44.99607322705928" lon="7.828670260068492"><ele>270.0</ele><time>2026-04-17T15:25:51.008Z</time></trkpt><trkpt lat="44.996047747536856" lon="7.82879514785367"><ele>270.4</ele><time>2026-04-17T15:25:52.004Z</time></trkpt><trkpt lat="44.99605363619072" lon="7.828938194842978"><ele>270.8</ele><time>2026-04-17T15:25:53.007Z</time></trkpt><trkpt lat="44.99608402061422" lon="7.829078637574356"><ele>271.2</ele><time>2026-04-17T15:25:54.003Z</time></trkpt><trkpt lat="44.99613384522193" lon="7.82920985151373"><ele>271.6</ele><time>2026-04-17T15:25:55.008Z</time></trkpt><trkpt lat="44.996182894000256" lon="7.829353899548329"><ele>272.0</ele><time>2026-04-17T15:25:56.004Z</time></trkpt><trkpt lat="44.99619286502202" lon="7.829505102934662"><ele>272.0</ele><time>2026-04-17T15:25:57.006Z</time></trkpt><trkpt lat="44.99617911146386" lon="7.829676264162334"><ele>272.0</ele><time>2026-04-17T15:25:58.004Z</time></trkpt><trkpt lat="44.996147910121024" lon="7.829861920957095"><ele>272.0</ele><time>2026-04-17T15:25:59.005Z</time></trkpt><trkpt lat="44.99611989845151" lon="7.830073861957672"><ele>272.0</ele><time>2026-04-17T15:26:00.005Z</time></trkpt><trkpt lat="44.99610270883052" lon="7.830301808880055"><ele>271.33333333333337</ele><time>2026-04-17T15:26:01.006Z</time></trkpt><trkpt lat="44.99609691715585" lon="7.830549143222625"><ele>270.6666666666667</ele><time>2026-04-17T15:26:02.007Z</time></trkpt><trkpt lat="44.996092907549006" lon="7.830806827069702"><ele>270.0</ele><time>2026-04-17T15:26:03.008Z</time></trkpt><trkpt lat="44.99609507853299" lon="7.831072696515553"><ele>270.0</ele><time>2026-04-17T15:26:04.005Z</time></trkpt><trkpt lat="44.996109220577225" lon="7.831347666210939"><ele>270.0</ele><time>2026-04-17T15:26:05.01Z</time></trkpt><trkpt lat="44.99613617226801" lon="7.831634322941208"><ele>270.0</ele><time>2026-04-17T15:26:06.005Z</time></trkpt><trkpt lat="44.996166607972036" lon="7.831903664216899"><ele>269.6666666666667</ele><time>2026-04-17T15:26:07.003Z</time></trkpt><trkpt lat="44.99619840317331" lon="7.832141031886341"><ele>269.33333333333337</ele><time>2026-04-17T15:26:08.004Z</time></trkpt><trkpt lat="44.99621888619714" lon="7.8323656858614195"><ele>269.0</ele><time>2026-04-17T15:26:09.004Z</time></trkpt><trkpt lat="44.9962351598289" lon="7.832583204735547"><ele>268.0</ele><time>2026-04-17T15:26:10.007Z</time></trkpt><trkpt lat="44.99625202117144" lon="7.832794426929054"><ele>267.0</ele><time>2026-04-17T15:26:11.005Z</time></trkpt><trkpt lat="44.99626836648915" lon="7.833005801050625"><ele>266.0</ele><time>2026-04-17T15:26:12.007Z</time></trkpt><trkpt lat="44.99628718283875" lon="7.833223403011285"><ele>266.0</ele><time>2026-04-17T15:26:13.008Z</time></trkpt><trkpt lat="44.99630566783636" lon="7.833425119608339"><ele>266.0</ele><time>2026-04-17T15:26:14.008Z</time></trkpt><trkpt lat="44.99632401884194" lon="7.833615712809688"><ele>266.0</ele><time>2026-04-17T15:26:15.004Z</time></trkpt><trkpt lat="44.99634123748118" lon="7.8338024939816036"><ele>266.0</ele><time>2026-04-17T15:26:16.008Z</time></trkpt><trkpt lat="44.996356620868106" lon="7.8339973759065815"><ele>266.5</ele><time>2026-04-17T15:26:17.008Z</time></trkpt><trkpt lat="44.99637593616788" lon="7.83419457190706"><ele>267.0</ele><time>2026-04-17T15:26:18.003Z</time></trkpt><trkpt lat="44.99639300552458" lon="7.834399422756563"><ele>267.5</ele><time>2026-04-17T15:26:19.007Z</time></trkpt><trkpt lat="44.99641250816519" lon="7.834595334481633"><ele>268.0</ele><time>2026-04-17T15:26:19.984Z</time></trkpt><trkpt lat="44.996420495087634" lon="7.834789008213645"><ele>268.25</ele><time>2026-04-17T15:26:20.985Z</time></trkpt><trkpt lat="44.99644787258467" lon="7.834975201033975"><ele>268.5</ele><time>2026-04-17T15:26:21.986Z</time></trkpt><trkpt lat="44.99646327514102" lon="7.835161294485326"><ele>268.75</ele><time>2026-04-17T15:26:22.987Z</time></trkpt><trkpt lat="44.9964773777044" lon="7.835321464301484"><ele>269.0</ele><time>2026-04-17T15:26:23.988Z</time></trkpt><trkpt lat="44.996492896424485" lon="7.835465691255768"><ele>269.1666666666667</ele><time>2026-04-17T15:26:24.989Z</time></trkpt><trkpt lat="44.99650882711511" lon="7.835593708179015"><ele>269.33333333333337</ele><time>2026-04-17T15:26:25.99Z</time></trkpt><trkpt lat="44.99651682072912" lon="7.835709535648447"><ele>269.5</ele><time>2026-04-17T15:26:26.99Z</time></trkpt><trkpt lat="44.99652659288828" lon="7.835818242794522"><ele>269.6666666666667</ele><time>2026-04-17T15:26:27.991Z</time></trkpt><trkpt lat="44.99652628238512" lon="7.835920499788798"><ele>269.8333333333333</ele><time>2026-04-17T15:26:28.992Z</time></trkpt><trkpt lat="44.99653139599997" lon="7.836022527236278"><ele>270.0</ele><time>2026-04-17T15:26:29.992Z</time></trkpt><trkpt lat="44.996521730331246" lon="7.83613157176083"><ele>270.0</ele><time>2026-04-17T15:26:30.993Z</time></trkpt><trkpt lat="44.99652403584376" lon="7.836239791162619"><ele>270.0</ele><time>2026-04-17T15:26:31.993Z</time></trkpt><trkpt lat="44.996526318003184" lon="7.836346914341992"><ele>270.0</ele><time>2026-04-17T15:26:32.994Z</time></trkpt><trkpt lat="44.996527601286" lon="7.8364538962157235"><ele>270.0</ele><time>2026-04-17T15:26:33.994Z</time></trkpt><trkpt lat="44.996528295868956" lon="7.836546092827057"><ele>270.0</ele><time>2026-04-17T15:26:34.994Z</time></trkpt><trkpt lat="44.99652931371815" lon="7.836681198633998"><ele>270.0</ele><time>2026-04-17T15:26:36.995Z</time></trkpt><trkpt lat="44.996527988454545" lon="7.836786228149468"><ele>269.8333333333333</ele><time>2026-04-17T15:26:38.996Z</time></trkpt><trkpt lat="44.996493310702846" lon="7.836903441766853"><ele>269.6666666666667</ele><time>2026-04-17T15:26:46.997Z</time></trkpt><trkpt lat="44.996410948480964" lon="7.837025638266362"><ele>269.5</ele><time>2026-04-17T15:26:48.998Z</time></trkpt><trkpt lat="44.99636184469557" lon="7.837094397887704"><ele>269.33333333333337</ele><time>2026-04-17T15:26:49.998Z</time></trkpt><trkpt lat="44.996326391751076" lon="7.83717612100612"><ele>269.1666666666667</ele><time>2026-04-17T15:26:50.998Z</time></trkpt><trkpt lat="44.99629737861984" lon="7.8372587114362"><ele>269.0</ele><time>2026-04-17T15:26:51.998Z</time></trkpt><trkpt lat="44.996315789419256" lon="7.8373656228319"><ele>269.0</ele><time>2026-04-17T15:26:52.998Z</time></trkpt><trkpt lat="44.99636081298931" lon="7.837461621169173"><ele>269.0</ele><time>2026-04-17T15:26:53.998Z</time></trkpt><trkpt lat="44.99641894871536" lon="7.837533814648152"><ele>269.0</ele><time>2026-04-17T15:26:54.998Z</time></trkpt><trkpt lat="44.99651642197435" lon="7.837554107310179"><ele>269.0</ele><time>2026-04-17T15:26:55.998Z</time></trkpt><trkpt lat="44.996598980826064" lon="7.837546038683994"><ele>269.0</ele><time>2026-04-17T15:26:56.999Z</time></trkpt><trkpt lat="44.99667513011312" lon="7.837469057830225"><ele>269.0</ele><time>2026-04-17T15:26:57.999Z</time></trkpt><trkpt lat="44.99671193209269" lon="7.837331741031577"><ele>269.4</ele><time>2026-04-17T15:26:58.999Z</time></trkpt><trkpt lat="44.996747377539826" lon="7.8372239368367715"><ele>269.79999999999995</ele><time>2026-04-17T15:26:59.999Z</time></trkpt><trkpt lat="44.99678117755332" lon="7.8371117612732135"><ele>270.20000000000005</ele><time>2026-04-17T15:27:00.999Z</time></trkpt><trkpt lat="44.99679953494399" lon="7.837004146183589"><ele>270.6</ele><time>2026-04-17T15:27:01.999Z</time></trkpt><trkpt lat="44.99694188580218" lon="7.836995855477319"><ele>271.0</ele><time>2026-04-17T15:27:02.999Z</time></trkpt><trkpt lat="44.997045568628494" lon="7.836939532721944"><ele>271.0</ele><time>2026-04-17T15:27:03.999Z</time></trkpt><trkpt lat="44.99716535106555" lon="7.836873988514436"><ele>271.0</ele><time>2026-04-17T15:27:04.999Z</time></trkpt><trkpt lat="44.997304156980604" lon="7.83679498529485"><ele>271.0</ele><time>2026-04-17T15:27:05.999Z</time></trkpt><trkpt lat="44.99744875996591" lon="7.836710307362457"><ele>271.0</ele><time>2026-04-17T15:27:06.999Z</time></trkpt><trkpt lat="44.99761401010322" lon="7.836607640761365"><ele>271.66666666666663</ele><time>2026-04-17T15:27:07.999Z</time></trkpt><trkpt lat="44.99780171795808" lon="7.83646290761179"><ele>272.3333333333333</ele><time>2026-04-17T15:27:08.999Z</time></trkpt><trkpt lat="44.99798325488212" lon="7.836342738009716"><ele>273.0</ele><time>2026-04-17T15:27:09.999Z</time></trkpt><trkpt lat="44.99813556996602" lon="7.836260918795169"><ele>273.0</ele><time>2026-04-17T15:27:10.999Z</time></trkpt><trkpt lat="44.998254796648844" lon="7.836177904920666"><ele>273.0</ele><time>2026-04-17T15:27:11.999Z</time></trkpt><trkpt lat="44.9983517460269" lon="7.836110402055881"><ele>273.0</ele><time>2026-04-17T15:27:12.999Z</time></trkpt><trkpt lat="44.998446248416535" lon="7.8360456510934435"><ele>273.0</ele><time>2026-04-17T15:27:13.999Z</time></trkpt><trkpt lat="44.998546553384344" lon="7.835977435634264"><ele>272.75</ele><time>2026-04-17T15:27:14.999Z</time></trkpt><trkpt lat="44.99865487501653" lon="7.8359043048939325"><ele>272.5</ele><time>2026-04-17T15:27:15.999Z</time></trkpt><trkpt lat="44.998772999446004" lon="7.835826503158747"><ele>272.25</ele><time>2026-04-17T15:27:16.999Z</time></trkpt><trkpt lat="44.99888063135768" lon="7.83573057993633"><ele>272.0</ele><time>2026-04-17T15:27:17.999Z</time></trkpt><trkpt lat="44.99898036805118" lon="7.835672353499083"><ele>272.0</ele><time>2026-04-17T15:27:18.999Z</time></trkpt><trkpt lat="44.9990671495612" lon="7.835616129442547"><ele>272.0</ele><time>2026-04-17T15:27:19.999Z</time></trkpt><trkpt lat="44.9991502904607" lon="7.835558984573424"><ele>272.0</ele><time>2026-04-17T15:27:20.999Z</time></trkpt><trkpt lat="44.99924076700621" lon="7.835505998231837"><ele>272.0</ele><time>2026-04-17T15:27:21.999Z</time></trkpt><trkpt lat="44.99932337460751" lon="7.835457358442077"><ele>272.0</ele><time>2026-04-17T15:27:22.999Z</time></trkpt><trkpt lat="44.99939704293463" lon="7.83545276183381"><ele>272.0</ele><time>2026-04-17T15:27:23.999Z</time></trkpt><trkpt lat="44.99948025873808" lon="7.835487555681367"><ele>271.83333333333337</ele><time>2026-04-17T15:27:25.999Z</time></trkpt><trkpt lat="44.99955583042093" lon="7.83552600685621"><ele>271.6666666666667</ele><time>2026-04-17T15:27:28.999Z</time></trkpt><trkpt lat="44.99965039236714" lon="7.835594769872284"><ele>271.5</ele><time>2026-04-17T15:27:30.999Z</time></trkpt><trkpt lat="44.99971160941779" lon="7.835531683303445"><ele>271.3333333333333</ele><time>2026-04-17T15:27:31.999Z</time></trkpt><trkpt lat="44.999786686566985" lon="7.835408439134308"><ele>271.16666666666663</ele><time>2026-04-17T15:27:33.999Z</time></trkpt><trkpt lat="44.99978727999683" lon="7.835311033307096"><ele>271.0</ele><time>2026-04-17T15:27:34.999Z</time></trkpt><trkpt lat="44.99984691227851" lon="7.835159467089022"><ele>271.3333333333333</ele><time>2026-04-17T15:27:36.999Z</time></trkpt><trkpt lat="44.99991392014757" lon="7.835108875984972"><ele>271.66666666666663</ele><time>2026-04-17T15:27:37.999Z</time></trkpt><trkpt lat="44.99999876923511" lon="7.835037175615285"><ele>272.0</ele><time>2026-04-17T15:27:39.999Z</time></trkpt><trkpt lat="45.0000708049679" lon="7.83499030804198"><ele>272.3333333333333</ele><time>2026-04-17T15:27:41.999Z</time></trkpt><trkpt lat="45.00014858809204" lon="7.8349377568927165"><ele>272.6666666666667</ele><time>2026-04-17T15:27:43.999Z</time></trkpt><trkpt lat="45.00023465763241" lon="7.834879366254673"><ele>273.0</ele><time>2026-04-17T15:27:45.999Z</time></trkpt><trkpt lat="45.000292478775016" lon="7.834840500748172"><ele>273.0</ele><time>2026-04-17T15:27:46.999Z</time></trkpt><trkpt lat="45.0003604533016" lon="7.83479508265844"><ele>273.0</ele><time>2026-04-17T15:27:47.999Z</time></trkpt><trkpt lat="45.00043468851825" lon="7.834733177822279"><ele>273.0</ele><time>2026-04-17T15:27:48.999Z</time></trkpt><trkpt lat="45.00051837100004" lon="7.834664456667448"><ele>273.0</ele><time>2026-04-17T15:27:49.999Z</time></trkpt><trkpt lat="45.00059625563019" lon="7.8345971332650945"><ele>273.0</ele><time>2026-04-17T15:27:50.999Z</time></trkpt><trkpt lat="45.00066951092754" lon="7.834538424218568"><ele>273.0</ele><time>2026-04-17T15:27:51.999Z</time></trkpt><trkpt lat="45.00074378262364" lon="7.834478619738864"><ele>273.0</ele><time>2026-04-17T15:27:52.999Z</time></trkpt><trkpt lat="45.00081237308381" lon="7.834417595991909"><ele>273.0</ele><time>2026-04-17T15:27:53.999Z</time></trkpt><trkpt lat="45.00087257949409" lon="7.834354218385059"><ele>273.0</ele><time>2026-04-17T15:27:54.999Z</time></trkpt><trkpt lat="45.000972926900374" lon="7.834275511261845"><ele>273.0</ele><time>2026-04-17T15:27:56.999Z</time></trkpt><trkpt lat="45.001025363449024" lon="7.834215567195016"><ele>273.0</ele><time>2026-04-17T15:27:57.999Z</time></trkpt><trkpt lat="45.00108282614377" lon="7.834173739436122"><ele>273.0</ele><time>2026-04-17T15:27:58.999Z</time></trkpt><trkpt lat="45.001147386275335" lon="7.834118948107762"><ele>273.2</ele><time>2026-04-17T15:27:59.999Z</time></trkpt><trkpt lat="45.00123679148385" lon="7.8340597891510315"><ele>273.4</ele><time>2026-04-17T15:28:00.999Z</time></trkpt><trkpt lat="45.001298489381014" lon="7.83398286159455"><ele>273.59999999999997</ele><time>2026-04-17T15:28:01.999Z</time></trkpt><trkpt lat="45.00136586683848" lon="7.833919048592643"><ele>273.8</ele><time>2026-04-17T15:28:02.999Z</time></trkpt><trkpt lat="45.001467693350925" lon="7.833858615865584"><ele>274.0</ele><time>2026-04-17T15:28:03.999Z</time></trkpt><trkpt lat="45.00155448302083" lon="7.833783596170322"><ele>274.0</ele><time>2026-04-17T15:28:04.999Z</time></trkpt><trkpt lat="45.00163864416765" lon="7.8336814800607035"><ele>274.0</ele><time>2026-04-17T15:28:06.999Z</time></trkpt><trkpt lat="45.001700610319915" lon="7.833619077131118"><ele>274.0</ele><time>2026-04-17T15:28:07.999Z</time></trkpt><trkpt lat="45.00179428095251" lon="7.8335344960430335"><ele>274.0</ele><time>2026-04-17T15:28:09.999Z</time></trkpt><trkpt lat="45.00185824384411" lon="7.83347541514617"><ele>274.0</ele><time>2026-04-17T15:28:11.999Z</time></trkpt><trkpt lat="45.00191701335271" lon="7.833418350785138"><ele>274.0</ele><time>2026-04-17T15:28:14.999Z</time></trkpt><trkpt lat="45.00198593040662" lon="7.8333584736470785"><ele>274.2</ele><time>2026-04-17T15:28:17.999Z</time></trkpt><trkpt lat="45.00206683220125" lon="7.833320035101108"><ele>274.4</ele><time>2026-04-17T15:28:20.998Z</time></trkpt><trkpt lat="45.00215544437297" lon="7.833431167828214"><ele>274.6</ele><time>2026-04-17T15:28:22.998Z</time></trkpt><trkpt lat="45.00218943086712" lon="7.83355206690481"><ele>274.8</ele><time>2026-04-17T15:28:23.998Z</time></trkpt><trkpt lat="45.00222383643766" lon="7.833699104726084"><ele>275.0</ele><time>2026-04-17T15:28:24.998Z</time></trkpt><trkpt lat="45.00225793081017" lon="7.833866439676352"><ele>275.0</ele><time>2026-04-17T15:28:26Z</time></trkpt><trkpt lat="45.00230471695587" lon="7.834039658898044"><ele>275.0</ele><time>2026-04-17T15:28:27Z</time></trkpt><trkpt lat="45.00235376859107" lon="7.8341792858221115"><ele>275.0</ele><time>2026-04-17T15:28:28Z</time></trkpt><trkpt lat="45.002390011461905" lon="7.834336276986832"><ele>275.0</ele><time>2026-04-17T15:28:29Z</time></trkpt><trkpt lat="45.00242954532059" lon="7.834487361641349"><ele>275.0</ele><time>2026-04-17T15:28:30Z</time></trkpt><trkpt lat="45.002470805901645" lon="7.834604539332021"><ele>275.0</ele><time>2026-04-17T15:28:31Z</time></trkpt><trkpt lat="45.002505017517585" lon="7.834723894167304"><ele>275.0</ele><time>2026-04-17T15:28:32Z</time></trkpt><trkpt lat="45.00254376023075" lon="7.834811721104408"><ele>275.0</ele><time>2026-04-17T15:28:34Z</time></trkpt><trkpt lat="45.002581311647376" lon="7.834955813382357"><ele>275.0</ele><time>2026-04-17T15:28:44Z</time></trkpt><trkpt lat="45.00264218015335" lon="7.835004166380159"><ele>275.0</ele><time>2026-04-17T15:28:45Z</time></trkpt><trkpt lat="45.00269640867032" lon="7.835064600926282"><ele>275.0</ele><time>2026-04-17T15:28:46Z</time></trkpt><trkpt lat="45.0027720743757" lon="7.835058148038122"><ele>275.0</ele><time>2026-04-17T15:28:47Z</time></trkpt><trkpt lat="45.00286489988005" lon="7.835021867861139"><ele>275.0</ele><time>2026-04-17T15:28:48Z</time></trkpt><trkpt lat="45.00298383476113" lon="7.8349786777355295"><ele>275.0</ele><time>2026-04-17T15:28:49Z</time></trkpt><trkpt lat="45.00312012070046" lon="7.834929450084801"><ele>275.0</ele><time>2026-04-17T15:28:50Z</time></trkpt><trkpt lat="45.003257690705" lon="7.834896174507204"><ele>275.2</ele><time>2026-04-17T15:28:51Z</time></trkpt><trkpt lat="45.0033725263935" lon="7.834881355570839"><ele>275.4</ele><time>2026-04-17T15:28:52Z</time></trkpt><trkpt lat="45.00346805076186" lon="7.83488040823199"><ele>275.6</ele><time>2026-04-17T15:28:53Z</time></trkpt><trkpt lat="45.00356150129313" lon="7.834875921065562"><ele>275.8</ele><time>2026-04-17T15:28:54Z</time></trkpt><trkpt lat="45.003665944276804" lon="7.834878922114436"><ele>276.0</ele><time>2026-04-17T15:28:55Z</time></trkpt><trkpt lat="45.00377230004949" lon="7.834880431988275"><ele>276.0</ele><time>2026-04-17T15:28:56Z</time></trkpt><trkpt lat="45.00388069214471" lon="7.8348899265129806"><ele>276.0</ele><time>2026-04-17T15:28:57Z</time></trkpt><trkpt lat="45.00398677572563" lon="7.834912502701808"><ele>276.0</ele><time>2026-04-17T15:28:58Z</time></trkpt><trkpt lat="45.00409475821498" lon="7.8349416128807485"><ele>276.0</ele><time>2026-04-17T15:28:59Z</time></trkpt><trkpt lat="45.00420495484371" lon="7.8349797599952815"><ele>276.0</ele><time>2026-04-17T15:29:00Z</time></trkpt><trkpt lat="45.00430611393908" lon="7.835013860659919"><ele>276.40000000000003</ele><time>2026-04-17T15:29:01Z</time></trkpt><trkpt lat="45.00440507608169" lon="7.835054113066365"><ele>276.8</ele><time>2026-04-17T15:29:02Z</time></trkpt><trkpt lat="45.00449588033736" lon="7.8350951725866755"><ele>277.20000000000005</ele><time>2026-04-17T15:29:03Z</time></trkpt><trkpt lat="45.00459144967077" lon="7.835124974590069"><ele>277.6</ele><time>2026-04-17T15:29:04Z</time></trkpt><trkpt lat="45.00469174680951" lon="7.835159690930638"><ele>278.0</ele><time>2026-04-17T15:29:05Z</time></trkpt><trkpt lat="45.004789745211944" lon="7.835193160177258"><ele>278.1666666666667</ele><time>2026-04-17T15:29:05.999Z</time></trkpt><trkpt lat="45.00487907476743" lon="7.8352227153540355"><ele>278.33333333333337</ele><time>2026-04-17T15:29:06.999Z</time></trkpt><trkpt lat="45.00495569858249" lon="7.835247346449664"><ele>278.5</ele><time>2026-04-17T15:29:07.999Z</time></trkpt><trkpt lat="45.00503545724924" lon="7.835286165225646"><ele>278.6666666666667</ele><time>2026-04-17T15:29:09.999Z</time></trkpt><trkpt lat="45.0051055677587" lon="7.835288355967551"><ele>278.8333333333333</ele><time>2026-04-17T15:29:14.999Z</time></trkpt><trkpt lat="45.005167169302965" lon="7.835310419779259"><ele>279.0</ele><time>2026-04-17T15:29:16.999Z</time></trkpt><trkpt lat="45.00525246113016" lon="7.835351882688039"><ele>279.0</ele><time>2026-04-17T15:29:18.999Z</time></trkpt><trkpt lat="45.005316456048284" lon="7.835394711844383"><ele>279.0</ele><time>2026-04-17T15:29:20.999Z</time></trkpt><trkpt lat="45.00537096167194" lon="7.835445834722765"><ele>279.0</ele><time>2026-04-17T15:29:23.999Z</time></trkpt><trkpt lat="45.00543823617326" lon="7.835484041074855"><ele>279.0</ele><time>2026-04-17T15:29:27.999Z</time></trkpt><trkpt lat="45.00549645463988" lon="7.83558303146542"><ele>279.0</ele><time>2026-04-17T15:29:29.999Z</time></trkpt><trkpt lat="45.00551324656441" lon="7.835682744258025"><ele>279.0</ele><time>2026-04-17T15:29:31.999Z</time></trkpt><trkpt lat="45.00556810910435" lon="7.835777275030434"><ele>279.0</ele><time>2026-04-17T15:29:34.999Z</time></trkpt><trkpt lat="45.00563983347921" lon="7.835800970237968"><ele>279.0</ele><time>2026-04-17T15:29:37.999Z</time></trkpt><trkpt lat="45.00571662888455" lon="7.8357498716368434"><ele>279.0</ele><time>2026-04-17T15:29:40.999Z</time></trkpt><trkpt lat="45.00577632245826" lon="7.835675883028617"><ele>279.0</ele><time>2026-04-17T15:29:42.999Z</time></trkpt><trkpt lat="45.00585339126974" lon="7.835624443878841"><ele>279.0</ele><time>2026-04-17T15:29:44.999Z</time></trkpt><trkpt lat="45.00594313168669" lon="7.835579658354686"><ele>279.0</ele><time>2026-04-17T15:29:46.999Z</time></trkpt><trkpt lat="45.00601843590476" lon="7.835521334128883"><ele>279.2</ele><time>2026-04-17T15:29:48.999Z</time></trkpt><trkpt lat="45.006087212730144" lon="7.8355080305125995"><ele>279.4</ele><time>2026-04-17T15:29:49.999Z</time></trkpt><trkpt lat="45.00617437939789" lon="7.835460415669276"><ele>279.6</ele><time>2026-04-17T15:29:50.999Z</time></trkpt><trkpt lat="45.00627239534373" lon="7.835406874409501"><ele>279.8</ele><time>2026-04-17T15:29:51.999Z</time></trkpt><trkpt lat="45.00635901166887" lon="7.835359560421684"><ele>280.0</ele><time>2026-04-17T15:29:52.999Z</time></trkpt><trkpt lat="45.0064512849125" lon="7.835308102800811"><ele>280.0</ele><time>2026-04-17T15:29:53.999Z</time></trkpt><trkpt lat="45.00654221554378" lon="7.835257797875951"><ele>280.0</ele><time>2026-04-17T15:29:54.999Z</time></trkpt><trkpt lat="45.00663908398373" lon="7.8352042080268545"><ele>280.0</ele><time>2026-04-17T15:29:55.999Z</time></trkpt><trkpt lat="45.00672390597028" lon="7.83513706893043"><ele>280.0</ele><time>2026-04-17T15:29:56.999Z</time></trkpt><trkpt lat="45.00681267019888" lon="7.835095476268088"><ele>280.0</ele><time>2026-04-17T15:29:57.999Z</time></trkpt><trkpt lat="45.006888701786494" lon="7.8350453553728405"><ele>280.6</ele><time>2026-04-17T15:29:58.999Z</time></trkpt><trkpt lat="45.006970547144206" lon="7.8350051905126845"><ele>281.2</ele><time>2026-04-17T15:29:59.999Z</time></trkpt><trkpt lat="45.00704651770354" lon="7.834956579999763"><ele>281.8</ele><time>2026-04-17T15:30:00.999Z</time></trkpt><trkpt lat="45.0071323977541" lon="7.83490631856882"><ele>282.4</ele><time>2026-04-17T15:30:01.999Z</time></trkpt><trkpt lat="45.007220289379596" lon="7.8348550911859824"><ele>283.0</ele><time>2026-04-17T15:30:02.999Z</time></trkpt><trkpt lat="45.007307143942086" lon="7.83481217698811"><ele>283.0</ele><time>2026-04-17T15:30:03.999Z</time></trkpt><trkpt lat="45.00739932293188" lon="7.834763029915183"><ele>283.0</ele><time>2026-04-17T15:30:04.999Z</time></trkpt><trkpt lat="45.007489663848" lon="7.834716191853613"><ele>283.0</ele><time>2026-04-17T15:30:05.999Z</time></trkpt><trkpt lat="45.00757457729975" lon="7.834668195073937"><ele>283.0</ele><time>2026-04-17T15:30:06.999Z</time></trkpt><trkpt lat="45.00765086362112" lon="7.8346239899922825"><ele>283.0</ele><time>2026-04-17T15:30:07.999Z</time></trkpt><trkpt lat="45.00773753113551" lon="7.8345778181647825"><ele>282.16666666666663</ele><time>2026-04-17T15:30:08.999Z</time></trkpt><trkpt lat="45.00781424429421" lon="7.834535326657754"><ele>281.3333333333333</ele><time>2026-04-17T15:30:09.999Z</time></trkpt><trkpt lat="45.007881187384626" lon="7.834489464257493"><ele>280.5</ele><time>2026-04-17T15:30:10.999Z</time></trkpt><trkpt lat="45.007943635477055" lon="7.83445534323056"><ele>279.6666666666667</ele><time>2026-04-17T15:30:11.999Z</time></trkpt><trkpt lat="45.00805243247312" lon="7.834397843405746"><ele>278.83333333333337</ele><time>2026-04-17T15:30:13.999Z</time></trkpt><trkpt lat="45.00811889336342" lon="7.834380936108652"><ele>278.0</ele><time>2026-04-17T15:30:14.999Z</time></trkpt><trkpt lat="45.00820141187356" lon="7.834327552605186"><ele>277.8</ele><time>2026-04-17T15:30:16.999Z</time></trkpt><trkpt lat="45.00828730916212" lon="7.834280586364496"><ele>277.6</ele><time>2026-04-17T15:30:18.999Z</time></trkpt><trkpt lat="45.008403849055284" lon="7.8342120489279266"><ele>277.4</ele><time>2026-04-17T15:30:20.999Z</time></trkpt><trkpt lat="45.00847485497195" lon="7.83417596607328"><ele>277.2</ele><time>2026-04-17T15:30:21.999Z</time></trkpt><trkpt lat="45.00855015849866" lon="7.8341350996089165"><ele>277.0</ele><time>2026-04-17T15:30:22.999Z</time></trkpt><trkpt lat="45.00863423175662" lon="7.834092145878593"><ele>277.0</ele><time>2026-04-17T15:30:23.999Z</time></trkpt><trkpt lat="45.00872142622355" lon="7.834054028315016"><ele>277.0</ele><time>2026-04-17T15:30:24.999Z</time></trkpt><trkpt lat="45.008801760307115" lon="7.834015023802548"><ele>277.0</ele><time>2026-04-17T15:30:25.999Z</time></trkpt><trkpt lat="45.008876542320564" lon="7.833980375808427"><ele>277.0</ele><time>2026-04-17T15:30:26.999Z</time></trkpt><trkpt lat="45.00895512553207" lon="7.83394746975855"><ele>277.0</ele><time>2026-04-17T15:30:27.999Z</time></trkpt><trkpt lat="45.00902966409171" lon="7.83392786141056"><ele>277.0</ele><time>2026-04-17T15:30:28.998Z</time></trkpt><trkpt lat="45.00910194111715" lon="7.833906129958947"><ele>277.3333333333333</ele><time>2026-04-17T15:30:29.998Z</time></trkpt><trkpt lat="45.00916570824235" lon="7.833884067205184"><ele>277.66666666666663</ele><time>2026-04-17T15:30:30.998Z</time></trkpt><trkpt lat="45.009231689943014" lon="7.83386200827265"><ele>278.0</ele><time>2026-04-17T15:30:32Z</time></trkpt><trkpt lat="45.00929354747665" lon="7.833839954604904"><ele>278.3333333333333</ele><time>2026-04-17T15:30:33Z</time></trkpt><trkpt lat="45.009406204635674" lon="7.833803068300461"><ele>278.6666666666667</ele><time>2026-04-17T15:30:35Z</time></trkpt><trkpt lat="45.00946920894804" lon="7.8338138876933305"><ele>279.0</ele><time>2026-04-17T15:30:36Z</time></trkpt><trkpt lat="45.00954236557804" lon="7.8337871962317704"><ele>279.0</ele><time>2026-04-17T15:30:37Z</time></trkpt><trkpt lat="45.009651281320934" lon="7.833762785754909"><ele>279.0</ele><time>2026-04-17T15:30:39Z</time></trkpt><trkpt lat="45.00975204070812" lon="7.833742511382851"><ele>279.0</ele><time>2026-04-17T15:30:41Z</time></trkpt><trkpt lat="45.009852857571985" lon="7.833728753014898"><ele>279.0</ele><time>2026-04-17T15:30:43Z</time></trkpt><trkpt lat="45.00995507047918" lon="7.8337063835825935"><ele>279.0</ele><time>2026-04-17T15:30:45Z</time></trkpt><trkpt lat="45.01004799862998" lon="7.833685501001669"><ele>279.1666666666667</ele><time>2026-04-17T15:30:47Z</time></trkpt><trkpt lat="45.010148461846164" lon="7.833669162138869"><ele>279.3333333333333</ele><time>2026-04-17T15:30:49Z</time></trkpt><trkpt lat="45.010272247527006" lon="7.833650212480632"><ele>279.5</ele><time>2026-04-17T15:30:51Z</time></trkpt><trkpt lat="45.01034023824441" lon="7.833635976157594"><ele>279.66666666666663</ele><time>2026-04-17T15:30:52Z</time></trkpt><trkpt lat="45.010409307786404" lon="7.833618898212706"><ele>279.8333333333333</ele><time>2026-04-17T15:30:53Z</time></trkpt><trkpt lat="45.01048042394796" lon="7.833606754065038"><ele>280.0</ele><time>2026-04-17T15:30:54Z</time></trkpt><trkpt lat="45.01054337368628" lon="7.833594183790343"><ele>280.0</ele><time>2026-04-17T15:30:55Z</time></trkpt><trkpt lat="45.01064543560048" lon="7.833571992216386"><ele>280.0</ele><time>2026-04-17T15:30:57Z</time></trkpt><trkpt lat="45.010727730190496" lon="7.833602603225435"><ele>280.0</ele><time>2026-04-17T15:30:59Z</time></trkpt><trkpt lat="45.01074344712796" lon="7.833756198755232"><ele>280.0</ele><time>2026-04-17T15:31:01Z</time></trkpt><trkpt lat="45.010732551702624" lon="7.833874156086645"><ele>280.0</ele><time>2026-04-17T15:31:02Z</time></trkpt><trkpt lat="45.01073293133442" lon="7.8340175674259855"><ele>280.0</ele><time>2026-04-17T15:31:03Z</time></trkpt><trkpt lat="45.010736104786304" lon="7.83418023564238"><ele>280.0</ele><time>2026-04-17T15:31:04Z</time></trkpt><trkpt lat="45.01073087704895" lon="7.834357155054223"><ele>280.0</ele><time>2026-04-17T15:31:05Z</time></trkpt><trkpt lat="45.0107270689722" lon="7.834529881400414"><ele>280.0</ele><time>2026-04-17T15:31:06Z</time></trkpt><trkpt lat="45.01072383394413" lon="7.834687340930075"><ele>279.4</ele><time>2026-04-17T15:31:07Z</time></trkpt><trkpt lat="45.01071944531375" lon="7.8348499237721745"><ele>278.8</ele><time>2026-04-17T15:31:08Z</time></trkpt><trkpt lat="45.010714891875736" lon="7.835015211711863"><ele>278.2</ele><time>2026-04-17T15:31:09Z</time></trkpt><trkpt lat="45.010694526545954" lon="7.835158739967054"><ele>277.6</ele><time>2026-04-17T15:31:10Z</time></trkpt><trkpt lat="45.010702837618176" lon="7.8352929443889"><ele>277.0</ele><time>2026-04-17T15:31:11Z</time></trkpt><trkpt lat="45.010698642390075" lon="7.835430594292848"><ele>277.0</ele><time>2026-04-17T15:31:12Z</time></trkpt><trkpt lat="45.010695456231176" lon="7.835562242968473"><ele>277.0</ele><time>2026-04-17T15:31:13Z</time></trkpt><trkpt lat="45.01069690263515" lon="7.835677915588601"><ele>277.0</ele><time>2026-04-17T15:31:13.999Z</time></trkpt><trkpt lat="45.01069916535667" lon="7.835784659988376"><ele>277.0</ele><time>2026-04-17T15:31:14.999Z</time></trkpt><trkpt lat="45.010674648192555" lon="7.835875243007473"><ele>277.0</ele><time>2026-04-17T15:31:15.999Z</time></trkpt><trkpt lat="45.01065796449969" lon="7.8360112518569265"><ele>277.0</ele><time>2026-04-17T15:31:17.999Z</time></trkpt><trkpt lat="45.01061878767891" lon="7.8361162277310665"><ele>277.0</ele><time>2026-04-17T15:31:20.999Z</time></trkpt><trkpt lat="45.01059239846747" lon="7.836274802487994"><ele>277.0</ele><time>2026-04-17T15:31:22.999Z</time></trkpt><trkpt lat="45.010636989206624" lon="7.836425857006323"><ele>277.0</ele><time>2026-04-17T15:31:24.999Z</time></trkpt><trkpt lat="45.010650319964064" lon="7.83661383239384"><ele>277.0</ele><time>2026-04-17T15:31:26.999Z</time></trkpt><trkpt lat="45.0106626331369" lon="7.836709033595025"><ele>277.0</ele><time>2026-04-17T15:31:27.999Z</time></trkpt><trkpt lat="45.010660829135205" lon="7.836816372947209"><ele>277.0</ele><time>2026-04-17T15:31:28.999Z</time></trkpt><trkpt lat="45.01065750052737" lon="7.8369347887684615"><ele>277.0</ele><time>2026-04-17T15:31:29.999Z</time></trkpt><trkpt lat="45.01065225473355" lon="7.837047773869283"><ele>277.0</ele><time>2026-04-17T15:31:30.999Z</time></trkpt><trkpt lat="45.010644371308196" lon="7.8371740559906895"><ele>277.0</ele><time>2026-04-17T15:31:31.999Z</time></trkpt><trkpt lat="45.01063716660197" lon="7.837298905892942"><ele>277.0</ele><time>2026-04-17T15:31:32.999Z</time></trkpt><trkpt lat="45.01062744857991" lon="7.8374187964840045"><ele>277.0</ele><time>2026-04-17T15:31:33.999Z</time></trkpt><trkpt lat="45.01062969767504" lon="7.837520156686339"><ele>277.0</ele><time>2026-04-17T15:31:34.999Z</time></trkpt><trkpt lat="45.01063365029718" lon="7.83762759785762"><ele>277.0</ele><time>2026-04-17T15:31:35.999Z</time></trkpt><trkpt lat="45.01062117453719" lon="7.837726820170415"><ele>277.0</ele><time>2026-04-17T15:31:36.999Z</time></trkpt><trkpt lat="45.010632423865765" lon="7.837870916154033"><ele>277.0</ele><time>2026-04-17T15:31:37.999Z</time></trkpt><trkpt lat="45.01061786733861" lon="7.837985995316929"><ele>277.0</ele><time>2026-04-17T15:31:38.999Z</time></trkpt><trkpt lat="45.0106163959632" lon="7.838087967140805"><ele>277.0</ele><time>2026-04-17T15:31:39.999Z</time></trkpt><trkpt lat="45.010616250231884" lon="7.838186859372682"><ele>277.25</ele><time>2026-04-17T15:31:40.999Z</time></trkpt><trkpt lat="45.010617223844896" lon="7.838325854638809"><ele>277.5</ele><time>2026-04-17T15:31:42.999Z</time></trkpt><trkpt lat="45.0106087291512" lon="7.838421075850304"><ele>277.75</ele><time>2026-04-17T15:31:51.999Z</time></trkpt><trkpt lat="45.01077168810863" lon="7.838393052064067"><ele>278.0</ele><time>2026-04-17T15:31:53.999Z</time></trkpt><trkpt lat="45.01089099404522" lon="7.838381002865493"><ele>278.0</ele><time>2026-04-17T15:31:55.999Z</time></trkpt><trkpt lat="45.01096395276383" lon="7.838354032492057"><ele>278.0</ele><time>2026-04-17T15:31:56.999Z</time></trkpt><trkpt lat="45.01104480539854" lon="7.838354578553942"><ele>278.0</ele><time>2026-04-17T15:31:57.999Z</time></trkpt><trkpt lat="45.011143833339474" lon="7.838346983157388"><ele>278.0</ele><time>2026-04-17T15:31:58.999Z</time></trkpt><trkpt lat="45.01124503028649" lon="7.838342077885615"><ele>278.0</ele><time>2026-04-17T15:31:59.999Z</time></trkpt><trkpt lat="45.01135444583415" lon="7.838328448968297"><ele>278.0</ele><time>2026-04-17T15:32:00.999Z</time></trkpt><trkpt lat="45.011471115880816" lon="7.8383172366899245"><ele>278.0</ele><time>2026-04-17T15:32:01.999Z</time></trkpt><trkpt lat="45.01160070536569" lon="7.8383221333446205"><ele>278.0</ele><time>2026-04-17T15:32:02.999Z</time></trkpt><trkpt lat="45.011736593738654" lon="7.838309266831362"><ele>278.0</ele><time>2026-04-17T15:32:03.999Z</time></trkpt><trkpt lat="45.011861786628" lon="7.8382822418428"><ele>278.5</ele><time>2026-04-17T15:32:04.999Z</time></trkpt><trkpt lat="45.011996146689704" lon="7.8382708615809"><ele>279.0</ele><time>2026-04-17T15:32:05.999Z</time></trkpt><trkpt lat="45.012143351943" lon="7.838252936386274"><ele>279.5</ele><time>2026-04-17T15:32:06.999Z</time></trkpt><trkpt lat="45.01228472559575" lon="7.838233111073888"><ele>280.0</ele><time>2026-04-17T15:32:07.999Z</time></trkpt><trkpt lat="45.01240995108914" lon="7.838216747349392"><ele>280.5</ele><time>2026-04-17T15:32:08.999Z</time></trkpt><trkpt lat="45.01253758648458" lon="7.838206801717655"><ele>281.0</ele><time>2026-04-17T15:32:09.999Z</time></trkpt><trkpt lat="45.012672185490956" lon="7.838202543782116"><ele>281.5</ele><time>2026-04-17T15:32:10.999Z</time></trkpt><trkpt lat="45.0128013301276" lon="7.838189420646884"><ele>282.0</ele><time>2026-04-17T15:32:11.999Z</time></trkpt><trkpt lat="45.01291568201968" lon="7.838175718014783"><ele>282.0</ele><time>2026-04-17T15:32:12.999Z</time></trkpt><trkpt lat="45.013024556327906" lon="7.838166571190296"><ele>282.0</ele><time>2026-04-17T15:32:13.999Z</time></trkpt><trkpt lat="45.013143496651075" lon="7.838155234092517"><ele>282.0</ele><time>2026-04-17T15:32:14.999Z</time></trkpt><trkpt lat="45.013268200006095" lon="7.838136990970703"><ele>282.0</ele><time>2026-04-17T15:32:15.999Z</time></trkpt><trkpt lat="45.0133850300897" lon="7.838115910479825"><ele>282.6</ele><time>2026-04-17T15:32:16.999Z</time></trkpt><trkpt lat="45.01348787718161" lon="7.838100650260383"><ele>283.2</ele><time>2026-04-17T15:32:17.999Z</time></trkpt><trkpt lat="45.01357625187344" lon="7.838084654913087"><ele>283.8</ele><time>2026-04-17T15:32:18.999Z</time></trkpt><trkpt lat="45.013669073392485" lon="7.83808438837068"><ele>284.4</ele><time>2026-04-17T15:32:19.999Z</time></trkpt><trkpt lat="45.0137689496432" lon="7.8380672725680505"><ele>285.0</ele><time>2026-04-17T15:32:20.999Z</time></trkpt><trkpt lat="45.01387516915836" lon="7.8380321935247"><ele>285.0</ele><time>2026-04-17T15:32:21.999Z</time></trkpt><trkpt lat="45.01396938559315" lon="7.83804266298191"><ele>285.0</ele><time>2026-04-17T15:32:22.999Z</time></trkpt><trkpt lat="45.0140476888045" lon="7.838035369286008"><ele>285.0</ele><time>2026-04-17T15:32:23.999Z</time></trkpt><trkpt lat="45.01413901921556" lon="7.83801492292431"><ele>285.0</ele><time>2026-04-17T15:32:25.999Z</time></trkpt><trkpt lat="45.01424814337182" lon="7.8379933490170375"><ele>285.0</ele><time>2026-04-17T15:33:20Z</time></trkpt><trkpt lat="45.01431818947904" lon="7.837981980515598"><ele>285.0</ele><time>2026-04-17T15:33:21Z</time></trkpt><trkpt lat="45.014411749290154" lon="7.837930663963103"><ele>285.3333333333333</ele><time>2026-04-17T15:33:23Z</time></trkpt><trkpt lat="45.01445355044526" lon="7.837860553107837"><ele>285.6666666666667</ele><time>2026-04-17T15:33:24Z</time></trkpt><trkpt lat="45.014498744668586" lon="7.837749471652937"><ele>286.0</ele><time>2026-04-17T15:33:25Z</time></trkpt><trkpt lat="45.014533813513616" lon="7.837620240237016"><ele>286.33333333333337</ele><time>2026-04-17T15:33:26Z</time></trkpt><trkpt lat="45.01456373041545" lon="7.837528766617477"><ele>286.6666666666667</ele><time>2026-04-17T15:33:27Z</time></trkpt><trkpt lat="45.01459570257386" lon="7.8374451022115865"><ele>287.0</ele><time>2026-04-17T15:33:28Z</time></trkpt><trkpt lat="45.01465420972812" lon="7.837296000669226"><ele>287.2</ele><time>2026-04-17T15:33:30Z</time></trkpt><trkpt lat="45.014743361748195" lon="7.837188896899696"><ele>287.4</ele><time>2026-04-17T15:33:32Z</time></trkpt><trkpt lat="45.01479412306658" lon="7.837130517346386"><ele>287.6</ele><time>2026-04-17T15:33:32.999Z</time></trkpt><trkpt lat="45.01488429835366" lon="7.8371769455554565"><ele>287.8</ele><time>2026-04-17T15:33:33.999Z</time></trkpt><trkpt lat="45.01495263818288" lon="7.83723225782609"><ele>288.0</ele><time>2026-04-17T15:33:34.999Z</time></trkpt><trkpt lat="45.01503282609301" lon="7.837303834913443"><ele>288.0</ele><time>2026-04-17T15:33:35.999Z</time></trkpt><trkpt lat="45.01513623879854" lon="7.8373629239415195"><ele>288.0</ele><time>2026-04-17T15:33:36.999Z</time></trkpt><trkpt lat="45.015254485548816" lon="7.837410307783327"><ele>288.0</ele><time>2026-04-17T15:33:37.999Z</time></trkpt><trkpt lat="45.015372430589565" lon="7.837461266699581"><ele>288.0</ele><time>2026-04-17T15:33:38.999Z</time></trkpt><trkpt lat="45.01550085060482" lon="7.837485336700501"><ele>288.0</ele><time>2026-04-17T15:33:39.999Z</time></trkpt><trkpt lat="45.01563762789133" lon="7.837530220255363"><ele>288.0</ele><time>2026-04-17T15:33:40.999Z</time></trkpt><trkpt lat="45.015764467473176" lon="7.837570691894038"><ele>288.0</ele><time>2026-04-17T15:33:41.999Z</time></trkpt><trkpt lat="45.01589024993972" lon="7.8376585600004915"><ele>288.0</ele><time>2026-04-17T15:33:42.999Z</time></trkpt><trkpt lat="45.01599329714927" lon="7.8377931974288915"><ele>287.6666666666667</ele><time>2026-04-17T15:33:43.999Z</time></trkpt><trkpt lat="45.01608584112782" lon="7.837959410061175"><ele>287.33333333333337</ele><time>2026-04-17T15:33:44.999Z</time></trkpt><trkpt lat="45.016171119127975" lon="7.838152290801537"><ele>287.0</ele><time>2026-04-17T15:33:45.999Z</time></trkpt><trkpt lat="45.016232375175456" lon="7.838364149608221"><ele>288.0</ele><time>2026-04-17T15:33:46.999Z</time></trkpt><trkpt lat="45.01626034020011" lon="7.8385641076658255"><ele>289.0</ele><time>2026-04-17T15:33:47.999Z</time></trkpt><trkpt lat="45.01626732969837" lon="7.8387593272200835"><ele>290.0</ele><time>2026-04-17T15:33:48.999Z</time></trkpt><trkpt lat="45.01621455292847" lon="7.838952269615629"><ele>291.0</ele><time>2026-04-17T15:33:49.999Z</time></trkpt><trkpt lat="45.01618653033201" lon="7.839158641830417"><ele>290.0</ele><time>2026-04-17T15:33:50.999Z</time></trkpt><trkpt lat="45.01618053749116" lon="7.839338119803519"><ele>289.0</ele><time>2026-04-17T15:33:51.999Z</time></trkpt><trkpt lat="45.016215259474194" lon="7.83952804220292"><ele>288.0</ele><time>2026-04-17T15:33:52.999Z</time></trkpt><trkpt lat="45.016271493393944" lon="7.839732206428257"><ele>287.0</ele><time>2026-04-17T15:33:53.999Z</time></trkpt><trkpt lat="45.016341169760715" lon="7.839940250049942"><ele>286.0</ele><time>2026-04-17T15:33:54.999Z</time></trkpt><trkpt lat="45.016396195886394" lon="7.840161275321215"><ele>285.0</ele><time>2026-04-17T15:33:55.999Z</time></trkpt><trkpt lat="45.016452822473994" lon="7.840367860699568"><ele>284.0</ele><time>2026-04-17T15:33:56.999Z</time></trkpt><trkpt lat="45.01649375750645" lon="7.840543405685852"><ele>284.0</ele><time>2026-04-17T15:33:57.999Z</time></trkpt><trkpt lat="45.016534117067295" lon="7.840717413567381"><ele>284.0</ele><time>2026-04-17T15:33:58.999Z</time></trkpt><trkpt lat="45.0165713808173" lon="7.840887859036031"><ele>284.0</ele><time>2026-04-17T15:33:59.999Z</time></trkpt><trkpt lat="45.01659310954135" lon="7.841052862873537"><ele>284.0</ele><time>2026-04-17T15:34:00.999Z</time></trkpt><trkpt lat="45.01663082826168" lon="7.841184715909452"><ele>284.2</ele><time>2026-04-17T15:34:01.999Z</time></trkpt><trkpt lat="45.01668804597371" lon="7.8413012815592635"><ele>284.4</ele><time>2026-04-17T15:34:02.999Z</time></trkpt><trkpt lat="45.01676518277987" lon="7.841383687277383"><ele>284.6</ele><time>2026-04-17T15:34:03.999Z</time></trkpt><trkpt lat="45.01686700609635" lon="7.8414270599339515"><ele>284.8</ele><time>2026-04-17T15:34:04.999Z</time></trkpt><trkpt lat="45.01698235228024" lon="7.841396312874897"><ele>285.0</ele><time>2026-04-17T15:34:05.999Z</time></trkpt><trkpt lat="45.01709323591679" lon="7.841321586140181"><ele>285.0</ele><time>2026-04-17T15:34:06.999Z</time></trkpt><trkpt lat="45.017201911274896" lon="7.841191508118029"><ele>285.0</ele><time>2026-04-17T15:34:07.999Z</time></trkpt><trkpt lat="45.01732449601198" lon="7.841095701741796"><ele>285.0</ele><time>2026-04-17T15:34:08.999Z</time></trkpt><trkpt lat="45.01747296596304" lon="7.841019999778906"><ele>285.0</ele><time>2026-04-17T15:34:09.999Z</time></trkpt><trkpt lat="45.01760773256705" lon="7.840954230875506"><ele>285.0</ele><time>2026-04-17T15:34:10.999Z</time></trkpt><trkpt lat="45.01774649080159" lon="7.840905042562422"><ele>285.0</ele><time>2026-04-17T15:34:11.999Z</time></trkpt><trkpt lat="45.01789078518031" lon="7.840860042710215"><ele>285.0</ele><time>2026-04-17T15:34:12.999Z</time></trkpt><trkpt lat="45.01801895030112" lon="7.840808051685184"><ele>285.0</ele><time>2026-04-17T15:34:13.999Z</time></trkpt><trkpt lat="45.01813773933159" lon="7.840739058226263"><ele>285.0</ele><time>2026-04-17T15:34:14.999Z</time></trkpt><trkpt lat="45.01825476511687" lon="7.840634553422149"><ele>285.0</ele><time>2026-04-17T15:34:15.999Z</time></trkpt><trkpt lat="45.018364470637415" lon="7.840505060554862"><ele>285.0</ele><time>2026-04-17T15:34:16.999Z</time></trkpt><trkpt lat="45.018474357869536" lon="7.840347723727933"><ele>285.0</ele><time>2026-04-17T15:34:17.999Z</time></trkpt><trkpt lat="45.01858425767715" lon="7.840183692762931"><ele>285.3333333333333</ele><time>2026-04-17T15:34:18.999Z</time></trkpt><trkpt lat="45.01869993984387" lon="7.8400203589955"><ele>285.66666666666663</ele><time>2026-04-17T15:34:19.999Z</time></trkpt><trkpt lat="45.018817877339494" lon="7.839858069536054"><ele>286.0</ele><time>2026-04-17T15:34:20.999Z</time></trkpt><trkpt lat="45.01893108564872" lon="7.839697887558691"><ele>286.0</ele><time>2026-04-17T15:34:21.999Z</time></trkpt><trkpt lat="45.019035966601294" lon="7.839552605023928"><ele>286.0</ele><time>2026-04-17T15:34:22.999Z</time></trkpt><trkpt lat="45.019144605768446" lon="7.839421753278808"><ele>286.0</ele><time>2026-04-17T15:34:23.999Z</time></trkpt><trkpt lat="45.01926518856057" lon="7.839293069657625"><ele>286.0</ele><time>2026-04-17T15:34:24.999Z</time></trkpt><trkpt lat="45.019390541780695" lon="7.83916013096384"><ele>287.0</ele><time>2026-04-17T15:34:25.999Z</time></trkpt><trkpt lat="45.01951332477067" lon="7.839025804555511"><ele>288.0</ele><time>2026-04-17T15:34:26.999Z</time></trkpt><trkpt lat="45.01963258942416" lon="7.838880794336574"><ele>289.0</ele><time>2026-04-17T15:34:27.999Z</time></trkpt><trkpt lat="45.019757016900904" lon="7.8387380366484685"><ele>289.0</ele><time>2026-04-17T15:34:28.999Z</time></trkpt><trkpt lat="45.01987770402174" lon="7.838597128685015"><ele>289.0</ele><time>2026-04-17T15:34:29.999Z</time></trkpt><trkpt lat="45.01999647763331" lon="7.838457554487401"><ele>289.0</ele><time>2026-04-17T15:34:30.999Z</time></trkpt><trkpt lat="45.02011394267452" lon="7.838323295135351"><ele>289.25</ele><time>2026-04-17T15:34:31.999Z</time></trkpt><trkpt lat="45.0202250385032" lon="7.838209887573412"><ele>289.5</ele><time>2026-04-17T15:34:32.999Z</time></trkpt><trkpt lat="45.02032448193187" lon="7.838090543713772"><ele>289.75</ele><time>2026-04-17T15:34:33.999Z</time></trkpt><trkpt lat="45.0204254439908" lon="7.837979218210149"><ele>290.0</ele><time>2026-04-17T15:34:34.999Z</time></trkpt><trkpt lat="45.020526854836895" lon="7.837854674768249"><ele>290.0</ele><time>2026-04-17T15:34:35.999Z</time></trkpt><trkpt lat="45.0206320606846" lon="7.837736665660971"><ele>290.0</ele><time>2026-04-17T15:34:36.999Z</time></trkpt><trkpt lat="45.02072086350151" lon="7.837626226678439"><ele>290.0</ele><time>2026-04-17T15:34:37.999Z</time></trkpt><trkpt lat="45.02080772438345" lon="7.8375305122079695"><ele>290.0</ele><time>2026-04-17T15:34:38.999Z</time></trkpt><trkpt lat="45.020868332345415" lon="7.8374449647297615"><ele>290.0</ele><time>2026-04-17T15:34:39.999Z</time></trkpt><trkpt lat="45.02091579695182" lon="7.837385264689194"><ele>290.1666666666667</ele><time>2026-04-17T15:34:40.999Z</time></trkpt><trkpt lat="45.02097158341821" lon="7.837325120496834"><ele>290.33333333333337</ele><time>2026-04-17T15:34:42.999Z</time></trkpt><trkpt lat="45.02103875118581" lon="7.837270837655331"><ele>290.5</ele><time>2026-04-17T15:34:46Z</time></trkpt><trkpt lat="45.021099352292815" lon="7.837224048422568"><ele>290.6666666666667</ele><time>2026-04-17T15:34:49Z</time></trkpt><trkpt lat="45.02119807189614" lon="7.837369456552585"><ele>290.8333333333333</ele><time>2026-04-17T15:34:51Z</time></trkpt><trkpt lat="45.021230300184115" lon="7.837449486150753"><ele>291.0</ele><time>2026-04-17T15:34:52Z</time></trkpt><trkpt lat="45.02127176258686" lon="7.837526883483715"><ele>291.0</ele><time>2026-04-17T15:34:53Z</time></trkpt><trkpt lat="45.02131249578428" lon="7.837597064533937"><ele>291.0</ele><time>2026-04-17T15:34:54Z</time></trkpt><trkpt lat="45.02136712240268" lon="7.837650348477535"><ele>291.0</ele><time>2026-04-17T15:34:55Z</time></trkpt><trkpt lat="45.02143960026267" lon="7.837791830057438"><ele>291.0</ele><time>2026-04-17T15:34:57Z</time></trkpt><trkpt lat="45.021480382702016" lon="7.8378926198824095"><ele>291.0</ele><time>2026-04-17T15:34:58Z</time></trkpt><trkpt lat="45.0215383855541" lon="7.837995145146528"><ele>291.0</ele><time>2026-04-17T15:34:59Z</time></trkpt><trkpt lat="45.02161718871631" lon="7.838119699210053"><ele>293.0</ele><time>2026-04-17T15:35:00Z</time></trkpt><trkpt lat="45.02169780935899" lon="7.838260866264699"><ele>295.0</ele><time>2026-04-17T15:35:01Z</time></trkpt><trkpt lat="45.021782549783715" lon="7.838396458143398"><ele>297.0</ele><time>2026-04-17T15:35:02Z</time></trkpt><trkpt lat="45.02186018572887" lon="7.838550646169649"><ele>299.0</ele><time>2026-04-17T15:35:03Z</time></trkpt><trkpt lat="45.02192087515376" lon="7.838674738590759"><ele>300.33333333333337</ele><time>2026-04-17T15:35:04Z</time></trkpt><trkpt lat="45.021968954419215" lon="7.838794075068949"><ele>301.6666666666667</ele><time>2026-04-17T15:35:05Z</time></trkpt><trkpt lat="45.02201078252464" lon="7.838885529553277"><ele>303.0</ele><time>2026-04-17T15:35:06Z</time></trkpt><trkpt lat="45.022044407502925" lon="7.838979834786623"><ele>304.3333333333333</ele><time>2026-04-17T15:35:07Z</time></trkpt><trkpt lat="45.02206891977896" lon="7.8390723695611575"><ele>305.66666666666663</ele><time>2026-04-17T15:35:08Z</time></trkpt><trkpt lat="45.02210190708281" lon="7.839190663974083"><ele>307.0</ele><time>2026-04-17T15:35:09Z</time></trkpt><trkpt lat="45.02214870548558" lon="7.839323151829549"><ele>307.0</ele><time>2026-04-17T15:35:10Z</time></trkpt><trkpt lat="45.02218927380384" lon="7.839469976007644"><ele>307.0</ele><time>2026-04-17T15:35:11Z</time></trkpt><trkpt lat="45.02222663604477" lon="7.839625925684593"><ele>307.0</ele><time>2026-04-17T15:35:12Z</time></trkpt><trkpt lat="45.02225805353457" lon="7.8397642901737585"><ele>307.0</ele><time>2026-04-17T15:35:13Z</time></trkpt><trkpt lat="45.022280542951144" lon="7.8398847885902265"><ele>307.0</ele><time>2026-04-17T15:35:14Z</time></trkpt><trkpt lat="45.02229591626527" lon="7.839979504981088"><ele>307.0</ele><time>2026-04-17T15:35:15Z</time></trkpt><trkpt lat="45.02230798128232" lon="7.840069512106872"><ele>307.0</ele><time>2026-04-17T15:35:18Z</time></trkpt><trkpt lat="45.022464494452066" lon="7.8400861697604745"><ele>307.0</ele><time>2026-04-17T15:35:27Z</time></trkpt><trkpt lat="45.02254808215202" lon="7.840088489532625"><ele>307.0</ele><time>2026-04-17T15:35:28Z</time></trkpt><trkpt lat="45.02261445743917" lon="7.840118765445385"><ele>307.0</ele><time>2026-04-17T15:35:29Z</time></trkpt><trkpt lat="45.022688799687884" lon="7.840165762123499"><ele>306.2</ele><time>2026-04-17T15:35:30Z</time></trkpt><trkpt lat="45.02277736217134" lon="7.840221474914459"><ele>305.4</ele><time>2026-04-17T15:35:31Z</time></trkpt><trkpt lat="45.022874154893955" lon="7.84025934155653"><ele>304.6</ele><time>2026-04-17T15:35:32Z</time></trkpt><trkpt lat="45.02297123651523" lon="7.840330233796954"><ele>303.8</ele><time>2026-04-17T15:35:33Z</time></trkpt><trkpt lat="45.02308827076767" lon="7.840361271834726"><ele>303.0</ele><time>2026-04-17T15:35:34Z</time></trkpt><trkpt lat="45.0231763102989" lon="7.840363216890485"><ele>303.0</ele><time>2026-04-17T15:35:35Z</time></trkpt><trkpt lat="45.02326637639309" lon="7.840403036896438"><ele>303.0</ele><time>2026-04-17T15:35:36Z</time></trkpt><trkpt lat="45.023358529536296" lon="7.840405609355363"><ele>303.0</ele><time>2026-04-17T15:35:37Z</time></trkpt><trkpt lat="45.02345311654102" lon="7.840448958919601"><ele>303.0</ele><time>2026-04-17T15:35:37.999Z</time></trkpt><trkpt lat="45.02355094564592" lon="7.8404793604710346"><ele>303.0</ele><time>2026-04-17T15:35:38.999Z</time></trkpt><trkpt lat="45.023634951149376" lon="7.840529977515729"><ele>305.4</ele><time>2026-04-17T15:35:39.999Z</time></trkpt><trkpt lat="45.02371146009924" lon="7.8405784534214105"><ele>307.8</ele><time>2026-04-17T15:35:40.999Z</time></trkpt><trkpt lat="45.02379368303715" lon="7.840616671509015"><ele>310.2</ele><time>2026-04-17T15:35:41.999Z</time></trkpt><trkpt lat="45.02386356917615" lon="7.840661062407642"><ele>312.6</ele><time>2026-04-17T15:35:42.999Z</time></trkpt><trkpt lat="45.02396437685797" lon="7.840746512069956"><ele>315.0</ele><time>2026-04-17T15:35:44.999Z</time></trkpt><trkpt lat="45.024042311522635" lon="7.840825635741277"><ele>315.5</ele><time>2026-04-17T15:35:46.999Z</time></trkpt><trkpt lat="45.024147024262156" lon="7.840864324043091"><ele>316.0</ele><time>2026-04-17T15:35:49.999Z</time></trkpt><trkpt lat="45.02420095175834" lon="7.840806896204231"><ele>316.5</ele><time>2026-04-17T15:35:50.999Z</time></trkpt><trkpt lat="45.02425127830636" lon="7.84069172721072"><ele>317.0</ele><time>2026-04-17T15:35:51.999Z</time></trkpt><trkpt lat="45.024308030618506" lon="7.840565549243046"><ele>317.5</ele><time>2026-04-17T15:35:53.999Z</time></trkpt><trkpt lat="45.02434099597359" lon="7.840481848798808"><ele>318.0</ele><time>2026-04-17T15:35:54.999Z</time></trkpt><trkpt lat="45.024386233386736" lon="7.840385391430341"><ele>318.0</ele><time>2026-04-17T15:35:55.999Z</time></trkpt><trkpt lat="45.024439622218665" lon="7.8402823902905885"><ele>318.0</ele><time>2026-04-17T15:35:56.999Z</time></trkpt><trkpt lat="45.024491182326365" lon="7.840171866862396"><ele>318.0</ele><time>2026-04-17T15:35:57.999Z</time></trkpt><trkpt lat="45.02455099591243" lon="7.840070934668492"><ele>318.0</ele><time>2026-04-17T15:35:58.999Z</time></trkpt><trkpt lat="45.02459609720906" lon="7.8399893840399395"><ele>318.0</ele><time>2026-04-17T15:35:59.999Z</time></trkpt><trkpt lat="45.02467954985318" lon="7.839914328501469"><ele>318.0</ele><time>2026-04-17T15:36:01.999Z</time></trkpt><trkpt lat="45.02474930845359" lon="7.83991759265207"><ele>318.0</ele><time>2026-04-17T15:36:03.999Z</time></trkpt><trkpt lat="45.0248199911506" lon="7.839900007059908"><ele>318.0</ele><time>2026-04-17T15:36:05.999Z</time></trkpt><trkpt lat="45.024919331649976" lon="7.839930277933583"><ele>318.0</ele><time>2026-04-17T15:36:07.999Z</time></trkpt><trkpt lat="45.02502335214843" lon="7.839942487324568"><ele>318.0</ele><time>2026-04-17T15:36:09.999Z</time></trkpt><trkpt lat="45.025140141824345" lon="7.839940417999252"><ele>318.0</ele><time>2026-04-17T15:36:11.999Z</time></trkpt><trkpt lat="45.02525462964903" lon="7.83992981472551"><ele>317.8</ele><time>2026-04-17T15:36:13.999Z</time></trkpt><trkpt lat="45.02534818550434" lon="7.839961951810604"><ele>317.6</ele><time>2026-04-17T15:36:15.999Z</time></trkpt><trkpt lat="45.02544805682219" lon="7.83998282463642"><ele>317.4</ele><time>2026-04-17T15:36:17.999Z</time></trkpt><trkpt lat="45.02550910288227" lon="7.840005664914002"><ele>317.2</ele><time>2026-04-17T15:36:18.999Z</time></trkpt><trkpt lat="45.025594820095236" lon="7.840042811311229"><ele>317.0</ele><time>2026-04-17T15:36:20.999Z</time></trkpt><trkpt lat="45.02568910761434" lon="7.840132056052551"><ele>316.2</ele><time>2026-04-17T15:36:22.999Z</time></trkpt><trkpt lat="45.025784601593465" lon="7.840194183663241"><ele>315.4</ele><time>2026-04-17T15:36:24.999Z</time></trkpt><trkpt lat="45.02589293815133" lon="7.840289030202932"><ele>314.6</ele><time>2026-04-17T15:36:26.999Z</time></trkpt><trkpt lat="45.02597626128176" lon="7.840377790358095"><ele>313.8</ele><time>2026-04-17T15:36:28.999Z</time></trkpt><trkpt lat="45.026061424906324" lon="7.840467588121436"><ele>313.0</ele><time>2026-04-17T15:36:30.999Z</time></trkpt><trkpt lat="45.02617215308067" lon="7.840540892379644"><ele>313.0</ele><time>2026-04-17T15:36:32.999Z</time></trkpt><trkpt lat="45.02623831463248" lon="7.840578697891863"><ele>313.0</ele><time>2026-04-17T15:36:33.999Z</time></trkpt><trkpt lat="45.02630466081679" lon="7.840582797191319"><ele>313.0</ele><time>2026-04-17T15:36:34.999Z</time></trkpt><trkpt lat="45.02640168848464" lon="7.840599927402251"><ele>313.0</ele><time>2026-04-17T15:36:36.999Z</time></trkpt><trkpt lat="45.0264905666572" lon="7.840526601153315"><ele>313.0</ele><time>2026-04-17T15:36:38.999Z</time></trkpt><trkpt lat="45.026569633020635" lon="7.840427176170534"><ele>313.0</ele><time>2026-04-17T15:36:40.999Z</time></trkpt><trkpt lat="45.026630864075685" lon="7.840296229797919"><ele>314.6</ele><time>2026-04-17T15:36:42.999Z</time></trkpt><trkpt lat="45.026658200620915" lon="7.840204613500414"><ele>316.20000000000005</ele><time>2026-04-17T15:36:43.999Z</time></trkpt><trkpt lat="45.026702457659006" lon="7.840012126650945"><ele>317.8</ele><time>2026-04-17T15:36:45.999Z</time></trkpt><trkpt lat="45.026726149277266" lon="7.83989571104186"><ele>319.40000000000003</ele><time>2026-04-17T15:36:46.999Z</time></trkpt><trkpt lat="45.026739370493225" lon="7.839765636464816"><ele>321.0</ele><time>2026-04-17T15:36:47.999Z</time></trkpt><trkpt lat="45.02677033696833" lon="7.839620247665726"><ele>321.5</ele><time>2026-04-17T15:36:48.999Z</time></trkpt><trkpt lat="45.02680185908617" lon="7.839504177217426"><ele>322.0</ele><time>2026-04-17T15:36:50Z</time></trkpt><trkpt lat="45.02683252192616" lon="7.839402556062019"><ele>322.5</ele><time>2026-04-17T15:36:51Z</time></trkpt><trkpt lat="45.02686587003947" lon="7.839311727607039"><ele>323.0</ele><time>2026-04-17T15:36:52Z</time></trkpt><trkpt lat="45.02691074042437" lon="7.839245442979173"><ele>323.5</ele><time>2026-04-17T15:36:53Z</time></trkpt><trkpt lat="45.02694138964471" lon="7.8391601447429915"><ele>324.0</ele><time>2026-04-17T15:36:55Z</time></trkpt><trkpt lat="45.02698479728066" lon="7.8390587300863945"><ele>324.5</ele><time>2026-04-17T15:36:58Z</time></trkpt><trkpt lat="45.02689894759375" lon="7.838908729055481"><ele>325.0</ele><time>2026-04-17T15:37:00Z</time></trkpt><trkpt lat="45.02684387140794" lon="7.838853613395486"><ele>325.5</ele><time>2026-04-17T15:37:01Z</time></trkpt><trkpt lat="45.026785914664316" lon="7.838794808277692"><ele>326.0</ele><time>2026-04-17T15:37:02Z</time></trkpt><trkpt lat="45.02673196864864" lon="7.838739504445726"><ele>326.5</ele><time>2026-04-17T15:37:03Z</time></trkpt><trkpt lat="45.026678707624754" lon="7.8386813379034415"><ele>327.0</ele><time>2026-04-17T15:37:04Z</time></trkpt><trkpt lat="45.026575763846914" lon="7.838560873845853"><ele>325.8</ele><time>2026-04-17T15:37:06Z</time></trkpt><trkpt lat="45.026527399606785" lon="7.838496775768293"><ele>324.6</ele><time>2026-04-17T15:37:07Z</time></trkpt><trkpt lat="45.02646762876065" lon="7.838413368524843"><ele>323.40000000000003</ele><time>2026-04-17T15:37:08Z</time></trkpt><trkpt lat="45.026385669968946" lon="7.838290511892012"><ele>322.20000000000005</ele><time>2026-04-17T15:37:10Z</time></trkpt><trkpt lat="45.02634418598638" lon="7.838215108552767"><ele>321.0</ele><time>2026-04-17T15:37:11Z</time></trkpt><trkpt lat="45.02629352143408" lon="7.838072597769693"><ele>320.40000000000003</ele><time>2026-04-17T15:37:13Z</time></trkpt><trkpt lat="45.026275938044094" lon="7.837915284283856"><ele>319.8</ele><time>2026-04-17T15:37:15Z</time></trkpt><trkpt lat="45.02628352817614" lon="7.837729255368091"><ele>319.20000000000005</ele><time>2026-04-17T15:37:17Z</time></trkpt><trkpt lat="45.026289819705354" lon="7.837617079031619"><ele>318.6</ele><time>2026-04-17T15:37:18Z</time></trkpt><trkpt lat="45.02629327684783" lon="7.83749620035187"><ele>318.0</ele><time>2026-04-17T15:37:19Z</time></trkpt><trkpt lat="45.02629094749047" lon="7.8374041569985655"><ele>317.0</ele><time>2026-04-17T15:37:20Z</time></trkpt><trkpt lat="45.026281166342415" lon="7.83731420724802"><ele>316.0</ele><time>2026-04-17T15:37:21Z</time></trkpt><trkpt lat="45.02624107833303" lon="7.83714434772801"><ele>315.0</ele><time>2026-04-17T15:37:23Z</time></trkpt><trkpt lat="45.026148552888884" lon="7.836969288189634"><ele>314.0</ele><time>2026-04-17T15:37:25Z</time></trkpt><trkpt lat="45.026082933817136" lon="7.83689052003533"><ele>313.0</ele><time>2026-04-17T15:37:26Z</time></trkpt><trkpt lat="45.02600906556889" lon="7.836820441813138"><ele>312.3333333333333</ele><time>2026-04-17T15:37:27Z</time></trkpt><trkpt lat="45.02594469263443" lon="7.836766816274509"><ele>311.66666666666663</ele><time>2026-04-17T15:37:28Z</time></trkpt><trkpt lat="45.02586462262008" lon="7.836704279766107"><ele>311.0</ele><time>2026-04-17T15:37:29Z</time></trkpt><trkpt lat="45.025790642949254" lon="7.836649340380962"><ele>310.3333333333333</ele><time>2026-04-17T15:37:30Z</time></trkpt><trkpt lat="45.02571612574391" lon="7.836595796936063"><ele>309.6666666666667</ele><time>2026-04-17T15:37:31Z</time></trkpt><trkpt lat="45.025625260362986" lon="7.836541860906921"><ele>309.0</ele><time>2026-04-17T15:37:32Z</time></trkpt><trkpt lat="45.02553165840362" lon="7.83646755422088"><ele>308.0</ele><time>2026-04-17T15:37:33Z</time></trkpt><trkpt lat="45.025459805015245" lon="7.836431426691734"><ele>307.0</ele><time>2026-04-17T15:37:34Z</time></trkpt><trkpt lat="45.02535858816645" lon="7.836398930281383"><ele>306.0</ele><time>2026-04-17T15:37:35Z</time></trkpt><trkpt lat="45.02523059040718" lon="7.836400102791945"><ele>305.0</ele><time>2026-04-17T15:37:37Z</time></trkpt><trkpt lat="45.02512192062594" lon="7.8364004296990615"><ele>304.0</ele><time>2026-04-17T15:37:38.999Z</time></trkpt><trkpt lat="45.02503015348401" lon="7.836419446988724"><ele>304.0</ele><time>2026-04-17T15:37:40.999Z</time></trkpt><trkpt lat="45.024952019764754" lon="7.836384214601166"><ele>304.0</ele><time>2026-04-17T15:37:44.999Z</time></trkpt><trkpt lat="45.0250567116328" lon="7.836375847445616"><ele>304.0</ele><time>2026-04-17T15:37:50.999Z</time></trkpt><trkpt lat="45.02520553234994" lon="7.836260529740713"><ele>304.0</ele><time>2026-04-17T15:37:51.999Z</time></trkpt><trkpt lat="45.02536454486877" lon="7.8362422141620796"><ele>304.0</ele><time>2026-04-17T15:37:53.999Z</time></trkpt><trkpt lat="45.02547561177583" lon="7.836181987593018"><ele>304.0</ele><time>2026-04-17T15:37:54.999Z</time></trkpt><trkpt lat="45.025589474342745" lon="7.836122180311746"><ele>304.0</ele><time>2026-04-17T15:37:55.999Z</time></trkpt><trkpt lat="45.02570299367947" lon="7.836066534222168"><ele>304.0</ele><time>2026-04-17T15:37:56.999Z</time></trkpt><trkpt lat="45.025820761442844" lon="7.836008602364219"><ele>304.0</ele><time>2026-04-17T15:37:57.999Z</time></trkpt><trkpt lat="45.02595033377319" lon="7.835949590410436"><ele>304.0</ele><time>2026-04-17T15:37:58.999Z</time></trkpt><trkpt lat="45.02607014321621" lon="7.835894731823753"><ele>304.0</ele><time>2026-04-17T15:37:59.999Z</time></trkpt><trkpt lat="45.02616614565914" lon="7.8358431499054815"><ele>304.0</ele><time>2026-04-17T15:38:00.999Z</time></trkpt><trkpt lat="45.026250270397526" lon="7.835799705705501"><ele>304.0</ele><time>2026-04-17T15:38:01.999Z</time></trkpt><trkpt lat="45.02635555437775" lon="7.835752315507318"><ele>304.0</ele><time>2026-04-17T15:38:02.999Z</time></trkpt><trkpt lat="45.02647263187709" lon="7.835695588724626"><ele>304.0</ele><time>2026-04-17T15:38:03.999Z</time></trkpt><trkpt lat="45.026595874125185" lon="7.835638488280799"><ele>304.0</ele><time>2026-04-17T15:38:04.999Z</time></trkpt><trkpt lat="45.026728045715345" lon="7.835579452697681"><ele>304.75</ele><time>2026-04-17T15:38:05.999Z</time></trkpt><trkpt lat="45.0268605413289" lon="7.8355151472630755"><ele>305.5</ele><time>2026-04-17T15:38:06.999Z</time></trkpt><trkpt lat="45.0270010727423" lon="7.835447594929359"><ele>306.25</ele><time>2026-04-17T15:38:07.999Z</time></trkpt><trkpt lat="45.02713871527901" lon="7.835376300774388"><ele>307.0</ele><time>2026-04-17T15:38:08.999Z</time></trkpt><trkpt lat="45.02728280967708" lon="7.835307971681022"><ele>307.0</ele><time>2026-04-17T15:38:09.999Z</time></trkpt><trkpt lat="45.02741202557886" lon="7.83518469971298"><ele>307.0</ele><time>2026-04-17T15:38:10.999Z</time></trkpt><trkpt lat="45.027551181898446" lon="7.835047854875564"><ele>307.0</ele><time>2026-04-17T15:38:11.999Z</time></trkpt><trkpt lat="45.02767571813102" lon="7.834883989055301"><ele>307.0</ele><time>2026-04-17T15:38:12.999Z</time></trkpt><trkpt lat="45.02778293106908" lon="7.834687498650054"><ele>307.0</ele><time>2026-04-17T15:38:13.999Z</time></trkpt><trkpt lat="45.027885319106296" lon="7.834476821148368"><ele>307.0</ele><time>2026-04-17T15:38:14.999Z</time></trkpt><trkpt lat="45.028001483978905" lon="7.834256470127937"><ele>306.0</ele><time>2026-04-17T15:38:15.999Z</time></trkpt><trkpt lat="45.02810825185708" lon="7.83402804775033"><ele>305.0</ele><time>2026-04-17T15:38:16.999Z</time></trkpt><trkpt lat="45.028224136634385" lon="7.833823341021513"><ele>304.0</ele><time>2026-04-17T15:38:17.999Z</time></trkpt><trkpt lat="45.02833050103549" lon="7.833628210268679"><ele>304.66666666666663</ele><time>2026-04-17T15:38:18.999Z</time></trkpt><trkpt lat="45.028428574381124" lon="7.833466363601422"><ele>305.3333333333333</ele><time>2026-04-17T15:38:19.999Z</time></trkpt><trkpt lat="45.02854324693837" lon="7.833313214736159"><ele>306.0</ele><time>2026-04-17T15:38:20.999Z</time></trkpt><trkpt lat="45.02863273471357" lon="7.833105021044377"><ele>306.0</ele><time>2026-04-17T15:38:21.999Z</time></trkpt><trkpt lat="45.028730786827666" lon="7.832910677134054"><ele>306.0</ele><time>2026-04-17T15:38:22.999Z</time></trkpt><trkpt lat="45.02885049455706" lon="7.832732318520013"><ele>306.0</ele><time>2026-04-17T15:38:23.999Z</time></trkpt><trkpt lat="45.02897921334683" lon="7.832588536197336"><ele>304.6666666666667</ele><time>2026-04-17T15:38:24.999Z</time></trkpt><trkpt lat="45.029117267080366" lon="7.832474353414"><ele>303.33333333333337</ele><time>2026-04-17T15:38:25.999Z</time></trkpt><trkpt lat="45.02925884666257" lon="7.832367258462321"><ele>302.0</ele><time>2026-04-17T15:38:26.999Z</time></trkpt><trkpt lat="45.02939881002811" lon="7.832227446279889"><ele>303.33333333333337</ele><time>2026-04-17T15:38:27.999Z</time></trkpt><trkpt lat="45.029529002345846" lon="7.8320525792885105"><ele>304.6666666666667</ele><time>2026-04-17T15:38:28.999Z</time></trkpt><trkpt lat="45.029664508191914" lon="7.831885766541942"><ele>306.0</ele><time>2026-04-17T15:38:29.999Z</time></trkpt><trkpt lat="45.02979874117187" lon="7.831715435269333"><ele>306.0</ele><time>2026-04-17T15:38:30.999Z</time></trkpt><trkpt lat="45.02993706229856" lon="7.831549560775844"><ele>306.0</ele><time>2026-04-17T15:38:31.999Z</time></trkpt><trkpt lat="45.03007477898612" lon="7.831401470885624"><ele>306.0</ele><time>2026-04-17T15:38:32.999Z</time></trkpt><trkpt lat="45.03020362861757" lon="7.831271084933015"><ele>306.25</ele><time>2026-04-17T15:38:33.999Z</time></trkpt><trkpt lat="45.030321182797074" lon="7.831159680863918"><ele>306.5</ele><time>2026-04-17T15:38:34.999Z</time></trkpt><trkpt lat="45.0304405773339" lon="7.831082614798588"><ele>306.75</ele><time>2026-04-17T15:38:35.999Z</time></trkpt><trkpt lat="45.03057556442561" lon="7.830994747923177"><ele>307.0</ele><time>2026-04-17T15:38:36.999Z</time></trkpt><trkpt lat="45.0307185353564" lon="7.8309369848652715"><ele>308.66666666666663</ele><time>2026-04-17T15:38:37.999Z</time></trkpt><trkpt lat="45.03087036803705" lon="7.8309004828310265"><ele>310.3333333333333</ele><time>2026-04-17T15:38:38.999Z</time></trkpt><trkpt lat="45.03102693759235" lon="7.830835697681863"><ele>312.0</ele><time>2026-04-17T15:38:39.999Z</time></trkpt><trkpt lat="45.03118115417863" lon="7.830776702312428"><ele>312.0</ele><time>2026-04-17T15:38:40.999Z</time></trkpt><trkpt lat="45.03133244432269" lon="7.830701198276255"><ele>312.0</ele><time>2026-04-17T15:38:41.999Z</time></trkpt><trkpt lat="45.03146772491456" lon="7.830633145342901"><ele>312.0</ele><time>2026-04-17T15:38:42.999Z</time></trkpt><trkpt lat="45.03161974350851" lon="7.830585870323416"><ele>314.0</ele><time>2026-04-17T15:38:43.999Z</time></trkpt><trkpt lat="45.03177580918272" lon="7.830536337430522"><ele>316.0</ele><time>2026-04-17T15:38:44.999Z</time></trkpt><trkpt lat="45.031944323587695" lon="7.830494498050774"><ele>318.0</ele><time>2026-04-17T15:38:45.999Z</time></trkpt><trkpt lat="45.03211998837122" lon="7.830447154768818"><ele>318.0</ele><time>2026-04-17T15:38:46.999Z</time></trkpt><trkpt lat="45.03229889143709" lon="7.830394620009812"><ele>318.0</ele><time>2026-04-17T15:38:47.999Z</time></trkpt><trkpt lat="45.03248241921714" lon="7.830346082560177"><ele>318.0</ele><time>2026-04-17T15:38:48.999Z</time></trkpt><trkpt lat="45.032675430533466" lon="7.8303073878306275"><ele>320.0</ele><time>2026-04-17T15:38:49.999Z</time></trkpt><trkpt lat="45.03286070481178" lon="7.830272684150859"><ele>322.0</ele><time>2026-04-17T15:38:50.999Z</time></trkpt><trkpt lat="45.03301157298401" lon="7.8302028682285325"><ele>324.0</ele><time>2026-04-17T15:38:51.999Z</time></trkpt><trkpt lat="45.03315826066977" lon="7.830160928322577"><ele>322.5</ele><time>2026-04-17T15:38:52.999Z</time></trkpt><trkpt lat="45.0332959120448" lon="7.830118920948124"><ele>321.0</ele><time>2026-04-17T15:38:53.999Z</time></trkpt><trkpt lat="45.03343340966864" lon="7.830085489383064"><ele>319.5</ele><time>2026-04-17T15:38:54.999Z</time></trkpt><trkpt lat="45.03355278433905" lon="7.830051420936003"><ele>318.0</ele><time>2026-04-17T15:38:56Z</time></trkpt><trkpt lat="45.03366634410206" lon="7.830021325224874"><ele>318.0</ele><time>2026-04-17T15:38:57Z</time></trkpt><trkpt lat="45.03376100619312" lon="7.829986910346802"><ele>318.0</ele><time>2026-04-17T15:38:58Z</time></trkpt><trkpt lat="45.03384379820405" lon="7.829972120223512"><ele>318.0</ele><time>2026-04-17T15:38:59Z</time></trkpt><trkpt lat="45.033911963208816" lon="7.82995613194434"><ele>318.0</ele><time>2026-04-17T15:39:00Z</time></trkpt><trkpt lat="45.03401802944429" lon="7.8300065782276125"><ele>318.0</ele><time>2026-04-17T15:39:02Z</time></trkpt><trkpt lat="45.03411842308555" lon="7.830137778259769"><ele>321.25</ele><time>2026-04-17T15:39:04Z</time></trkpt><trkpt lat="45.034184795938" lon="7.830253412296849"><ele>324.5</ele><time>2026-04-17T15:39:05Z</time></trkpt><trkpt lat="45.0342511039388" lon="7.830409727893843"><ele>327.75</ele><time>2026-04-17T15:39:06Z</time></trkpt><trkpt lat="45.034329395398416" lon="7.830570222067193"><ele>331.0</ele><time>2026-04-17T15:39:07Z</time></trkpt><trkpt lat="45.034413684924544" lon="7.830737776297252"><ele>331.0</ele><time>2026-04-17T15:39:08Z</time></trkpt><trkpt lat="45.03448770344635" lon="7.8309250418988965"><ele>331.0</ele><time>2026-04-17T15:39:09Z</time></trkpt><trkpt lat="45.03458462335394" lon="7.831101602560261"><ele>331.0</ele><time>2026-04-17T15:39:10Z</time></trkpt><trkpt lat="45.034653370246644" lon="7.831264929274667"><ele>331.0</ele><time>2026-04-17T15:39:11Z</time></trkpt><trkpt lat="45.034711742490245" lon="7.831415110235565"><ele>332.5</ele><time>2026-04-17T15:39:12Z</time></trkpt><trkpt lat="45.03476240272361" lon="7.831588444234755"><ele>334.0</ele><time>2026-04-17T15:39:13Z</time></trkpt><trkpt lat="45.034811733506096" lon="7.83177736041479"><ele>335.5</ele><time>2026-04-17T15:39:14Z</time></trkpt><trkpt lat="45.034843318460574" lon="7.831962790591129"><ele>337.0</ele><time>2026-04-17T15:39:15Z</time></trkpt><trkpt lat="45.03484850610486" lon="7.832164557817395"><ele>339.66666666666663</ele><time>2026-04-17T15:39:16Z</time></trkpt><trkpt lat="45.03483317862045" lon="7.8323827903451235"><ele>342.3333333333333</ele><time>2026-04-17T15:39:17Z</time></trkpt><trkpt lat="45.034809525927365" lon="7.83260606502042"><ele>345.0</ele><time>2026-04-17T15:39:18Z</time></trkpt><trkpt lat="45.034790279090544" lon="7.83283463969364"><ele>346.25</ele><time>2026-04-17T15:39:19Z</time></trkpt><trkpt lat="45.0347633208977" lon="7.833017469348468"><ele>347.5</ele><time>2026-04-17T15:39:20Z</time></trkpt><trkpt lat="45.0347445217794" lon="7.833179109189924"><ele>348.75</ele><time>2026-04-17T15:39:21Z</time></trkpt><trkpt lat="45.03473966674537" lon="7.833312080891683"><ele>350.0</ele><time>2026-04-17T15:39:22Z</time></trkpt><trkpt lat="45.03475467530836" lon="7.8334635412520415"><ele>349.8</ele><time>2026-04-17T15:39:23Z</time></trkpt><trkpt lat="45.03479477607988" lon="7.833602837151111"><ele>349.6</ele><time>2026-04-17T15:39:24Z</time></trkpt><trkpt lat="45.03485691093236" lon="7.833733399847312"><ele>349.4</ele><time>2026-04-17T15:39:25Z</time></trkpt><trkpt lat="45.03492947534676" lon="7.833819839484593"><ele>349.2</ele><time>2026-04-17T15:39:26Z</time></trkpt><trkpt lat="45.034997841787074" lon="7.833888394086163"><ele>349.0</ele><time>2026-04-17T15:39:27Z</time></trkpt><trkpt lat="45.035059921252085" lon="7.833955316392543"><ele>348.2</ele><time>2026-04-17T15:39:28Z</time></trkpt><trkpt lat="45.035114132717" lon="7.834034365458647"><ele>347.4</ele><time>2026-04-17T15:39:29Z</time></trkpt><trkpt lat="45.0351676264158" lon="7.834123110551514"><ele>346.6</ele><time>2026-04-17T15:39:30Z</time></trkpt><trkpt lat="45.03521539860305" lon="7.834233590338175"><ele>345.8</ele><time>2026-04-17T15:39:31Z</time></trkpt><trkpt lat="45.0352666028956" lon="7.834377551703038"><ele>345.0</ele><time>2026-04-17T15:39:32Z</time></trkpt><trkpt lat="45.03531381301816" lon="7.834550798387174"><ele>342.25</ele><time>2026-04-17T15:39:33Z</time></trkpt><trkpt lat="45.03535542903586" lon="7.834749723801921"><ele>339.5</ele><time>2026-04-17T15:39:34Z</time></trkpt><trkpt lat="45.03538994354389" lon="7.834921194530432"><ele>336.75</ele><time>2026-04-17T15:39:35Z</time></trkpt><trkpt lat="45.03542604622404" lon="7.835078090526518"><ele>334.0</ele><time>2026-04-17T15:39:36Z</time></trkpt><trkpt lat="45.03545792766227" lon="7.8352276933615865"><ele>332.6</ele><time>2026-04-17T15:39:37Z</time></trkpt><trkpt lat="45.03549969625337" lon="7.83536955149466"><ele>331.2</ele><time>2026-04-17T15:39:38Z</time></trkpt><trkpt lat="45.03553682293658" lon="7.8355116290136175"><ele>329.8</ele><time>2026-04-17T15:39:39Z</time></trkpt><trkpt lat="45.03557416988676" lon="7.835652105518638"><ele>328.40000000000003</ele><time>2026-04-17T15:39:40Z</time></trkpt><trkpt lat="45.035617399192766" lon="7.835795738110268"><ele>327.0</ele><time>2026-04-17T15:39:41Z</time></trkpt><trkpt lat="45.03566541162879" lon="7.83595691736608"><ele>326.0</ele><time>2026-04-17T15:39:42Z</time></trkpt><trkpt lat="45.03571393088156" lon="7.836139214930344"><ele>325.0</ele><time>2026-04-17T15:39:43Z</time></trkpt><trkpt lat="45.03575662553761" lon="7.836307141922575"><ele>324.0</ele><time>2026-04-17T15:39:44Z</time></trkpt><trkpt lat="45.03579648624365" lon="7.836458725720345"><ele>323.0</ele><time>2026-04-17T15:39:45Z</time></trkpt><trkpt lat="45.03583346651785" lon="7.836596796056015"><ele>325.25</ele><time>2026-04-17T15:39:46Z</time></trkpt><trkpt lat="45.03587814185852" lon="7.836738580750342"><ele>327.5</ele><time>2026-04-17T15:39:47Z</time></trkpt><trkpt lat="45.03592957517271" lon="7.83689174032239"><ele>329.75</ele><time>2026-04-17T15:39:48Z</time></trkpt><trkpt lat="45.03595156289845" lon="7.837079753161113"><ele>332.0</ele><time>2026-04-17T15:39:49Z</time></trkpt><trkpt lat="45.035993914438876" lon="7.837277787357914"><ele>332.0</ele><time>2026-04-17T15:39:50Z</time></trkpt><trkpt lat="45.036007783003875" lon="7.837484834302773"><ele>332.0</ele><time>2026-04-17T15:39:51Z</time></trkpt><trkpt lat="45.03601594624224" lon="7.837695840358271"><ele>332.0</ele><time>2026-04-17T15:39:52Z</time></trkpt><trkpt lat="45.036023358446634" lon="7.837897010839987"><ele>332.0</ele><time>2026-04-17T15:39:53Z</time></trkpt><trkpt lat="45.036020198733205" lon="7.83808031398379"><ele>332.25</ele><time>2026-04-17T15:39:54Z</time></trkpt><trkpt lat="45.03601968722298" lon="7.838270200852414"><ele>332.5</ele><time>2026-04-17T15:39:55Z</time></trkpt><trkpt lat="45.03600181545797" lon="7.838438297179343"><ele>332.75</ele><time>2026-04-17T15:39:56Z</time></trkpt><trkpt lat="45.036009157764475" lon="7.838578336606748"><ele>333.0</ele><time>2026-04-17T15:39:57Z</time></trkpt><trkpt lat="45.03603359412504" lon="7.838714042941591"><ele>333.2</ele><time>2026-04-17T15:39:58Z</time></trkpt><trkpt lat="45.03606624694641" lon="7.838864117909062"><ele>333.4</ele><time>2026-04-17T15:39:59Z</time></trkpt><trkpt lat="45.03609790636973" lon="7.839021767309272"><ele>333.59999999999997</ele><time>2026-04-17T15:40:00Z</time></trkpt><trkpt lat="45.03611379402644" lon="7.839174691808127"><ele>333.79999999999995</ele><time>2026-04-17T15:40:01Z</time></trkpt><trkpt lat="45.03613600786465" lon="7.839317092246386"><ele>334.0</ele><time>2026-04-17T15:40:02Z</time></trkpt><trkpt lat="45.036156416406556" lon="7.839474619695867"><ele>334.0</ele><time>2026-04-17T15:40:03Z</time></trkpt><trkpt lat="45.036182789045576" lon="7.839624009333161"><ele>334.0</ele><time>2026-04-17T15:40:04Z</time></trkpt><trkpt lat="45.03621280656505" lon="7.839771013112016"><ele>334.0</ele><time>2026-04-17T15:40:05Z</time></trkpt><trkpt lat="45.036272504328444" lon="7.8399205728469115"><ele>334.0</ele><time>2026-04-17T15:40:06Z</time></trkpt><trkpt lat="45.03633541365127" lon="7.84007857878943"><ele>332.75</ele><time>2026-04-17T15:40:06.999Z</time></trkpt><trkpt lat="45.036389750857246" lon="7.840236129179744"><ele>331.5</ele><time>2026-04-17T15:40:07.999Z</time></trkpt><trkpt lat="45.03642980058407" lon="7.840392645951386"><ele>330.25</ele><time>2026-04-17T15:40:08.999Z</time></trkpt><trkpt lat="45.03647991736463" lon="7.840537871043372"><ele>329.0</ele><time>2026-04-17T15:40:09.999Z</time></trkpt><trkpt lat="45.03651654020053" lon="7.840673123932596"><ele>329.0</ele><time>2026-04-17T15:40:10.999Z</time></trkpt><trkpt lat="45.03655116973748" lon="7.840798916174482"><ele>329.0</ele><time>2026-04-17T15:40:11.999Z</time></trkpt><trkpt lat="45.03658142828213" lon="7.840919958844207"><ele>329.0</ele><time>2026-04-17T15:40:12.999Z</time></trkpt><trkpt lat="45.03662739907044" lon="7.841029976034844"><ele>329.0</ele><time>2026-04-17T15:40:13.999Z</time></trkpt><trkpt lat="45.03667193089591" lon="7.841143665571007"><ele>329.0</ele><time>2026-04-17T15:40:14.999Z</time></trkpt><trkpt lat="45.03672124480742" lon="7.841270163981887"><ele>325.59999999999997</ele><time>2026-04-17T15:40:15.999Z</time></trkpt><trkpt lat="45.0367806047781" lon="7.841388687641924"><ele>322.2</ele><time>2026-04-17T15:40:16.999Z</time></trkpt><trkpt lat="45.036836367209496" lon="7.841511252459627"><ele>318.79999999999995</ele><time>2026-04-17T15:40:17.999Z</time></trkpt><trkpt lat="45.036899337523984" lon="7.8416083811015955"><ele>315.4</ele><time>2026-04-17T15:40:18.999Z</time></trkpt><trkpt lat="45.03697722153403" lon="7.8416890865999695"><ele>312.0</ele><time>2026-04-17T15:40:19.999Z</time></trkpt><trkpt lat="45.03704934039463" lon="7.841789870907354"><ele>310.2</ele><time>2026-04-17T15:40:20.999Z</time></trkpt><trkpt lat="45.037114150830604" lon="7.841915293451079"><ele>308.4</ele><time>2026-04-17T15:40:21.999Z</time></trkpt><trkpt lat="45.037167156944854" lon="7.842041723342957"><ele>306.6</ele><time>2026-04-17T15:40:22.999Z</time></trkpt><trkpt lat="45.03721576816903" lon="7.842174216118026"><ele>304.8</ele><time>2026-04-17T15:40:23.999Z</time></trkpt><trkpt lat="45.037269569122635" lon="7.842302576294863"><ele>303.0</ele><time>2026-04-17T15:40:24.999Z</time></trkpt><trkpt lat="45.03734071573746" lon="7.8424172394874665"><ele>303.0</ele><time>2026-04-17T15:40:25.999Z</time></trkpt><trkpt lat="45.03742935599804" lon="7.842527033701361"><ele>303.0</ele><time>2026-04-17T15:40:26.999Z</time></trkpt><trkpt lat="45.037540632884664" lon="7.842645007849577"><ele>303.0</ele><time>2026-04-17T15:40:27.999Z</time></trkpt><trkpt lat="45.03766399222442" lon="7.842763770974556"><ele>303.0</ele><time>2026-04-17T15:40:28.999Z</time></trkpt><trkpt lat="45.03779304674719" lon="7.842892650172515"><ele>301.25</ele><time>2026-04-17T15:40:29.999Z</time></trkpt><trkpt lat="45.03792062822318" lon="7.843029587499577"><ele>299.5</ele><time>2026-04-17T15:40:30.999Z</time></trkpt><trkpt lat="45.03801894188783" lon="7.84316022447483"><ele>297.75</ele><time>2026-04-17T15:40:31.999Z</time></trkpt><trkpt lat="45.038134004032855" lon="7.8432985736417695"><ele>296.0</ele><time>2026-04-17T15:40:32.999Z</time></trkpt><trkpt lat="45.03824225992839" lon="7.843436888639034"><ele>294.75</ele><time>2026-04-17T15:40:33.999Z</time></trkpt><trkpt lat="45.038343787289136" lon="7.843547967780604"><ele>293.5</ele><time>2026-04-17T15:40:34.999Z</time></trkpt><trkpt lat="45.03842583876357" lon="7.843694031118636"><ele>292.25</ele><time>2026-04-17T15:40:35.999Z</time></trkpt><trkpt lat="45.038537091058956" lon="7.8438133143279245"><ele>291.0</ele><time>2026-04-17T15:40:36.999Z</time></trkpt><trkpt lat="45.03864355287803" lon="7.843945751764291"><ele>291.0</ele><time>2026-04-17T15:40:37.999Z</time></trkpt><trkpt lat="45.038752398692516" lon="7.84407793837329"><ele>291.0</ele><time>2026-04-17T15:40:38.999Z</time></trkpt><trkpt lat="45.038858714325556" lon="7.844192760497464"><ele>291.0</ele><time>2026-04-17T15:40:39.999Z</time></trkpt><trkpt lat="45.0389755886891" lon="7.844320293108097"><ele>291.0</ele><time>2026-04-17T15:40:40.999Z</time></trkpt><trkpt lat="45.03908374748349" lon="7.8444338432971605"><ele>292.2</ele><time>2026-04-17T15:40:41.999Z</time></trkpt><trkpt lat="45.03918597235606" lon="7.844538311961175"><ele>293.40000000000003</ele><time>2026-04-17T15:40:42.999Z</time></trkpt><trkpt lat="45.03927577669256" lon="7.84462578104555"><ele>294.6</ele><time>2026-04-17T15:40:43.999Z</time></trkpt><trkpt lat="45.0393593784328" lon="7.844706535580282"><ele>295.8</ele><time>2026-04-17T15:40:44.999Z</time></trkpt><trkpt lat="45.039430684751096" lon="7.844772856486417"><ele>297.0</ele><time>2026-04-17T15:40:45.999Z</time></trkpt><trkpt lat="45.03948401029672" lon="7.8448351269915575"><ele>297.0</ele><time>2026-04-17T15:40:46.999Z</time></trkpt><trkpt lat="45.03955883383359" lon="7.844931604839687"><ele>297.0</ele><time>2026-04-17T15:40:48.999Z</time></trkpt><trkpt lat="45.03966727545481" lon="7.844827962518301"><ele>297.0</ele><time>2026-04-17T15:40:52.999Z</time></trkpt><trkpt lat="45.03968867897703" lon="7.844734433749984"><ele>297.0</ele><time>2026-04-17T15:40:53.999Z</time></trkpt><trkpt lat="45.039735642054836" lon="7.8446260401388725"><ele>297.0</ele><time>2026-04-17T15:40:54.999Z</time></trkpt><trkpt lat="45.03978964612483" lon="7.84451725157424"><ele>297.0</ele><time>2026-04-17T15:40:55.999Z</time></trkpt><trkpt lat="45.039830166184665" lon="7.84438652795101"><ele>297.0</ele><time>2026-04-17T15:40:56.999Z</time></trkpt><trkpt lat="45.03989190506352" lon="7.844269682040467"><ele>297.0</ele><time>2026-04-17T15:40:57.999Z</time></trkpt><trkpt lat="45.03995586091532" lon="7.8441303504131"><ele>297.0</ele><time>2026-04-17T15:40:58.999Z</time></trkpt><trkpt lat="45.04002934284759" lon="7.843994198111182"><ele>297.0</ele><time>2026-04-17T15:40:59.999Z</time></trkpt><trkpt lat="45.04011052301395" lon="7.8438498954417994"><ele>297.25</ele><time>2026-04-17T15:41:00.999Z</time></trkpt><trkpt lat="45.04019033599101" lon="7.843700138664843"><ele>297.5</ele><time>2026-04-17T15:41:02Z</time></trkpt><trkpt lat="45.040266955068645" lon="7.843564947108534"><ele>297.75</ele><time>2026-04-17T15:41:03Z</time></trkpt><trkpt lat="45.04033876418057" lon="7.8434490366666685"><ele>298.0</ele><time>2026-04-17T15:41:04Z</time></trkpt><trkpt lat="45.040405337363715" lon="7.843352579380328"><ele>298.0</ele><time>2026-04-17T15:41:05Z</time></trkpt><trkpt lat="45.04046862383191" lon="7.843266721453038"><ele>298.0</ele><time>2026-04-17T15:41:06Z</time></trkpt><trkpt lat="45.04052279039274" lon="7.843176072366079"><ele>298.0</ele><time>2026-04-17T15:41:07Z</time></trkpt><trkpt lat="45.040578478542876" lon="7.843049561450121"><ele>298.0</ele><time>2026-04-17T15:41:08Z</time></trkpt><trkpt lat="45.040651120854804" lon="7.842905821255245"><ele>298.0</ele><time>2026-04-17T15:41:09Z</time></trkpt><trkpt lat="45.04072927964815" lon="7.842755296867881"><ele>298.75</ele><time>2026-04-17T15:41:10Z</time></trkpt><trkpt lat="45.040810558670024" lon="7.8425941311111025"><ele>299.5</ele><time>2026-04-17T15:41:11Z</time></trkpt><trkpt lat="45.040892482040505" lon="7.842432974483469"><ele>300.25</ele><time>2026-04-17T15:41:12Z</time></trkpt><trkpt lat="45.040968116562105" lon="7.842284300898006"><ele>301.0</ele><time>2026-04-17T15:41:13Z</time></trkpt><trkpt lat="45.0410376939351" lon="7.84214169276472"><ele>301.0</ele><time>2026-04-17T15:41:14Z</time></trkpt><trkpt lat="45.041120081203104" lon="7.841997536108128"><ele>301.0</ele><time>2026-04-17T15:41:15Z</time></trkpt><trkpt lat="45.04118537989019" lon="7.841867663066491"><ele>301.0</ele><time>2026-04-17T15:41:16Z</time></trkpt><trkpt lat="45.04124626251605" lon="7.84177306526096"><ele>301.0</ele><time>2026-04-17T15:41:17Z</time></trkpt><trkpt lat="45.041289585906085" lon="7.841699635253414"><ele>301.0</ele><time>2026-04-17T15:41:18Z</time></trkpt><trkpt lat="45.04136585574908" lon="7.841577358575834"><ele>301.0</ele><time>2026-04-17T15:41:20Z</time></trkpt><trkpt lat="45.04142966626227" lon="7.841482308743218"><ele>301.0</ele><time>2026-04-17T15:41:22Z</time></trkpt><trkpt lat="45.04148236592257" lon="7.841397764608487"><ele>301.0</ele><time>2026-04-17T15:41:24Z</time></trkpt><trkpt lat="45.041536855801624" lon="7.841301806393036"><ele>301.0</ele><time>2026-04-17T15:41:26Z</time></trkpt><trkpt lat="45.04159115610623" lon="7.841210038951817"><ele>301.0</ele><time>2026-04-17T15:41:28Z</time></trkpt><trkpt lat="45.04165761863874" lon="7.841103628348327"><ele>301.0</ele><time>2026-04-17T15:41:30Z</time></trkpt><trkpt lat="45.04174102171096" lon="7.840989947889369"><ele>300.66666666666663</ele><time>2026-04-17T15:41:32Z</time></trkpt><trkpt lat="45.04178253536916" lon="7.8409195104013"><ele>300.3333333333333</ele><time>2026-04-17T15:41:33Z</time></trkpt><trkpt lat="45.041835357218964" lon="7.84083498128667"><ele>300.0</ele><time>2026-04-17T15:41:34Z</time></trkpt><trkpt lat="45.04188979204577" lon="7.8407455317147114"><ele>299.6666666666667</ele><time>2026-04-17T15:41:35Z</time></trkpt><trkpt lat="45.04194913890657" lon="7.840648812696912"><ele>299.33333333333337</ele><time>2026-04-17T15:41:36Z</time></trkpt><trkpt lat="45.042013116429025" lon="7.840545962484742"><ele>299.0</ele><time>2026-04-17T15:41:37Z</time></trkpt><trkpt lat="45.04208064194356" lon="7.84044178718491"><ele>299.0</ele><time>2026-04-17T15:41:38Z</time></trkpt><trkpt lat="45.04214834179164" lon="7.840333686048242"><ele>299.0</ele><time>2026-04-17T15:41:39Z</time></trkpt><trkpt lat="45.0422170571438" lon="7.840209791110554"><ele>299.0</ele><time>2026-04-17T15:41:40Z</time></trkpt><trkpt lat="45.042291924770794" lon="7.840089288246594"><ele>299.0</ele><time>2026-04-17T15:41:41Z</time></trkpt><trkpt lat="45.04236822270576" lon="7.839957833094771"><ele>299.0</ele><time>2026-04-17T15:41:42Z</time></trkpt><trkpt lat="45.0424505890537" lon="7.839828821334698"><ele>299.75</ele><time>2026-04-17T15:41:43Z</time></trkpt><trkpt lat="45.04253479392217" lon="7.839702573729652"><ele>300.5</ele><time>2026-04-17T15:41:44Z</time></trkpt><trkpt lat="45.042615281424766" lon="7.839572991703832"><ele>301.25</ele><time>2026-04-17T15:41:45Z</time></trkpt><trkpt lat="45.04268651063816" lon="7.839449080209695"><ele>302.0</ele><time>2026-04-17T15:41:46Z</time></trkpt><trkpt lat="45.042759604279944" lon="7.839320995404972"><ele>302.0</ele><time>2026-04-17T15:41:47Z</time></trkpt><trkpt lat="45.042824525774606" lon="7.8391965412042"><ele>302.0</ele><time>2026-04-17T15:41:48Z</time></trkpt><trkpt lat="45.042893745521695" lon="7.839077778157119"><ele>302.0</ele><time>2026-04-17T15:41:49Z</time></trkpt><trkpt lat="45.0429548111431" lon="7.838947237553254"><ele>302.0</ele><time>2026-04-17T15:41:50Z</time></trkpt><trkpt lat="45.043020983665315" lon="7.83882677918743"><ele>302.0</ele><time>2026-04-17T15:41:51Z</time></trkpt><trkpt lat="45.04308794362916" lon="7.838696860500593"><ele>302.0</ele><time>2026-04-17T15:41:52Z</time></trkpt><trkpt lat="45.04316064731685" lon="7.838564492052446"><ele>302.0</ele><time>2026-04-17T15:41:53Z</time></trkpt><trkpt lat="45.043235167110055" lon="7.838429009748774"><ele>302.0</ele><time>2026-04-17T15:41:54Z</time></trkpt><trkpt lat="45.04330600759398" lon="7.838295164163669"><ele>302.0</ele><time>2026-04-17T15:41:55Z</time></trkpt><trkpt lat="45.043371140096546" lon="7.838161944507378"><ele>302.4</ele><time>2026-04-17T15:41:56Z</time></trkpt><trkpt lat="45.04343317635591" lon="7.838032661492946"><ele>302.79999999999995</ele><time>2026-04-17T15:41:57Z</time></trkpt><trkpt lat="45.04349103700665" lon="7.83790857142821"><ele>303.2</ele><time>2026-04-17T15:41:58Z</time></trkpt><trkpt lat="45.04354423134649" lon="7.83778136807911"><ele>303.59999999999997</ele><time>2026-04-17T15:41:59Z</time></trkpt><trkpt lat="45.04361010306212" lon="7.837657228894123"><ele>304.0</ele><time>2026-04-17T15:42:00Z</time></trkpt><trkpt lat="45.04366378471316" lon="7.837519228014159"><ele>304.0</ele><time>2026-04-17T15:42:01Z</time></trkpt><trkpt lat="45.04372241944549" lon="7.837384974356581"><ele>304.0</ele><time>2026-04-17T15:42:02Z</time></trkpt><trkpt lat="45.04378610453096" lon="7.837263818442641"><ele>304.0</ele><time>2026-04-17T15:42:03Z</time></trkpt><trkpt lat="45.04385708793791" lon="7.837142536026803"><ele>304.0</ele><time>2026-04-17T15:42:04Z</time></trkpt><trkpt lat="45.04394063603914" lon="7.837019933568131"><ele>304.0</ele><time>2026-04-17T15:42:05Z</time></trkpt><trkpt lat="45.04402595787032" lon="7.836896059326746"><ele>304.0</ele><time>2026-04-17T15:42:06Z</time></trkpt><trkpt lat="45.044118271443665" lon="7.836771212438381"><ele>304.0</ele><time>2026-04-17T15:42:07Z</time></trkpt><trkpt lat="45.044210945542076" lon="7.836647927271937"><ele>304.0</ele><time>2026-04-17T15:42:08Z</time></trkpt><trkpt lat="45.044301878489556" lon="7.836519674420902"><ele>304.5</ele><time>2026-04-17T15:42:09Z</time></trkpt><trkpt lat="45.044389753724396" lon="7.836382786813401"><ele>305.0</ele><time>2026-04-17T15:42:10Z</time></trkpt><trkpt lat="45.04448481903599" lon="7.836258334543472"><ele>305.5</ele><time>2026-04-17T15:42:11Z</time></trkpt><trkpt lat="45.04457717356315" lon="7.836131140712998"><ele>306.0</ele><time>2026-04-17T15:42:12Z</time></trkpt><trkpt lat="45.044669519282515" lon="7.8360085153105254"><ele>306.0</ele><time>2026-04-17T15:42:12.999Z</time></trkpt><trkpt lat="45.0447591775933" lon="7.8358816168029035"><ele>306.0</ele><time>2026-04-17T15:42:13.999Z</time></trkpt><trkpt lat="45.0448531983644" lon="7.835755247555761"><ele>306.0</ele><time>2026-04-17T15:42:14.999Z</time></trkpt><trkpt lat="45.044949966395905" lon="7.835629533216703"><ele>306.0</ele><time>2026-04-17T15:42:15.999Z</time></trkpt><trkpt lat="45.04505136113351" lon="7.835502960038328"><ele>306.0</ele><time>2026-04-17T15:42:16.999Z</time></trkpt><trkpt lat="45.045151447303596" lon="7.835377795870483"><ele>306.0</ele><time>2026-04-17T15:42:17.999Z</time></trkpt><trkpt lat="45.0452485438839" lon="7.835255563957772"><ele>306.0</ele><time>2026-04-17T15:42:18.999Z</time></trkpt><trkpt lat="45.04535385944546" lon="7.83513350041225"><ele>306.0</ele><time>2026-04-17T15:42:19.999Z</time></trkpt><trkpt lat="45.045453509041515" lon="7.835007485379474"><ele>306.0</ele><time>2026-04-17T15:42:20.999Z</time></trkpt><trkpt lat="45.045547806329495" lon="7.834878310097924"><ele>306.0</ele><time>2026-04-17T15:42:21.999Z</time></trkpt><trkpt lat="45.0456408463546" lon="7.83475680252829"><ele>306.0</ele><time>2026-04-17T15:42:22.999Z</time></trkpt><trkpt lat="45.04573304643616" lon="7.834634620225552"><ele>306.0</ele><time>2026-04-17T15:42:23.999Z</time></trkpt><trkpt lat="45.04581420739482" lon="7.834520268347537"><ele>306.75</ele><time>2026-04-17T15:42:24.999Z</time></trkpt><trkpt lat="45.04589353200827" lon="7.834403096010718"><ele>307.5</ele><time>2026-04-17T15:42:25.999Z</time></trkpt><trkpt lat="45.04599031098174" lon="7.834290014993318"><ele>308.25</ele><time>2026-04-17T15:42:26.999Z</time></trkpt><trkpt lat="45.046096577811426" lon="7.83419740046073"><ele>309.0</ele><time>2026-04-17T15:42:27.999Z</time></trkpt><trkpt lat="45.04620047466896" lon="7.8341057644855585"><ele>309.0</ele><time>2026-04-17T15:42:28.999Z</time></trkpt><trkpt lat="45.04629309485079" lon="7.834019884398384"><ele>309.0</ele><time>2026-04-17T15:42:29.999Z</time></trkpt><trkpt lat="45.046368992359106" lon="7.833933464112889"><ele>309.0</ele><time>2026-04-17T15:42:30.999Z</time></trkpt><trkpt lat="45.04642840464403" lon="7.833828461638741"><ele>309.0</ele><time>2026-04-17T15:42:31.999Z</time></trkpt><trkpt lat="45.04648952531639" lon="7.833722968006007"><ele>309.0</ele><time>2026-04-17T15:42:32.999Z</time></trkpt><trkpt lat="45.046508437046555" lon="7.833588030657172"><ele>309.2</ele><time>2026-04-17T15:42:33.999Z</time></trkpt><trkpt lat="45.0465138738373" lon="7.833450564308184"><ele>309.4</ele><time>2026-04-17T15:42:34.999Z</time></trkpt><trkpt lat="45.046519326533534" lon="7.833295877546078"><ele>309.6</ele><time>2026-04-17T15:42:35.999Z</time></trkpt><trkpt lat="45.04652448901207" lon="7.833145267085673"><ele>309.8</ele><time>2026-04-17T15:42:36.999Z</time></trkpt><trkpt lat="45.04653491289954" lon="7.832992290144748"><ele>310.0</ele><time>2026-04-17T15:42:37.999Z</time></trkpt><trkpt lat="45.04654828472171" lon="7.832881295508258"><ele>310.0</ele><time>2026-04-17T15:42:38.999Z</time></trkpt><trkpt lat="45.04654951464622" lon="7.832774184807491"><ele>310.0</ele><time>2026-04-17T15:42:39.999Z</time></trkpt><trkpt lat="45.04657222008363" lon="7.832668765970887"><ele>310.0</ele><time>2026-04-17T15:42:40.999Z</time></trkpt><trkpt lat="45.04657837984215" lon="7.832573068659291"><ele>310.0</ele><time>2026-04-17T15:42:41.999Z</time></trkpt><trkpt lat="45.046592729049024" lon="7.832454565088507"><ele>310.0</ele><time>2026-04-17T15:42:42.999Z</time></trkpt><trkpt lat="45.04660581674323" lon="7.832327162968975"><ele>310.0</ele><time>2026-04-17T15:42:43.999Z</time></trkpt><trkpt lat="45.0466666738543" lon="7.832201601002637"><ele>311.25</ele><time>2026-04-17T15:42:44.999Z</time></trkpt><trkpt lat="45.04672279085597" lon="7.83206868794068"><ele>312.5</ele><time>2026-04-17T15:42:45.999Z</time></trkpt><trkpt lat="45.046776322789825" lon="7.831919206963686"><ele>313.75</ele><time>2026-04-17T15:42:46.999Z</time></trkpt><trkpt lat="45.04683881336963" lon="7.831768231295518"><ele>315.0</ele><time>2026-04-17T15:42:47.999Z</time></trkpt><trkpt lat="45.04690497577958" lon="7.831609326557266"><ele>315.0</ele><time>2026-04-17T15:42:48.999Z</time></trkpt><trkpt lat="45.04697798594237" lon="7.831454395408628"><ele>315.0</ele><time>2026-04-17T15:42:49.999Z</time></trkpt><trkpt lat="45.04703638851831" lon="7.831294248994073"><ele>315.0</ele><time>2026-04-17T15:42:50.999Z</time></trkpt><trkpt lat="45.04709661204156" lon="7.83114645639899"><ele>315.0</ele><time>2026-04-17T15:42:51.999Z</time></trkpt><trkpt lat="45.047142064125374" lon="7.831014201044967"><ele>314.75</ele><time>2026-04-17T15:42:52.999Z</time></trkpt><trkpt lat="45.04717915489549" lon="7.8308702250509805"><ele>314.5</ele><time>2026-04-17T15:42:53.999Z</time></trkpt><trkpt lat="45.0472069557779" lon="7.830713100366373"><ele>314.25</ele><time>2026-04-17T15:42:54.999Z</time></trkpt><trkpt lat="45.04723411956467" lon="7.830542087184852"><ele>314.0</ele><time>2026-04-17T15:42:55.999Z</time></trkpt><trkpt lat="45.04726526727564" lon="7.830382078223315"><ele>314.0</ele><time>2026-04-17T15:42:56.999Z</time></trkpt><trkpt lat="45.04730213547947" lon="7.830234578225822"><ele>314.0</ele><time>2026-04-17T15:42:57.999Z</time></trkpt><trkpt lat="45.04733053784276" lon="7.830098374433732"><ele>314.0</ele><time>2026-04-17T15:42:58.999Z</time></trkpt><trkpt lat="45.047366012943364" lon="7.829958837317505"><ele>314.0</ele><time>2026-04-17T15:42:59.999Z</time></trkpt><trkpt lat="45.047398899196494" lon="7.829810141447074"><ele>314.0</ele><time>2026-04-17T15:43:00.999Z</time></trkpt><trkpt lat="45.047459284820015" lon="7.829658684676635"><ele>315.0</ele><time>2026-04-17T15:43:01.999Z</time></trkpt><trkpt lat="45.047518437322914" lon="7.829516076590303"><ele>316.0</ele><time>2026-04-17T15:43:02.999Z</time></trkpt><trkpt lat="45.04757557419976" lon="7.829395896989299"><ele>317.0</ele><time>2026-04-17T15:43:03.999Z</time></trkpt><trkpt lat="45.04762478375598" lon="7.829282383529059"><ele>318.0</ele><time>2026-04-17T15:43:04.999Z</time></trkpt><trkpt lat="45.04768929195372" lon="7.8292037623500965"><ele>319.0</ele><time>2026-04-17T15:43:05.999Z</time></trkpt><trkpt lat="45.04772968889978" lon="7.829111415696495"><ele>319.0</ele><time>2026-04-17T15:43:06.999Z</time></trkpt><trkpt lat="45.04777459503519" lon="7.829041536627935"><ele>319.0</ele><time>2026-04-17T15:43:08Z</time></trkpt><trkpt lat="45.047824114875844" lon="7.828976195934853"><ele>319.0</ele><time>2026-04-17T15:43:09Z</time></trkpt><trkpt lat="45.04787557973308" lon="7.828898038801159"><ele>319.0</ele><time>2026-04-17T15:43:10Z</time></trkpt><trkpt lat="45.04793800156171" lon="7.828808490657727"><ele>319.0</ele><time>2026-04-17T15:43:11Z</time></trkpt><trkpt lat="45.04800711556048" lon="7.82872604999598"><ele>319.0</ele><time>2026-04-17T15:43:12Z</time></trkpt><trkpt lat="45.04811089933461" lon="7.828630472467911"><ele>319.0</ele><time>2026-04-17T15:43:13Z</time></trkpt><trkpt lat="45.048220685520405" lon="7.828533321868936"><ele>319.0</ele><time>2026-04-17T15:43:14Z</time></trkpt><trkpt lat="45.048330486329824" lon="7.8284383699931155"><ele>319.0</ele><time>2026-04-17T15:43:15Z</time></trkpt><trkpt lat="45.048435781970575" lon="7.828346737881521"><ele>319.0</ele><time>2026-04-17T15:43:16Z</time></trkpt><trkpt lat="45.04852723583212" lon="7.828259734883549"><ele>319.25</ele><time>2026-04-17T15:43:17Z</time></trkpt><trkpt lat="45.04861326247023" lon="7.8281652015279235"><ele>319.5</ele><time>2026-04-17T15:43:18Z</time></trkpt><trkpt lat="45.048708429924034" lon="7.828047897216475"><ele>319.75</ele><time>2026-04-17T15:43:19Z</time></trkpt><trkpt lat="45.048818477911425" lon="7.827938495743149"><ele>320.0</ele><time>2026-04-17T15:43:20Z</time></trkpt><trkpt lat="45.04893178334732" lon="7.827834904463982"><ele>320.0</ele><time>2026-04-17T15:43:21Z</time></trkpt><trkpt lat="45.0490340867659" lon="7.827744094724623"><ele>320.0</ele><time>2026-04-17T15:43:22Z</time></trkpt><trkpt lat="45.04912877604798" lon="7.827655306293946"><ele>320.0</ele><time>2026-04-17T15:43:23Z</time></trkpt><trkpt lat="45.04921407672074" lon="7.82756106706819"><ele>320.0</ele><time>2026-04-17T15:43:24Z</time></trkpt><trkpt lat="45.04929952072931" lon="7.827479158824736"><ele>320.0</ele><time>2026-04-17T15:43:25Z</time></trkpt><trkpt lat="45.04938708783275" lon="7.8274172491537035"><ele>319.5</ele><time>2026-04-17T15:43:26Z</time></trkpt><trkpt lat="45.04947205239982" lon="7.827356932486737"><ele>319.0</ele><time>2026-04-17T15:43:27Z</time></trkpt><trkpt lat="45.04955567173093" lon="7.8272990603577135"><ele>318.5</ele><time>2026-04-17T15:43:28Z</time></trkpt><trkpt lat="45.049631035240296" lon="7.82724745637115"><ele>318.0</ele><time>2026-04-17T15:43:29Z</time></trkpt><trkpt lat="45.049700686731875" lon="7.827206609964287"><ele>317.5</ele><time>2026-04-17T15:43:30Z</time></trkpt><trkpt lat="45.04977174180269" lon="7.8271671023124885"><ele>317.0</ele><time>2026-04-17T15:43:31Z</time></trkpt><trkpt lat="45.0498333947311" lon="7.827188445894275"><ele>317.0</ele><time>2026-04-17T15:43:32Z</time></trkpt><trkpt lat="45.04995321457926" lon="7.827197868336781"><ele>317.0</ele><time>2026-04-17T15:43:34Z</time></trkpt><trkpt lat="45.050066758247716" lon="7.827200930724313"><ele>317.0</ele><time>2026-04-17T15:43:36Z</time></trkpt><trkpt lat="45.050136801900535" lon="7.827165639688922"><ele>317.0</ele><time>2026-04-17T15:43:38Z</time></trkpt><trkpt lat="45.050234411400154" lon="7.827224795896488"><ele>317.0</ele><time>2026-04-17T15:43:41Z</time></trkpt><trkpt lat="45.05034724167085" lon="7.827326762768743"><ele>318.4</ele><time>2026-04-17T15:43:43Z</time></trkpt><trkpt lat="45.050434392634486" lon="7.827387833534931"><ele>319.79999999999995</ele><time>2026-04-17T15:43:44Z</time></trkpt><trkpt lat="45.0505122437255" lon="7.827445073670877"><ele>321.2</ele><time>2026-04-17T15:43:45Z</time></trkpt><trkpt lat="45.05060830837409" lon="7.827459067868375"><ele>322.59999999999997</ele><time>2026-04-17T15:43:46Z</time></trkpt><trkpt lat="45.05070661620013" lon="7.827434370451179"><ele>324.0</ele><time>2026-04-17T15:43:47Z</time></trkpt><trkpt lat="45.05080540762942" lon="7.827393472773118"><ele>324.6</ele><time>2026-04-17T15:43:48Z</time></trkpt><trkpt lat="45.050900258632915" lon="7.827357996654745"><ele>325.2</ele><time>2026-04-17T15:43:49Z</time></trkpt><trkpt lat="45.050999053513635" lon="7.827323223008702"><ele>325.8</ele><time>2026-04-17T15:43:50Z</time></trkpt><trkpt lat="45.05109942023022" lon="7.8272728971277346"><ele>326.40000000000003</ele><time>2026-04-17T15:43:51Z</time></trkpt><trkpt lat="45.05120154860551" lon="7.827247915758404"><ele>327.0</ele><time>2026-04-17T15:43:52Z</time></trkpt><trkpt lat="45.051298015843514" lon="7.827235608293837"><ele>327.0</ele><time>2026-04-17T15:43:53Z</time></trkpt><trkpt lat="45.05138281931126" lon="7.827224277294391"><ele>327.0</ele><time>2026-04-17T15:43:54Z</time></trkpt><trkpt lat="45.0514706602142" lon="7.8271838109683385"><ele>327.0</ele><time>2026-04-17T15:43:55Z</time></trkpt><trkpt lat="45.05156296447514" lon="7.827116001549002"><ele>327.0</ele><time>2026-04-17T15:43:56Z</time></trkpt><trkpt lat="45.051665391443386" lon="7.827031589023139"><ele>327.0</ele><time>2026-04-17T15:43:57Z</time></trkpt><trkpt lat="45.051785095225746" lon="7.826954802964446"><ele>327.0</ele><time>2026-04-17T15:43:58Z</time></trkpt><trkpt lat="45.051904833356524" lon="7.8268537589649005"><ele>327.0</ele><time>2026-04-17T15:43:59Z</time></trkpt><trkpt lat="45.052024351608" lon="7.82673047768316"><ele>327.0</ele><time>2026-04-17T15:44:00Z</time></trkpt><trkpt lat="45.05213674063607" lon="7.826620836568057"><ele>327.0</ele><time>2026-04-17T15:44:01Z</time></trkpt><trkpt lat="45.0522410736182" lon="7.8265305160472876"><ele>327.0</ele><time>2026-04-17T15:44:02Z</time></trkpt><trkpt lat="45.05231695448491" lon="7.826412770834315"><ele>327.0</ele><time>2026-04-17T15:44:03Z</time></trkpt><trkpt lat="45.05239888944479" lon="7.826321357030962"><ele>327.0</ele><time>2026-04-17T15:44:04Z</time></trkpt><trkpt lat="45.05248498167045" lon="7.826240795188362"><ele>327.0</ele><time>2026-04-17T15:44:05Z</time></trkpt><trkpt lat="45.05257658153588" lon="7.826144818560168"><ele>327.0</ele><time>2026-04-17T15:44:06Z</time></trkpt><trkpt lat="45.052685638298904" lon="7.826078457510788"><ele>327.25</ele><time>2026-04-17T15:44:07Z</time></trkpt><trkpt lat="45.052818268947156" lon="7.826015668830096"><ele>327.5</ele><time>2026-04-17T15:44:08Z</time></trkpt><trkpt lat="45.05296073738413" lon="7.825934915696166"><ele>327.75</ele><time>2026-04-17T15:44:09Z</time></trkpt><trkpt lat="45.053108567677576" lon="7.825875541513448"><ele>328.0</ele><time>2026-04-17T15:44:10Z</time></trkpt><trkpt lat="45.05326132565396" lon="7.825816809331819"><ele>329.0</ele><time>2026-04-17T15:44:11Z</time></trkpt><trkpt lat="45.05341955155542" lon="7.825762118774105"><ele>330.0</ele><time>2026-04-17T15:44:12Z</time></trkpt><trkpt lat="45.053579398331394" lon="7.82569705436629"><ele>331.0</ele><time>2026-04-17T15:44:13Z</time></trkpt><trkpt lat="45.053737861907706" lon="7.825643322801983"><ele>331.0</ele><time>2026-04-17T15:44:14Z</time></trkpt><trkpt lat="45.05389128863064" lon="7.825614548959716"><ele>331.0</ele><time>2026-04-17T15:44:15Z</time></trkpt><trkpt lat="45.05406313034885" lon="7.825603992262117"><ele>331.0</ele><time>2026-04-17T15:44:16Z</time></trkpt><trkpt lat="45.05424653979052" lon="7.825600187687612"><ele>332.66666666666663</ele><time>2026-04-17T15:44:17Z</time></trkpt><trkpt lat="45.054434359680315" lon="7.825593408518809"><ele>334.3333333333333</ele><time>2026-04-17T15:44:18Z</time></trkpt><trkpt lat="45.054626609277115" lon="7.825581749622873"><ele>336.0</ele><time>2026-04-17T15:44:19Z</time></trkpt><trkpt lat="45.05481725883607" lon="7.825565823568401"><ele>337.3333333333333</ele><time>2026-04-17T15:44:20Z</time></trkpt><trkpt lat="45.055011337121265" lon="7.8255454909240045"><ele>338.66666666666663</ele><time>2026-04-17T15:44:21Z</time></trkpt><trkpt lat="45.05520486618137" lon="7.825527549149194"><ele>340.0</ele><time>2026-04-17T15:44:22Z</time></trkpt><trkpt lat="45.05539621049915" lon="7.825512983415992"><ele>340.0</ele><time>2026-04-17T15:44:23Z</time></trkpt><trkpt lat="45.055589627925194" lon="7.825496403764757"><ele>340.0</ele><time>2026-04-17T15:44:24Z</time></trkpt><trkpt lat="45.05578434192996" lon="7.825509891106665"><ele>340.0</ele><time>2026-04-17T15:44:25Z</time></trkpt><trkpt lat="45.05597462938591" lon="7.8255067843650545"><ele>341.66666666666663</ele><time>2026-04-17T15:44:26Z</time></trkpt><trkpt lat="45.05616175803633" lon="7.82551536348206"><ele>343.3333333333333</ele><time>2026-04-17T15:44:27Z</time></trkpt><trkpt lat="45.05634937549047" lon="7.8255061587428125"><ele>345.0</ele><time>2026-04-17T15:44:28Z</time></trkpt><trkpt lat="45.0565340924724" lon="7.825522704507176"><ele>345.6666666666667</ele><time>2026-04-17T15:44:29Z</time></trkpt><trkpt lat="45.05671721384249" lon="7.825514680678676"><ele>346.33333333333337</ele><time>2026-04-17T15:44:30Z</time></trkpt><trkpt lat="45.05689084183023" lon="7.825515010081311"><ele>347.0</ele><time>2026-04-17T15:44:31Z</time></trkpt><trkpt lat="45.05704341562247" lon="7.825458471318131"><ele>347.0</ele><time>2026-04-17T15:44:32Z</time></trkpt><trkpt lat="45.057187146278466" lon="7.825436921068899"><ele>347.0</ele><time>2026-04-17T15:44:33Z</time></trkpt><trkpt lat="45.05734643870972" lon="7.825409556995351"><ele>347.0</ele><time>2026-04-17T15:44:34Z</time></trkpt><trkpt lat="45.05751712895708" lon="7.825377842620003"><ele>348.6666666666667</ele><time>2026-04-17T15:44:35Z</time></trkpt><trkpt lat="45.057684936128844" lon="7.825336709394355"><ele>350.3333333333333</ele><time>2026-04-17T15:44:36Z</time></trkpt><trkpt lat="45.05783167343213" lon="7.8252924350837265"><ele>352.0</ele><time>2026-04-17T15:44:37Z</time></trkpt><trkpt lat="45.05796453971201" lon="7.825242793217688"><ele>352.0</ele><time>2026-04-17T15:44:38Z</time></trkpt><trkpt lat="45.05812069370169" lon="7.825196316559094"><ele>352.0</ele><time>2026-04-17T15:44:38.999Z</time></trkpt><trkpt lat="45.058274855501594" lon="7.825148205665594"><ele>352.0</ele><time>2026-04-17T15:44:39.999Z</time></trkpt><trkpt lat="45.05841035101383" lon="7.825107068983424"><ele>350.5</ele><time>2026-04-17T15:44:40.999Z</time></trkpt><trkpt lat="45.05855172997866" lon="7.825057595387505"><ele>349.0</ele><time>2026-04-17T15:44:41.999Z</time></trkpt><trkpt lat="45.05867849544811" lon="7.825011677535068"><ele>347.5</ele><time>2026-04-17T15:44:42.999Z</time></trkpt><trkpt lat="45.05880577759575" lon="7.824962467231395"><ele>346.0</ele><time>2026-04-17T15:44:43.999Z</time></trkpt><trkpt lat="45.05894524293315" lon="7.824886866076724"><ele>346.0</ele><time>2026-04-17T15:44:44.999Z</time></trkpt><trkpt lat="45.059087414808594" lon="7.824800952996226"><ele>346.0</ele><time>2026-04-17T15:44:45.999Z</time></trkpt><trkpt lat="45.059224594008334" lon="7.82473439527378"><ele>346.0</ele><time>2026-04-17T15:44:46.999Z</time></trkpt><trkpt lat="45.05937528892676" lon="7.824673654656337"><ele>346.25</ele><time>2026-04-17T15:44:47.999Z</time></trkpt><trkpt lat="45.05952666676621" lon="7.824621360890114"><ele>346.5</ele><time>2026-04-17T15:44:48.999Z</time></trkpt><trkpt lat="45.059668830789676" lon="7.824583628168979"><ele>346.75</ele><time>2026-04-17T15:44:49.999Z</time></trkpt><trkpt lat="45.059814871277204" lon="7.824561903262717"><ele>347.0</ele><time>2026-04-17T15:44:50.999Z</time></trkpt><trkpt lat="45.05996586433779" lon="7.824560231974395"><ele>348.33333333333337</ele><time>2026-04-17T15:44:51.999Z</time></trkpt><trkpt lat="45.06012092233526" lon="7.82456385257713"><ele>349.6666666666667</ele><time>2026-04-17T15:44:52.999Z</time></trkpt><trkpt lat="45.06027577163604" lon="7.824577308077153"><ele>351.0</ele><time>2026-04-17T15:44:53.999Z</time></trkpt><trkpt lat="45.06043328917286" lon="7.824593087526025"><ele>351.0</ele><time>2026-04-17T15:44:54.999Z</time></trkpt><trkpt lat="45.0605846551764" lon="7.824622306040082"><ele>351.0</ele><time>2026-04-17T15:44:55.999Z</time></trkpt><trkpt lat="45.060735421592796" lon="7.8246654647340135"><ele>351.0</ele><time>2026-04-17T15:44:56.999Z</time></trkpt><trkpt lat="45.060883416147405" lon="7.824715099690236"><ele>351.0</ele><time>2026-04-17T15:44:57.999Z</time></trkpt><trkpt lat="45.06102693170713" lon="7.824789916256699"><ele>351.0</ele><time>2026-04-17T15:44:58.999Z</time></trkpt><trkpt lat="45.06117139969512" lon="7.824835550046019"><ele>351.0</ele><time>2026-04-17T15:44:59.999Z</time></trkpt><trkpt lat="45.061321930327345" lon="7.824852302525812"><ele>351.0</ele><time>2026-04-17T15:45:00.999Z</time></trkpt><trkpt lat="45.061465922720856" lon="7.82488428379024"><ele>351.0</ele><time>2026-04-17T15:45:01.999Z</time></trkpt><trkpt lat="45.06160323401129" lon="7.824924611037825"><ele>351.0</ele><time>2026-04-17T15:45:02.999Z</time></trkpt><trkpt lat="45.061733619281746" lon="7.824948640369407"><ele>351.0</ele><time>2026-04-17T15:45:03.999Z</time></trkpt><trkpt lat="45.061851386399766" lon="7.824971906078531"><ele>351.5</ele><time>2026-04-17T15:45:04.999Z</time></trkpt><trkpt lat="45.06195279174538" lon="7.825013486655512"><ele>352.0</ele><time>2026-04-17T15:45:05.999Z</time></trkpt><trkpt lat="45.06204384777085" lon="7.825084827280949"><ele>352.5</ele><time>2026-04-17T15:45:06.999Z</time></trkpt><trkpt lat="45.062154049928104" lon="7.825189643386724"><ele>353.0</ele><time>2026-04-17T15:45:07.999Z</time></trkpt><trkpt lat="45.06226415681145" lon="7.825305271824585"><ele>355.0</ele><time>2026-04-17T15:45:08.999Z</time></trkpt><trkpt lat="45.06238450883081" lon="7.825419783128514"><ele>357.0</ele><time>2026-04-17T15:45:09.999Z</time></trkpt><trkpt lat="45.06248478791128" lon="7.825551899976569"><ele>359.0</ele><time>2026-04-17T15:45:10.999Z</time></trkpt><trkpt lat="45.06259038125888" lon="7.825648755330956"><ele>361.0</ele><time>2026-04-17T15:45:11.999Z</time></trkpt><trkpt lat="45.062680323523985" lon="7.825761892549092"><ele>361.25</ele><time>2026-04-17T15:45:12.999Z</time></trkpt><trkpt lat="45.06276545741059" lon="7.8258700298436095"><ele>361.5</ele><time>2026-04-17T15:45:14Z</time></trkpt><trkpt lat="45.06286350626904" lon="7.825955942350903"><ele>361.75</ele><time>2026-04-17T15:45:15Z</time></trkpt><trkpt lat="45.06300978746035" lon="7.82597678379116"><ele>362.0</ele><time>2026-04-17T15:45:16Z</time></trkpt><trkpt lat="45.06315755725848" lon="7.825997793483751"><ele>365.5</ele><time>2026-04-17T15:45:17Z</time></trkpt><trkpt lat="45.06330447027574" lon="7.826042736301699"><ele>369.0</ele><time>2026-04-17T15:45:18Z</time></trkpt><trkpt lat="45.0634264275343" lon="7.826064796581641"><ele>372.5</ele><time>2026-04-17T15:45:19Z</time></trkpt><trkpt lat="45.06352948815763" lon="7.826086753487319"><ele>376.0</ele><time>2026-04-17T15:45:20Z</time></trkpt><trkpt lat="45.06361946872024" lon="7.826106125444623"><ele>376.0</ele><time>2026-04-17T15:45:21Z</time></trkpt><trkpt lat="45.06371784388847" lon="7.826112885223875"><ele>376.0</ele><time>2026-04-17T15:45:22Z</time></trkpt><trkpt lat="45.063817730120384" lon="7.826033934768693"><ele>376.0</ele><time>2026-04-17T15:45:23Z</time></trkpt><trkpt lat="45.063921289329556" lon="7.82600511673182"><ele>376.0</ele><time>2026-04-17T15:45:24Z</time></trkpt><trkpt lat="45.06399172628124" lon="7.825975441380608"><ele>376.0</ele><time>2026-04-17T15:45:25Z</time></trkpt><trkpt lat="45.0640625878504" lon="7.825964522203261"><ele>374.8</ele><time>2026-04-17T15:45:27Z</time></trkpt><trkpt lat="45.06413656271295" lon="7.825956174501684"><ele>373.6</ele><time>2026-04-17T15:45:30Z</time></trkpt><trkpt lat="45.06420671479323" lon="7.82594825821928"><ele>372.4</ele><time>2026-04-17T15:45:31Z</time></trkpt><trkpt lat="45.06427140599963" lon="7.825763832900328"><ele>371.2</ele><time>2026-04-17T15:45:32Z</time></trkpt><trkpt lat="45.064326842459465" lon="7.825688752525735"><ele>370.0</ele><time>2026-04-17T15:45:33Z</time></trkpt><trkpt lat="45.06439706475206" lon="7.825602239384786"><ele>370.0</ele><time>2026-04-17T15:45:34Z</time></trkpt><trkpt lat="45.06443160648956" lon="7.82547910171257"><ele>370.0</ele><time>2026-04-17T15:45:35Z</time></trkpt><trkpt lat="45.064465099903714" lon="7.825369687905677"><ele>370.0</ele><time>2026-04-17T15:45:36Z</time></trkpt><trkpt lat="45.06448449092647" lon="7.825277265780338"><ele>370.0</ele><time>2026-04-17T15:45:37Z</time></trkpt><trkpt lat="45.0645123079203" lon="7.825138637004615"><ele>370.0</ele><time>2026-04-17T15:45:39Z</time></trkpt><trkpt lat="45.06452520410359" lon="7.825040259541833"><ele>370.0</ele><time>2026-04-17T15:45:41Z</time></trkpt><trkpt lat="45.06459339964941" lon="7.825017926050939"><ele>369.5</ele><time>2026-04-17T15:45:42Z</time></trkpt><trkpt lat="45.064652494165564" lon="7.824969301499201"><ele>369.0</ele><time>2026-04-17T15:45:43Z</time></trkpt><trkpt lat="45.06470760955107" lon="7.824915739517347"><ele>368.5</ele><time>2026-04-17T15:45:44Z</time></trkpt><trkpt lat="45.06476358167756" lon="7.8248610691312495"><ele>368.0</ele><time>2026-04-17T15:45:45Z</time></trkpt><trkpt lat="45.0648214701509" lon="7.82481035621299"><ele>367.5</ele><time>2026-04-17T15:45:46Z</time></trkpt><trkpt lat="45.064929614022404" lon="7.8247471938945035"><ele>367.0</ele><time>2026-04-17T15:45:48Z</time></trkpt><trkpt lat="45.064992722062655" lon="7.824725606451212"><ele>368.16666666666663</ele><time>2026-04-17T15:45:49Z</time></trkpt><trkpt lat="45.06507145755613" lon="7.824710313947476"><ele>369.3333333333333</ele><time>2026-04-17T15:45:50Z</time></trkpt><trkpt lat="45.06515498303859" lon="7.824703551781736"><ele>370.5</ele><time>2026-04-17T15:45:51Z</time></trkpt><trkpt lat="45.06523004911922" lon="7.8246938213906505"><ele>371.6666666666667</ele><time>2026-04-17T15:45:52Z</time></trkpt><trkpt lat="45.06530638387023" lon="7.8246704253626165"><ele>372.83333333333337</ele><time>2026-04-17T15:45:53Z</time></trkpt><trkpt lat="45.06538741137177" lon="7.82469366162854"><ele>374.0</ele><time>2026-04-17T15:45:55Z</time></trkpt><trkpt lat="45.06546660845754" lon="7.8246691808241"><ele>374.0</ele><time>2026-04-17T15:45:57Z</time></trkpt><trkpt lat="45.06560610534719" lon="7.824564083488185"><ele>374.0</ele><time>2026-04-17T15:45:59Z</time></trkpt><trkpt lat="45.06568474165208" lon="7.824471401324326"><ele>374.0</ele><time>2026-04-17T15:46:00Z</time></trkpt><trkpt lat="45.065758377051424" lon="7.824377197264594"><ele>374.0</ele><time>2026-04-17T15:46:01Z</time></trkpt><trkpt lat="45.065833899346444" lon="7.824284030269179"><ele>376.6</ele><time>2026-04-17T15:46:02Z</time></trkpt><trkpt lat="45.06588833955091" lon="7.824214760255085"><ele>379.2</ele><time>2026-04-17T15:46:03Z</time></trkpt><trkpt lat="45.066004885347766" lon="7.824133953882971"><ele>381.8</ele><time>2026-04-17T15:46:05Z</time></trkpt><trkpt lat="45.06607712396157" lon="7.824133566615928"><ele>384.40000000000003</ele><time>2026-04-17T15:46:06Z</time></trkpt><trkpt lat="45.06617606510905" lon="7.824119898055691"><ele>387.0</ele><time>2026-04-17T15:46:07Z</time></trkpt><trkpt lat="45.06627681083295" lon="7.824111765252783"><ele>387.0</ele><time>2026-04-17T15:46:08Z</time></trkpt><trkpt lat="45.06638586820525" lon="7.824106488272403"><ele>387.0</ele><time>2026-04-17T15:46:09Z</time></trkpt><trkpt lat="45.06648307797267" lon="7.824102444033842"><ele>387.0</ele><time>2026-04-17T15:46:10Z</time></trkpt><trkpt lat="45.06659237567837" lon="7.824056773833599"><ele>387.0</ele><time>2026-04-17T15:46:12Z</time></trkpt><trkpt lat="45.06666687475529" lon="7.824050223096794"><ele>387.0</ele><time>2026-04-17T15:46:13Z</time></trkpt><trkpt lat="45.066744438156256" lon="7.824039481889916"><ele>389.40000000000003</ele><time>2026-04-17T15:46:14Z</time></trkpt><trkpt lat="45.0667879222128" lon="7.823924191753668"><ele>391.8</ele><time>2026-04-17T15:46:15Z</time></trkpt><trkpt lat="45.06689500544609" lon="7.824092711729639"><ele>394.2</ele><time>2026-04-17T15:46:16Z</time></trkpt><trkpt lat="45.06697988368799" lon="7.824056919102406"><ele>396.6</ele><time>2026-04-17T15:46:17Z</time></trkpt><trkpt lat="45.06707066849621" lon="7.82403989446255"><ele>399.0</ele><time>2026-04-17T15:46:18Z</time></trkpt><trkpt lat="45.0671530708171" lon="7.824024997189477"><ele>399.0</ele><time>2026-04-17T15:46:19Z</time></trkpt><trkpt lat="45.06723952700483" lon="7.824029952606863"><ele>399.0</ele><time>2026-04-17T15:46:20Z</time></trkpt><trkpt lat="45.067314552733656" lon="7.824046801246698"><ele>399.0</ele><time>2026-04-17T15:46:21Z</time></trkpt><trkpt lat="45.067395897204804" lon="7.824040991199298"><ele>399.0</ele><time>2026-04-17T15:46:22Z</time></trkpt><trkpt lat="45.067467671239115" lon="7.82404347362018"><ele>399.0</ele><time>2026-04-17T15:46:23Z</time></trkpt><trkpt lat="45.06754908297943" lon="7.824034142448698"><ele>399.0</ele><time>2026-04-17T15:46:24Z</time></trkpt><trkpt lat="45.06762137053504" lon="7.824009868376656"><ele>400.0</ele><time>2026-04-17T15:46:25Z</time></trkpt><trkpt lat="45.067710268411865" lon="7.8239832087521926"><ele>401.0</ele><time>2026-04-17T15:46:26Z</time></trkpt><trkpt lat="45.0678011684012" lon="7.823945113787265"><ele>402.0</ele><time>2026-04-17T15:46:27Z</time></trkpt><trkpt lat="45.06789537460917" lon="7.823892125007786"><ele>403.0</ele><time>2026-04-17T15:46:28Z</time></trkpt><trkpt lat="45.067974445297835" lon="7.823839531077296"><ele>404.0</ele><time>2026-04-17T15:46:29Z</time></trkpt><trkpt lat="45.068066145840874" lon="7.823797230407234"><ele>403.99999999999994</ele><time>2026-04-17T15:46:30Z</time></trkpt><trkpt lat="45.068154211322636" lon="7.823770698563363"><ele>404.0</ele><time>2026-04-17T15:46:31Z</time></trkpt><trkpt lat="45.068232386908896" lon="7.823742784966396"><ele>404.0</ele><time>2026-04-17T15:46:32Z</time></trkpt><trkpt lat="45.068306148321774" lon="7.823719895376319"><ele>404.0</ele><time>2026-04-17T15:46:33Z</time></trkpt><trkpt lat="45.068383751115356" lon="7.823701544076491"><ele>403.99999999999994</ele><time>2026-04-17T15:46:34Z</time></trkpt><trkpt lat="45.06846104761088" lon="7.8236782577224595"><ele>404.0</ele><time>2026-04-17T15:46:35Z</time></trkpt><trkpt lat="45.06854788470776" lon="7.823650680806276"><ele>404.6</ele><time>2026-04-17T15:46:36Z</time></trkpt><trkpt lat="45.06862602415259" lon="7.823637730449418"><ele>405.2</ele><time>2026-04-17T15:46:36.999Z</time></trkpt><trkpt lat="45.06869018920528" lon="7.82361445814988"><ele>405.8</ele><time>2026-04-17T15:46:37.999Z</time></trkpt><trkpt lat="45.068794987710156" lon="7.823542914351373"><ele>406.40000000000003</ele><time>2026-04-17T15:46:39.999Z</time></trkpt><trkpt lat="45.06889376357121" lon="7.823442915761705"><ele>407.0</ele><time>2026-04-17T15:46:41.999Z</time></trkpt><trkpt lat="45.06895015948282" lon="7.8233619491865385"><ele>407.8333333333333</ele><time>2026-04-17T15:46:43.999Z</time></trkpt><trkpt lat="45.06901719077259" lon="7.823304017284521"><ele>408.66666666666663</ele><time>2026-04-17T15:47:40Z</time></trkpt><trkpt lat="45.06908498943234" lon="7.823280717782767"><ele>409.5</ele><time>2026-04-17T15:47:42Z</time></trkpt><trkpt lat="45.0691524922378" lon="7.8232428706243615"><ele>410.33333333333337</ele><time>2026-04-17T15:47:44Z</time></trkpt><trkpt lat="45.069243802102285" lon="7.823193304465537"><ele>411.1666666666667</ele><time>2026-04-17T15:47:46Z</time></trkpt><trkpt lat="45.06933739847202" lon="7.823160285487811"><ele>412.0</ele><time>2026-04-17T15:47:48Z</time></trkpt><trkpt lat="45.06943552232201" lon="7.823149763025477"><ele>414.0</ele><time>2026-04-17T15:47:50Z</time></trkpt><trkpt lat="45.06952457252634" lon="7.823164424494568"><ele>416.0</ele><time>2026-04-17T15:47:52Z</time></trkpt><trkpt lat="45.0696491950103" lon="7.82320771240182"><ele>418.0</ele><time>2026-04-17T15:47:54Z</time></trkpt><trkpt lat="45.06975859492542" lon="7.823245799992379"><ele>420.0</ele><time>2026-04-17T15:47:56Z</time></trkpt><trkpt lat="45.069826563016086" lon="7.8232684797966945"><ele>422.0</ele><time>2026-04-17T15:47:57Z</time></trkpt><trkpt lat="45.06992254235471" lon="7.823303928843186"><ele>422.49999999999994</ele><time>2026-04-17T15:47:59Z</time></trkpt><trkpt lat="45.070007131473666" lon="7.823322649675035"><ele>423.0</ele><time>2026-04-17T15:48:01Z</time></trkpt><trkpt lat="45.07009244788991" lon="7.823349440710278"><ele>423.5</ele><time>2026-04-17T15:48:03Z</time></trkpt><trkpt lat="45.07015166166911" lon="7.823406335181423"><ele>424.0</ele><time>2026-04-17T15:48:05Z</time></trkpt><trkpt lat="45.07022618916221" lon="7.82348119811819"><ele>424.49999999999994</ele><time>2026-04-17T15:48:07Z</time></trkpt><trkpt lat="45.07028634494397" lon="7.8235352055572145"><ele>425.0</ele><time>2026-04-17T15:48:08Z</time></trkpt><trkpt lat="45.07038751238617" lon="7.823652553113433"><ele>426.49999999999994</ele><time>2026-04-17T15:48:10Z</time></trkpt><trkpt lat="45.07043828162822" lon="7.823727211854609"><ele>428.0</ele><time>2026-04-17T15:48:11Z</time></trkpt><trkpt lat="45.070486084131154" lon="7.8237994146506455"><ele>429.5</ele><time>2026-04-17T15:48:12Z</time></trkpt><trkpt lat="45.07054832612623" lon="7.823866254495967"><ele>431.0</ele><time>2026-04-17T15:48:13Z</time></trkpt><trkpt lat="45.07059608581281" lon="7.823930395821378"><ele>432.49999999999994</ele><time>2026-04-17T15:48:14Z</time></trkpt><trkpt lat="45.07063828981364" lon="7.824023636401844"><ele>434.0</ele><time>2026-04-17T15:48:15Z</time></trkpt><trkpt lat="45.07073130941053" lon="7.824095285224559"><ele>434.3333333333333</ele><time>2026-04-17T15:48:17Z</time></trkpt><trkpt lat="45.07079474277474" lon="7.824133323729971"><ele>434.66666666666663</ele><time>2026-04-17T15:48:18Z</time></trkpt><trkpt lat="45.070858276469515" lon="7.824181416972633"><ele>435.0</ele><time>2026-04-17T15:48:19Z</time></trkpt><trkpt lat="45.070923260742255" lon="7.824239163822659"><ele>435.33333333333337</ele><time>2026-04-17T15:48:20Z</time></trkpt><trkpt lat="45.07097848316643" lon="7.824290569528932"><ele>435.6666666666667</ele><time>2026-04-17T15:48:21Z</time></trkpt><trkpt lat="45.07110074996975" lon="7.824313707887372"><ele>436.0</ele><time>2026-04-17T15:48:23Z</time></trkpt><trkpt lat="45.071165342781704" lon="7.824307475912058"><ele>436.0</ele><time>2026-04-17T15:48:24Z</time></trkpt><trkpt lat="45.07123093259005" lon="7.824290522067439"><ele>436.0</ele><time>2026-04-17T15:48:25Z</time></trkpt><trkpt lat="45.07136006475279" lon="7.824259632990413"><ele>436.0</ele><time>2026-04-17T15:48:27Z</time></trkpt><trkpt lat="45.07148018180716" lon="7.82427491633585"><ele>436.0</ele><time>2026-04-17T15:48:29Z</time></trkpt><trkpt lat="45.07159005808505" lon="7.824350398083609"><ele>436.0</ele><time>2026-04-17T15:48:31Z</time></trkpt><trkpt lat="45.07164597429643" lon="7.824400501802851"><ele>434.6666666666667</ele><time>2026-04-17T15:48:32Z</time></trkpt><trkpt lat="45.0717025712389" lon="7.824461602184172"><ele>433.33333333333337</ele><time>2026-04-17T15:48:33Z</time></trkpt><trkpt lat="45.07176461155487" lon="7.824531367595301"><ele>432.0</ele><time>2026-04-17T15:48:34Z</time></trkpt><trkpt lat="45.07182602458536" lon="7.824590939738002"><ele>430.66666666666663</ele><time>2026-04-17T15:48:35Z</time></trkpt><trkpt lat="45.071896158169864" lon="7.824653601540632"><ele>429.3333333333333</ele><time>2026-04-17T15:48:36Z</time></trkpt><trkpt lat="45.07194960912303" lon="7.82472995996211"><ele>428.0</ele><time>2026-04-17T15:48:37Z</time></trkpt><trkpt lat="45.07201313330699" lon="7.824799862890016"><ele>427.99999999999994</ele><time>2026-04-17T15:48:38Z</time></trkpt><trkpt lat="45.072074686168335" lon="7.824870228962722"><ele>428.0</ele><time>2026-04-17T15:48:39Z</time></trkpt><trkpt lat="45.07214695222567" lon="7.824947016191033"><ele>428.0</ele><time>2026-04-17T15:48:40Z</time></trkpt><trkpt lat="45.07221294020655" lon="7.825011412958906"><ele>428.0</ele><time>2026-04-17T15:48:41Z</time></trkpt><trkpt lat="45.07227372718801" lon="7.825064388173379"><ele>427.99999999999994</ele><time>2026-04-17T15:48:42Z</time></trkpt><trkpt lat="45.072337013844255" lon="7.825109083516746"><ele>428.0</ele><time>2026-04-17T15:48:43Z</time></trkpt><trkpt lat="45.07240964526866" lon="7.825145796254034"><ele>426.4</ele><time>2026-04-17T15:48:44Z</time></trkpt><trkpt lat="45.072486464893736" lon="7.825171873602457"><ele>424.79999999999995</ele><time>2026-04-17T15:48:45Z</time></trkpt><trkpt lat="45.072579938559244" lon="7.825178017151726"><ele>423.2</ele><time>2026-04-17T15:48:46Z</time></trkpt><trkpt lat="45.07267853400509" lon="7.825176358740018"><ele>421.6</ele><time>2026-04-17T15:48:47Z</time></trkpt><trkpt lat="45.07280048135714" lon="7.825184681991332"><ele>420.0</ele><time>2026-04-17T15:48:48Z</time></trkpt><trkpt lat="45.072921909038406" lon="7.825188310826776"><ele>420.0</ele><time>2026-04-17T15:48:49Z</time></trkpt><trkpt lat="45.073051375240084" lon="7.825201174629625"><ele>420.0</ele><time>2026-04-17T15:48:50Z</time></trkpt><trkpt lat="45.07315662725762" lon="7.8252128976883935"><ele>420.0</ele><time>2026-04-17T15:48:50.999Z</time></trkpt><trkpt lat="45.07327219056897" lon="7.825216748558543"><ele>420.0</ele><time>2026-04-17T15:48:51.999Z</time></trkpt><trkpt lat="45.07339744082814" lon="7.82521898335924"><ele>422.6</ele><time>2026-04-17T15:48:52.999Z</time></trkpt><trkpt lat="45.07351298709957" lon="7.825228323887761"><ele>425.2</ele><time>2026-04-17T15:48:53.999Z</time></trkpt><trkpt lat="45.073621195030356" lon="7.825224283695382"><ele>427.79999999999995</ele><time>2026-04-17T15:48:54.999Z</time></trkpt><trkpt lat="45.0737306441372" lon="7.8252095545672"><ele>430.4</ele><time>2026-04-17T15:48:55.999Z</time></trkpt><trkpt lat="45.073838272985306" lon="7.825191639306126"><ele>433.0</ele><time>2026-04-17T15:48:56.999Z</time></trkpt><trkpt lat="45.07394417502566" lon="7.825178113614988"><ele>433.0</ele><time>2026-04-17T15:48:57.999Z</time></trkpt><trkpt lat="45.07405408942559" lon="7.825165994168189"><ele>432.99999999999994</ele><time>2026-04-17T15:48:58.999Z</time></trkpt><trkpt lat="45.07415390963415" lon="7.82516350075606"><ele>432.99999999999994</ele><time>2026-04-17T15:48:59.999Z</time></trkpt><trkpt lat="45.07424465574868" lon="7.825159214636721"><ele>433.0</ele><time>2026-04-17T15:49:00.999Z</time></trkpt><trkpt lat="45.07433207463923" lon="7.825153597061673"><ele>433.0</ele><time>2026-04-17T15:49:01.999Z</time></trkpt><trkpt lat="45.0744124583163" lon="7.82513860855811"><ele>433.00000000000006</ele><time>2026-04-17T15:49:02.999Z</time></trkpt><trkpt lat="45.07449535497883" lon="7.825113608508138"><ele>433.0</ele><time>2026-04-17T15:49:03.999Z</time></trkpt><trkpt lat="45.074578763076964" lon="7.825064033937449"><ele>433.0</ele><time>2026-04-17T15:49:04.999Z</time></trkpt><trkpt lat="45.07466470007885" lon="7.825005821581334"><ele>433.0</ele><time>2026-04-17T15:49:05.999Z</time></trkpt><trkpt lat="45.07474340386917" lon="7.824961965453668"><ele>433.00000000000006</ele><time>2026-04-17T15:49:06.999Z</time></trkpt><trkpt lat="45.07483009290014" lon="7.824920263295897"><ele>433.0</ele><time>2026-04-17T15:49:07.999Z</time></trkpt><trkpt lat="45.0749061513246" lon="7.8248644224475745"><ele>433.83333333333337</ele><time>2026-04-17T15:49:08.999Z</time></trkpt><trkpt lat="45.07497923012757" lon="7.8248134675836205"><ele>434.6666666666667</ele><time>2026-04-17T15:49:09.999Z</time></trkpt><trkpt lat="45.07503612670812" lon="7.824764582451119"><ele>435.5</ele><time>2026-04-17T15:49:10.999Z</time></trkpt><trkpt lat="45.075109268711216" lon="7.824728464098366"><ele>436.33333333333337</ele><time>2026-04-17T15:49:11.999Z</time></trkpt><trkpt lat="45.07517727892817" lon="7.824662284965724"><ele>437.1666666666667</ele><time>2026-04-17T15:49:12.999Z</time></trkpt><trkpt lat="45.07524448636009" lon="7.824574172573807"><ele>438.0</ele><time>2026-04-17T15:49:13.999Z</time></trkpt><trkpt lat="45.07530979148785" lon="7.824480346641648"><ele>438.0</ele><time>2026-04-17T15:49:14.999Z</time></trkpt><trkpt lat="45.07537952012717" lon="7.824379840215636"><ele>437.99999999999994</ele><time>2026-04-17T15:49:15.999Z</time></trkpt><trkpt lat="45.07544187053795" lon="7.824245591998583"><ele>437.99999999999994</ele><time>2026-04-17T15:49:16.999Z</time></trkpt><trkpt lat="45.0755183139846" lon="7.82410430281478"><ele>438.0</ele><time>2026-04-17T15:49:17.999Z</time></trkpt><trkpt lat="45.07556001712953" lon="7.823981820209704"><ele>438.0</ele><time>2026-04-17T15:49:18.999Z</time></trkpt><trkpt lat="45.0756181457708" lon="7.82386669231282"><ele>438.0</ele><time>2026-04-17T15:49:19.999Z</time></trkpt><trkpt lat="45.0756835469244" lon="7.823772647676111"><ele>437.99999999999994</ele><time>2026-04-17T15:49:20.999Z</time></trkpt><trkpt lat="45.075739057859735" lon="7.823655890273477"><ele>437.99999999999994</ele><time>2026-04-17T15:49:21.999Z</time></trkpt><trkpt lat="45.07581374009918" lon="7.823591691376804"><ele>438.0</ele><time>2026-04-17T15:49:22.999Z</time></trkpt><trkpt lat="45.0758886126652" lon="7.823509020531062"><ele>438.0</ele><time>2026-04-17T15:49:23.999Z</time></trkpt><trkpt lat="45.075976852773145" lon="7.8234426471635805"><ele>438.0</ele><time>2026-04-17T15:49:24.999Z</time></trkpt><trkpt lat="45.07609010867758" lon="7.823397266641991"><ele>437.99999999999994</ele><time>2026-04-17T15:49:26.001Z</time></trkpt><trkpt lat="45.07618651599016" lon="7.823328768463499"><ele>437.99999999999994</ele><time>2026-04-17T15:49:27.001Z</time></trkpt><trkpt lat="45.07628438693294" lon="7.82327858942218"><ele>438.0</ele><time>2026-04-17T15:49:28.001Z</time></trkpt><trkpt lat="45.076372608947885" lon="7.8232337863703165"><ele>438.0</ele><time>2026-04-17T15:49:29.001Z</time></trkpt><trkpt lat="45.07643901938995" lon="7.8231918890777665"><ele>438.0</ele><time>2026-04-17T15:49:30.001Z</time></trkpt><trkpt lat="45.076507695252005" lon="7.823136794498552"><ele>437.99999999999994</ele><time>2026-04-17T15:49:31.001Z</time></trkpt><trkpt lat="45.076575377421555" lon="7.823087513506491"><ele>437.99999999999994</ele><time>2026-04-17T15:49:32.001Z</time></trkpt><trkpt lat="45.07668029852348" lon="7.822999952369742"><ele>438.0</ele><time>2026-04-17T15:49:33.001Z</time></trkpt><trkpt lat="45.07680620023253" lon="7.822906222690857"><ele>438.0</ele><time>2026-04-17T15:49:35.001Z</time></trkpt><trkpt lat="45.07689484527467" lon="7.822845193108396"><ele>438.6666666666667</ele><time>2026-04-17T15:49:36.001Z</time></trkpt><trkpt lat="45.0769892346095" lon="7.822766494825974"><ele>439.33333333333337</ele><time>2026-04-17T15:49:37.001Z</time></trkpt><trkpt lat="45.07708517636284" lon="7.8226898210675575"><ele>440.0</ele><time>2026-04-17T15:49:38.001Z</time></trkpt><trkpt lat="45.07716263823312" lon="7.822640505211774"><ele>440.6666666666667</ele><time>2026-04-17T15:49:39.001Z</time></trkpt><trkpt lat="45.07722025550007" lon="7.822582980034034"><ele>441.33333333333337</ele><time>2026-04-17T15:49:40.001Z</time></trkpt><trkpt lat="45.07727493750225" lon="7.82253580557908"><ele>442.0</ele><time>2026-04-17T15:49:41.001Z</time></trkpt><trkpt lat="45.07735495072766" lon="7.822486006008841"><ele>440.20000000000005</ele><time>2026-04-17T15:49:45Z</time></trkpt><trkpt lat="45.07744646311575" lon="7.822594110646602"><ele>438.40000000000003</ele><time>2026-04-17T15:49:46Z</time></trkpt><trkpt lat="45.07753128976988" lon="7.822645530837401"><ele>436.59999999999997</ele><time>2026-04-17T15:49:47Z</time></trkpt><trkpt lat="45.07762095711755" lon="7.822679544494654"><ele>434.79999999999995</ele><time>2026-04-17T15:49:48Z</time></trkpt><trkpt lat="45.077719761398896" lon="7.822696798116406"><ele>433.0</ele><time>2026-04-17T15:49:49Z</time></trkpt><trkpt lat="45.07782179780641" lon="7.822719240865799"><ele>433.0</ele><time>2026-04-17T15:49:50Z</time></trkpt><trkpt lat="45.07793059532661" lon="7.822727143290145"><ele>432.99999999999994</ele><time>2026-04-17T15:49:51Z</time></trkpt><trkpt lat="45.07803127722809" lon="7.822758874527264"><ele>432.99999999999994</ele><time>2026-04-17T15:49:52Z</time></trkpt><trkpt lat="45.07812567611604" lon="7.822777697539231"><ele>433.0</ele><time>2026-04-17T15:49:53Z</time></trkpt><trkpt lat="45.07821048550736" lon="7.822786360465788"><ele>433.0</ele><time>2026-04-17T15:49:54Z</time></trkpt><trkpt lat="45.0782881182072" lon="7.822775133768125"><ele>434.00000000000006</ele><time>2026-04-17T15:49:55Z</time></trkpt><trkpt lat="45.07836099109357" lon="7.822760423795554"><ele>435.0</ele><time>2026-04-17T15:49:56Z</time></trkpt><trkpt lat="45.07841933413463" lon="7.822692502867172"><ele>436.0</ele><time>2026-04-17T15:49:57Z</time></trkpt><trkpt lat="45.07845814917026" lon="7.822603191804322"><ele>437.0</ele><time>2026-04-17T15:49:58Z</time></trkpt><trkpt lat="45.07848771109327" lon="7.822510501490443"><ele>438.00000000000006</ele><time>2026-04-17T15:49:59Z</time></trkpt><trkpt lat="45.078518659071015" lon="7.822392829827418"><ele>439.0</ele><time>2026-04-17T15:50:00Z</time></trkpt><trkpt lat="45.07854850242431" lon="7.822277645848987"><ele>442.2</ele><time>2026-04-17T15:50:01Z</time></trkpt><trkpt lat="45.078582542528714" lon="7.822162702317116"><ele>445.4</ele><time>2026-04-17T15:50:02Z</time></trkpt><trkpt lat="45.078629209516826" lon="7.822048641995559"><ele>448.6</ele><time>2026-04-17T15:50:03Z</time></trkpt><trkpt lat="45.07868345144921" lon="7.821940682741465"><ele>451.8</ele><time>2026-04-17T15:50:04Z</time></trkpt><trkpt lat="45.07875051700914" lon="7.821839468443244"><ele>455.0</ele><time>2026-04-17T15:50:05Z</time></trkpt><trkpt lat="45.07883764470523" lon="7.821768790764459"><ele>457.5</ele><time>2026-04-17T15:50:06Z</time></trkpt><trkpt lat="45.078934611479816" lon="7.821729590349474"><ele>460.0</ele><time>2026-04-17T15:50:07Z</time></trkpt><trkpt lat="45.07905478554705" lon="7.821688447141346"><ele>462.5</ele><time>2026-04-17T15:50:08Z</time></trkpt><trkpt lat="45.0791871653025" lon="7.8216673749979435"><ele>465.0</ele><time>2026-04-17T15:50:09Z</time></trkpt><trkpt lat="45.079315721453895" lon="7.821638167042121"><ele>465.0</ele><time>2026-04-17T15:50:10Z</time></trkpt><trkpt lat="45.07943276915524" lon="7.821615136328107"><ele>465.0</ele><time>2026-04-17T15:50:11Z</time></trkpt><trkpt lat="45.07954083315048" lon="7.821588618748095"><ele>465.0</ele><time>2026-04-17T15:50:12Z</time></trkpt><trkpt lat="45.079635385977035" lon="7.821575994628219"><ele>465.0</ele><time>2026-04-17T15:50:13Z</time></trkpt><trkpt lat="45.07972211157381" lon="7.821559946334281"><ele>465.0</ele><time>2026-04-17T15:50:14Z</time></trkpt><trkpt lat="45.07980997936562" lon="7.8215333572330135"><ele>465.0</ele><time>2026-04-17T15:50:15Z</time></trkpt><trkpt lat="45.079889870209755" lon="7.8214707933259895"><ele>465.0</ele><time>2026-04-17T15:50:16Z</time></trkpt><trkpt lat="45.079957718378985" lon="7.821386832039983"><ele>465.0</ele><time>2026-04-17T15:50:17Z</time></trkpt><trkpt lat="45.08003028896001" lon="7.821275646206982"><ele>465.0</ele><time>2026-04-17T15:50:18Z</time></trkpt><trkpt lat="45.08007793337512" lon="7.821126935129703"><ele>465.0</ele><time>2026-04-17T15:50:19Z</time></trkpt><trkpt lat="45.080110152097284" lon="7.820975749790753"><ele>465.75</ele><time>2026-04-17T15:50:20Z</time></trkpt><trkpt lat="45.080135709811586" lon="7.820816598262232"><ele>466.5</ele><time>2026-04-17T15:50:21Z</time></trkpt><trkpt lat="45.080161198259525" lon="7.820643612003051"><ele>467.25</ele><time>2026-04-17T15:50:22Z</time></trkpt><trkpt lat="45.0801845112233" lon="7.82048539034776"><ele>468.0</ele><time>2026-04-17T15:50:23Z</time></trkpt><trkpt lat="45.080208072469254" lon="7.8203321241750965"><ele>468.0</ele><time>2026-04-17T15:50:24Z</time></trkpt><trkpt lat="45.08021686975936" lon="7.820156286316131"><ele>468.0</ele><time>2026-04-17T15:50:25Z</time></trkpt><trkpt lat="45.080254436187296" lon="7.8199974669101335"><ele>468.0</ele><time>2026-04-17T15:50:26Z</time></trkpt><trkpt lat="45.080277030389055" lon="7.819848100663519"><ele>468.0</ele><time>2026-04-17T15:50:27Z</time></trkpt><trkpt lat="45.0803495967687" lon="7.819719966196187"><ele>468.8333333333333</ele><time>2026-04-17T15:50:28Z</time></trkpt><trkpt lat="45.08040130502267" lon="7.819582533724121"><ele>469.66666666666663</ele><time>2026-04-17T15:50:29Z</time></trkpt><trkpt lat="45.08047053412242" lon="7.819491539659829"><ele>470.5</ele><time>2026-04-17T15:50:30Z</time></trkpt><trkpt lat="45.08052023679878" lon="7.819408381075451"><ele>471.3333333333333</ele><time>2026-04-17T15:50:31Z</time></trkpt><trkpt lat="45.080587155895" lon="7.819338963462712"><ele>472.16666666666663</ele><time>2026-04-17T15:50:32Z</time></trkpt><trkpt lat="45.08066118946725" lon="7.819303317624546"><ele>473.0</ele><time>2026-04-17T15:50:33Z</time></trkpt><trkpt lat="45.08073794919958" lon="7.819335679594819"><ele>466.25</ele><time>2026-04-17T15:50:34Z</time></trkpt><trkpt lat="45.080820457891264" lon="7.819389429727183"><ele>459.5</ele><time>2026-04-17T15:50:35Z</time></trkpt><trkpt lat="45.08092630282003" lon="7.8194561296155625"><ele>452.75</ele><time>2026-04-17T15:50:36Z</time></trkpt><trkpt lat="45.08104446983215" lon="7.819509323778919"><ele>446.0</ele><time>2026-04-17T15:50:37Z</time></trkpt><trkpt lat="45.08117240598727" lon="7.819529229305239"><ele>446.0</ele><time>2026-04-17T15:50:38Z</time></trkpt><trkpt lat="45.08128109647584" lon="7.819562647127022"><ele>446.0</ele><time>2026-04-17T15:50:39Z</time></trkpt><trkpt lat="45.0814096035775" lon="7.819573154536696"><ele>446.0</ele><time>2026-04-17T15:50:40Z</time></trkpt><trkpt lat="45.081522269028" lon="7.819564449014157"><ele>446.0</ele><time>2026-04-17T15:50:41Z</time></trkpt><trkpt lat="45.081647191807775" lon="7.819567248417561"><ele>445.20000000000005</ele><time>2026-04-17T15:50:42Z</time></trkpt><trkpt lat="45.081767390766274" lon="7.819571962588698"><ele>444.40000000000003</ele><time>2026-04-17T15:50:43Z</time></trkpt><trkpt lat="45.08187757151804" lon="7.819584939526163"><ele>443.6</ele><time>2026-04-17T15:50:44Z</time></trkpt><trkpt lat="45.08198232161638" lon="7.819571463540804"><ele>442.8</ele><time>2026-04-17T15:50:45Z</time></trkpt><trkpt lat="45.08208252505052" lon="7.819499447927103"><ele>442.0</ele><time>2026-04-17T15:50:46Z</time></trkpt><trkpt lat="45.08219431548369" lon="7.819406912452547"><ele>442.0</ele><time>2026-04-17T15:50:47Z</time></trkpt><trkpt lat="45.082302067887696" lon="7.819328749624819"><ele>442.0</ele><time>2026-04-17T15:50:48Z</time></trkpt><trkpt lat="45.08240922591342" lon="7.81923691036373"><ele>442.0</ele><time>2026-04-17T15:50:49Z</time></trkpt><trkpt lat="45.08249202946754" lon="7.8191055462503884"><ele>442.0</ele><time>2026-04-17T15:50:50Z</time></trkpt><trkpt lat="45.08257809769491" lon="7.819034287973823"><ele>445.0</ele><time>2026-04-17T15:50:51Z</time></trkpt><trkpt lat="45.08268325690774" lon="7.819018315834812"><ele>448.0</ele><time>2026-04-17T15:50:51.999Z</time></trkpt><trkpt lat="45.08280551884375" lon="7.818962877968325"><ele>451.0</ele><time>2026-04-17T15:50:52.999Z</time></trkpt><trkpt lat="45.08294101869707" lon="7.8189110978567635"><ele>454.0</ele><time>2026-04-17T15:50:53.999Z</time></trkpt><trkpt lat="45.08304351018298" lon="7.818806041423056"><ele>454.0</ele><time>2026-04-17T15:50:54.999Z</time></trkpt><trkpt lat="45.08312973858165" lon="7.818669131244423"><ele>454.0</ele><time>2026-04-17T15:50:55.999Z</time></trkpt><trkpt lat="45.083211352919854" lon="7.818546288730607"><ele>454.0</ele><time>2026-04-17T15:50:56.999Z</time></trkpt><trkpt lat="45.08328911148762" lon="7.8184484275851975"><ele>454.0</ele><time>2026-04-17T15:50:57.999Z</time></trkpt><trkpt lat="45.08336229905883" lon="7.818369267266205"><ele>454.0</ele><time>2026-04-17T15:50:58.999Z</time></trkpt><trkpt lat="45.08342440702416" lon="7.818295323855211"><ele>454.25</ele><time>2026-04-17T15:50:59.999Z</time></trkpt><trkpt lat="45.08346299037702" lon="7.81815273648642"><ele>454.5</ele><time>2026-04-17T15:51:00.999Z</time></trkpt><trkpt lat="45.083490046266625" lon="7.817963865173994"><ele>454.75</ele><time>2026-04-17T15:51:01.999Z</time></trkpt><trkpt lat="45.083494345497215" lon="7.817777470504343"><ele>455.0</ele><time>2026-04-17T15:51:02.999Z</time></trkpt><trkpt lat="45.083458669899336" lon="7.817541585489885"><ele>455.0</ele><time>2026-04-17T15:51:03.999Z</time></trkpt><trkpt lat="45.0834488461565" lon="7.817316146097209"><ele>455.0</ele><time>2026-04-17T15:51:04.999Z</time></trkpt><trkpt lat="45.083431379107395" lon="7.817111160883095"><ele>455.0</ele><time>2026-04-17T15:51:05.999Z</time></trkpt><trkpt lat="45.083407924071366" lon="7.8169171356270075"><ele>455.0</ele><time>2026-04-17T15:51:06.999Z</time></trkpt><trkpt lat="45.083359397869714" lon="7.81671522018941"><ele>454.5</ele><time>2026-04-17T15:51:07.999Z</time></trkpt><trkpt lat="45.08329285402721" lon="7.816525724063529"><ele>454.0</ele><time>2026-04-17T15:51:08.999Z</time></trkpt><trkpt lat="45.08322894023026" lon="7.816374870594157"><ele>453.5</ele><time>2026-04-17T15:51:09.999Z</time></trkpt><trkpt lat="45.08316882639033" lon="7.816229393643767"><ele>453.0</ele><time>2026-04-17T15:51:10.999Z</time></trkpt><trkpt lat="45.08313524856842" lon="7.8160811359307525"><ele>452.0</ele><time>2026-04-17T15:51:11.999Z</time></trkpt><trkpt lat="45.08316278716145" lon="7.815891391090546"><ele>451.0</ele><time>2026-04-17T15:51:12.999Z</time></trkpt><trkpt lat="45.08325073873001" lon="7.815731104924557"><ele>450.0</ele><time>2026-04-17T15:51:13.999Z</time></trkpt><trkpt lat="45.08333992042139" lon="7.815613784103694"><ele>449.0</ele><time>2026-04-17T15:51:14.999Z</time></trkpt><trkpt lat="45.08340280635109" lon="7.815480808614237"><ele>449.0</ele><time>2026-04-17T15:51:15.999Z</time></trkpt><trkpt lat="45.083440380483076" lon="7.815334869716893"><ele>449.0</ele><time>2026-04-17T15:51:16.999Z</time></trkpt><trkpt lat="45.08342676407828" lon="7.815193715384266"><ele>449.0</ele><time>2026-04-17T15:51:17.999Z</time></trkpt><trkpt lat="45.08338833043974" lon="7.815030899231559"><ele>449.0</ele><time>2026-04-17T15:51:18.999Z</time></trkpt><trkpt lat="45.083338265476506" lon="7.814856785956628"><ele>449.75</ele><time>2026-04-17T15:51:19.999Z</time></trkpt><trkpt lat="45.08332565065433" lon="7.814700317348274"><ele>450.5</ele><time>2026-04-17T15:51:20.999Z</time></trkpt><trkpt lat="45.083335040832" lon="7.814543231434249"><ele>451.25</ele><time>2026-04-17T15:51:21.999Z</time></trkpt><trkpt lat="45.08330549013068" lon="7.814395300904478"><ele>452.0</ele><time>2026-04-17T15:51:22.999Z</time></trkpt><trkpt lat="45.08324162003834" lon="7.814249904068211"><ele>452.40000000000003</ele><time>2026-04-17T15:51:23.999Z</time></trkpt><trkpt lat="45.08317480927262" lon="7.814147678410107"><ele>452.80000000000007</ele><time>2026-04-17T15:51:24.999Z</time></trkpt><trkpt lat="45.083166891593976" lon="7.814034379238506"><ele>453.2</ele><time>2026-04-17T15:51:25.999Z</time></trkpt><trkpt lat="45.08318836722569" lon="7.813930872329026"><ele>453.6</ele><time>2026-04-17T15:51:26.999Z</time></trkpt><trkpt lat="45.08327344376846" lon="7.813836120347535"><ele>454.0</ele><time>2026-04-17T15:51:27.999Z</time></trkpt><trkpt lat="45.08339988456715" lon="7.813754492900238"><ele>454.0</ele><time>2026-04-17T15:51:28.999Z</time></trkpt><trkpt lat="45.083534582826324" lon="7.813705436619339"><ele>454.0</ele><time>2026-04-17T15:51:29.999Z</time></trkpt><trkpt lat="45.08364717947279" lon="7.8136602448254555"><ele>454.0</ele><time>2026-04-17T15:51:30.999Z</time></trkpt><trkpt lat="45.08374048649522" lon="7.81361172810601"><ele>454.0</ele><time>2026-04-17T15:51:32Z</time></trkpt><trkpt lat="45.0838454647529" lon="7.813612406173129"><ele>454.0</ele><time>2026-04-17T15:51:33Z</time></trkpt><trkpt lat="45.08394330234025" lon="7.81367376973092"><ele>454.0</ele><time>2026-04-17T15:51:34Z</time></trkpt><trkpt lat="45.08406809623664" lon="7.813730155868249"><ele>454.0</ele><time>2026-04-17T15:51:35Z</time></trkpt><trkpt lat="45.084190942002635" lon="7.813762538247734"><ele>454.0</ele><time>2026-04-17T15:51:36Z</time></trkpt><trkpt lat="45.084313658654885" lon="7.813807664101172"><ele>449.5</ele><time>2026-04-17T15:51:37Z</time></trkpt><trkpt lat="45.084430253643625" lon="7.813795628314871"><ele>445.0</ele><time>2026-04-17T15:51:38Z</time></trkpt><trkpt lat="45.08453619275007" lon="7.813770830629518"><ele>440.5</ele><time>2026-04-17T15:51:39Z</time></trkpt><trkpt lat="45.08465436579479" lon="7.81372280650944"><ele>436.0</ele><time>2026-04-17T15:51:40Z</time></trkpt><trkpt lat="45.08476378164331" lon="7.813668434512018"><ele>436.0</ele><time>2026-04-17T15:51:41Z</time></trkpt><trkpt lat="45.08487087888614" lon="7.81361521469838"><ele>436.0</ele><time>2026-04-17T15:51:42Z</time></trkpt><trkpt lat="45.08495912227652" lon="7.813571363927161"><ele>436.0</ele><time>2026-04-17T15:51:43Z</time></trkpt><trkpt lat="45.085040254358674" lon="7.813503741320963"><ele>436.0</ele><time>2026-04-17T15:51:44Z</time></trkpt><trkpt lat="45.08515987013655" lon="7.813530622085734"><ele>436.0</ele><time>2026-04-17T15:51:45Z</time></trkpt><trkpt lat="45.085253562630065" lon="7.813559367742659"><ele>434.00000000000006</ele><time>2026-04-17T15:51:46Z</time></trkpt><trkpt lat="45.08533153043164" lon="7.813580177997085"><ele>432.0</ele><time>2026-04-17T15:51:47Z</time></trkpt><trkpt lat="45.08539856949972" lon="7.813594718568245"><ele>430.0</ele><time>2026-04-17T15:51:48Z</time></trkpt><trkpt lat="45.08546462665696" lon="7.813618290037245"><ele>428.0</ele><time>2026-04-17T15:51:50Z</time></trkpt><trkpt lat="45.085542792456046" lon="7.813677984884452"><ele>426.00000000000006</ele><time>2026-04-17T15:52:00Z</time></trkpt><trkpt lat="45.08561638345684" lon="7.813664653057257"><ele>424.0</ele><time>2026-04-17T15:52:08Z</time></trkpt><trkpt lat="45.08569132503485" lon="7.813678101778844"><ele>425.79999999999995</ele><time>2026-04-17T15:52:09Z</time></trkpt><trkpt lat="45.085775550887575" lon="7.813713908509049"><ele>427.59999999999997</ele><time>2026-04-17T15:52:10Z</time></trkpt><trkpt lat="45.08587874461616" lon="7.813748509999736"><ele>429.4</ele><time>2026-04-17T15:52:11Z</time></trkpt><trkpt lat="45.08599771990909" lon="7.813784673667385"><ele>431.2</ele><time>2026-04-17T15:52:12Z</time></trkpt><trkpt lat="45.08612539889151" lon="7.813821657211413"><ele>433.0</ele><time>2026-04-17T15:52:13Z</time></trkpt><trkpt lat="45.0862559830681" lon="7.813859323580927"><ele>433.0</ele><time>2026-04-17T15:52:14Z</time></trkpt><trkpt lat="45.08636319682041" lon="7.813887678028613"><ele>432.99999999999994</ele><time>2026-04-17T15:52:15Z</time></trkpt><trkpt lat="45.086454184559074" lon="7.8139064466074215"><ele>432.99999999999994</ele><time>2026-04-17T15:52:16Z</time></trkpt><trkpt lat="45.08653926830747" lon="7.813907044484548"><ele>433.0</ele><time>2026-04-17T15:52:17Z</time></trkpt><trkpt lat="45.086638383479425" lon="7.813872681826583"><ele>433.0</ele><time>2026-04-17T15:52:18Z</time></trkpt><trkpt lat="45.08674236203999" lon="7.81381083515819"><ele>434.59999999999997</ele><time>2026-04-17T15:52:19Z</time></trkpt><trkpt lat="45.086824746226704" lon="7.813741928410033"><ele>436.19999999999993</ele><time>2026-04-17T15:52:20Z</time></trkpt><trkpt lat="45.08690997974523" lon="7.813702371283271"><ele>437.8</ele><time>2026-04-17T15:52:21Z</time></trkpt><trkpt lat="45.08701072957125" lon="7.813677077832276"><ele>439.4</ele><time>2026-04-17T15:52:22Z</time></trkpt><trkpt lat="45.08713351188767" lon="7.813684406932458"><ele>441.0</ele><time>2026-04-17T15:52:23Z</time></trkpt><trkpt lat="45.08726030669614" lon="7.813697465603128"><ele>441.0</ele><time>2026-04-17T15:52:24Z</time></trkpt><trkpt lat="45.08737667398993" lon="7.8137162234389805"><ele>441.0</ele><time>2026-04-17T15:52:25Z</time></trkpt><trkpt lat="45.08748009021531" lon="7.813745903377368"><ele>441.0</ele><time>2026-04-17T15:52:26Z</time></trkpt><trkpt lat="45.087579665491305" lon="7.813791257611107"><ele>441.0</ele><time>2026-04-17T15:52:27Z</time></trkpt><trkpt lat="45.087691407425865" lon="7.81381971663458"><ele>441.0</ele><time>2026-04-17T15:52:28Z</time></trkpt><trkpt lat="45.08778551188414" lon="7.813856541642168"><ele>442.6</ele><time>2026-04-17T15:52:29Z</time></trkpt><trkpt lat="45.08788269425816" lon="7.813910702469235"><ele>444.20000000000005</ele><time>2026-04-17T15:52:30Z</time></trkpt><trkpt lat="45.08798557909767" lon="7.81398232029435"><ele>445.79999999999995</ele><time>2026-04-17T15:52:31Z</time></trkpt><trkpt lat="45.08806341413446" lon="7.814075720467491"><ele>447.4</ele><time>2026-04-17T15:52:31.999Z</time></trkpt><trkpt lat="45.08813037450227" lon="7.8141598547891435"><ele>449.0</ele><time>2026-04-17T15:52:32.999Z</time></trkpt><trkpt lat="45.088187684255594" lon="7.814233052937041"><ele>448.99999999999994</ele><time>2026-04-17T15:52:33.999Z</time></trkpt><trkpt lat="45.0882529937288" lon="7.814288673010135"><ele>449.0</ele><time>2026-04-17T15:52:34.999Z</time></trkpt><trkpt lat="45.0883209116969" lon="7.814328291871594"><ele>449.0</ele><time>2026-04-17T15:52:35.999Z</time></trkpt><trkpt lat="45.08838253603299" lon="7.814357867440464"><ele>449.0</ele><time>2026-04-17T15:52:36.999Z</time></trkpt><trkpt lat="45.08846577575407" lon="7.814341427517533"><ele>448.99999999999994</ele><time>2026-04-17T15:52:37.999Z</time></trkpt><trkpt lat="45.08853297648445" lon="7.814310428674579"><ele>449.0</ele><time>2026-04-17T15:52:38.999Z</time></trkpt><trkpt lat="45.08862360904144" lon="7.814267052395909"><ele>452.2</ele><time>2026-04-17T15:52:39.999Z</time></trkpt><trkpt lat="45.08870444902405" lon="7.81421635250941"><ele>455.4</ele><time>2026-04-17T15:52:40.999Z</time></trkpt><trkpt lat="45.088796647403434" lon="7.814169313783138"><ele>458.6</ele><time>2026-04-17T15:52:41.999Z</time></trkpt><trkpt lat="45.088885329982865" lon="7.814114701148772"><ele>461.8</ele><time>2026-04-17T15:52:42.999Z</time></trkpt><trkpt lat="45.08896673220349" lon="7.8140666761960365"><ele>465.0</ele><time>2026-04-17T15:52:43.999Z</time></trkpt><trkpt lat="45.08905291480399" lon="7.814050690819578"><ele>464.0</ele><time>2026-04-17T15:52:44.999Z</time></trkpt><trkpt lat="45.08914862703221" lon="7.814024745184999"><ele>463.0</ele><time>2026-04-17T15:52:45.999Z</time></trkpt><trkpt lat="45.08923124583512" lon="7.814007717305153"><ele>462.0</ele><time>2026-04-17T15:52:46.999Z</time></trkpt><trkpt lat="45.08934808589746" lon="7.8140211994910835"><ele>461.0</ele><time>2026-04-17T15:52:47.999Z</time></trkpt><trkpt lat="45.08946012980712" lon="7.814035780769289"><ele>460.0</ele><time>2026-04-17T15:52:48.999Z</time></trkpt><trkpt lat="45.08956934763061" lon="7.813972860899693"><ele>460.0</ele><time>2026-04-17T15:52:49.999Z</time></trkpt><trkpt lat="45.08966812514733" lon="7.8139385317023615"><ele>460.0</ele><time>2026-04-17T15:52:50.999Z</time></trkpt><trkpt lat="45.08977130443098" lon="7.8139499810208095"><ele>460.0</ele><time>2026-04-17T15:52:51.999Z</time></trkpt><trkpt lat="45.089882941229206" lon="7.813989849568639"><ele>460.0</ele><time>2026-04-17T15:52:52.999Z</time></trkpt><trkpt lat="45.08997584129221" lon="7.814049394539543"><ele>460.0</ele><time>2026-04-17T15:52:53.999Z</time></trkpt><trkpt lat="45.09005612432749" lon="7.814104536821977"><ele>459.4</ele><time>2026-04-17T15:52:54.999Z</time></trkpt><trkpt lat="45.09012817335054" lon="7.814164446435243"><ele>458.8</ele><time>2026-04-17T15:52:55.999Z</time></trkpt><trkpt lat="45.09018778246306" lon="7.81421777420772"><ele>458.20000000000005</ele><time>2026-04-17T15:52:56.999Z</time></trkpt><trkpt lat="45.090279895816884" lon="7.8143333437838605"><ele>457.6</ele><time>2026-04-17T15:52:58.999Z</time></trkpt><trkpt lat="45.090360248683005" lon="7.814438685306944"><ele>457.0</ele><time>2026-04-17T15:53:00.999Z</time></trkpt><trkpt lat="45.09043090585662" lon="7.814489828902772"><ele>454.50000000000006</ele><time>2026-04-17T15:53:02.999Z</time></trkpt><trkpt lat="45.09049675526846" lon="7.814577395463807"><ele>452.0</ele><time>2026-04-17T15:53:06.999Z</time></trkpt><trkpt lat="45.09053726357565" lon="7.814692417210538"><ele>449.5</ele><time>2026-04-17T15:53:09.999Z</time></trkpt><trkpt lat="45.090577319035056" lon="7.814813161516207"><ele>447.0</ele><time>2026-04-17T15:53:11.999Z</time></trkpt><trkpt lat="45.090614739451254" lon="7.814925510648658"><ele>444.50000000000006</ele><time>2026-04-17T15:53:13.999Z</time></trkpt><trkpt lat="45.0906541244644" lon="7.815028138405906"><ele>442.0</ele><time>2026-04-17T15:53:15.999Z</time></trkpt><trkpt lat="45.09070260674063" lon="7.815171552716412"><ele>443.6</ele><time>2026-04-17T15:53:17.999Z</time></trkpt><trkpt lat="45.0907746782042" lon="7.815287098377467"><ele>445.20000000000005</ele><time>2026-04-17T15:53:19.999Z</time></trkpt><trkpt lat="45.090867657164566" lon="7.81534849582059"><ele>446.8</ele><time>2026-04-17T15:53:21.999Z</time></trkpt><trkpt lat="45.090958178511436" lon="7.815400679708261"><ele>448.4</ele><time>2026-04-17T15:53:23.999Z</time></trkpt><trkpt lat="45.09104495450196" lon="7.815396154636167"><ele>450.0</ele><time>2026-04-17T15:53:25.999Z</time></trkpt><trkpt lat="45.091114105960855" lon="7.81533423647098"><ele>450.0</ele><time>2026-04-17T15:53:27.999Z</time></trkpt><trkpt lat="45.09118411744602" lon="7.8152330853151"><ele>450.0</ele><time>2026-04-17T15:53:29.999Z</time></trkpt><trkpt lat="45.09127209958877" lon="7.815187411678689"><ele>450.0</ele><time>2026-04-17T15:53:31.999Z</time></trkpt><trkpt lat="45.09136122071326" lon="7.815108151742956"><ele>450.0</ele><time>2026-04-17T15:53:33.999Z</time></trkpt><trkpt lat="45.09143127371574" lon="7.815143087651547"><ele>450.0</ele><time>2026-04-17T15:53:34.999Z</time></trkpt><trkpt lat="45.091511123236586" lon="7.815072675940641"><ele>451.3333333333333</ele><time>2026-04-17T15:53:36.999Z</time></trkpt><trkpt lat="45.091592609739514" lon="7.815049438490072"><ele>452.66666666666663</ele><time>2026-04-17T15:53:39Z</time></trkpt><trkpt lat="45.091663459366906" lon="7.81506552347227"><ele>454.0</ele><time>2026-04-17T15:53:40Z</time></trkpt><trkpt lat="45.091729413908354" lon="7.815078603175152"><ele>455.3333333333333</ele><time>2026-04-17T15:53:41Z</time></trkpt><trkpt lat="45.09183902041787" lon="7.81511953483085"><ele>456.66666666666663</ele><time>2026-04-17T15:53:43Z</time></trkpt><trkpt lat="45.09190723438154" lon="7.815152284931948"><ele>458.0</ele><time>2026-04-17T15:53:44Z</time></trkpt><trkpt lat="45.09197806010185" lon="7.815188433016911"><ele>460.16666666666663</ele><time>2026-04-17T15:53:45Z</time></trkpt><trkpt lat="45.09204617616455" lon="7.8152277160375405"><ele>462.3333333333333</ele><time>2026-04-17T15:53:46Z</time></trkpt><trkpt lat="45.092118361895864" lon="7.815275490397631"><ele>464.5</ele><time>2026-04-17T15:53:47Z</time></trkpt><trkpt lat="45.09219286649186" lon="7.815315455809509"><ele>466.66666666666663</ele><time>2026-04-17T15:53:48Z</time></trkpt><trkpt lat="45.09226824517296" lon="7.815361952530419"><ele>468.8333333333333</ele><time>2026-04-17T15:53:49Z</time></trkpt><trkpt lat="45.09233641748491" lon="7.815423583926754"><ele>471.0</ele><time>2026-04-17T15:53:50Z</time></trkpt><trkpt lat="45.09242350493871" lon="7.815465194252437"><ele>471.20000000000005</ele><time>2026-04-17T15:53:51Z</time></trkpt><trkpt lat="45.09249311873988" lon="7.815520635087274"><ele>471.40000000000003</ele><time>2026-04-17T15:53:52Z</time></trkpt><trkpt lat="45.09256239830898" lon="7.815597743744112"><ele>471.6</ele><time>2026-04-17T15:53:53Z</time></trkpt><trkpt lat="45.092653044630005" lon="7.8156710216899254"><ele>471.8</ele><time>2026-04-17T15:53:54Z</time></trkpt><trkpt lat="45.09274244091832" lon="7.81574215496102"><ele>472.0</ele><time>2026-04-17T15:53:55Z</time></trkpt><trkpt lat="45.092828850044" lon="7.815780348045342"><ele>472.00000000000006</ele><time>2026-04-17T15:53:56Z</time></trkpt><trkpt lat="45.09292124203663" lon="7.815853897305696"><ele>472.0</ele><time>2026-04-17T15:53:57Z</time></trkpt><trkpt lat="45.09299075489297" lon="7.815892406797966"><ele>472.0</ele><time>2026-04-17T15:53:58Z</time></trkpt><trkpt lat="45.09306304271264" lon="7.815929047305495"><ele>472.0</ele><time>2026-04-17T15:53:59Z</time></trkpt><trkpt lat="45.09313949090587" lon="7.815956744424274"><ele>472.00000000000006</ele><time>2026-04-17T15:54:00Z</time></trkpt><trkpt lat="45.09322373423447" lon="7.81597975772595"><ele>472.0</ele><time>2026-04-17T15:54:01Z</time></trkpt><trkpt lat="45.09329308617514" lon="7.815995257294655"><ele>474.6666666666667</ele><time>2026-04-17T15:54:02Z</time></trkpt><trkpt lat="45.093353352229855" lon="7.816026538993043"><ele>477.33333333333337</ele><time>2026-04-17T15:54:03Z</time></trkpt><trkpt lat="45.093426789417464" lon="7.81605022300608"><ele>480.0</ele><time>2026-04-17T15:54:04Z</time></trkpt><trkpt lat="45.093509434557156" lon="7.816035378389249"><ele>482.66666666666663</ele><time>2026-04-17T15:54:05Z</time></trkpt><trkpt lat="45.09359087069407" lon="7.816044743054517"><ele>485.3333333333333</ele><time>2026-04-17T15:54:06Z</time></trkpt><trkpt lat="45.09366285784377" lon="7.816066363782992"><ele>488.0</ele><time>2026-04-17T15:54:07Z</time></trkpt><trkpt lat="45.093737455099344" lon="7.816073250801064"><ele>488.0</ele><time>2026-04-17T15:54:08Z</time></trkpt><trkpt lat="45.09380029344601" lon="7.816130244490574"><ele>487.99999999999994</ele><time>2026-04-17T15:54:09Z</time></trkpt><trkpt lat="45.09385497723889" lon="7.816190875782932"><ele>487.99999999999994</ele><time>2026-04-17T15:54:10Z</time></trkpt><trkpt lat="45.093994227243826" lon="7.816187796095311"><ele>488.0</ele><time>2026-04-17T15:54:12Z</time></trkpt><trkpt lat="45.09406344325585" lon="7.81611980824608"><ele>488.0</ele><time>2026-04-17T15:54:13Z</time></trkpt><trkpt lat="45.09414094536588" lon="7.816012071183764"><ele>486.4</ele><time>2026-04-17T15:54:15Z</time></trkpt><trkpt lat="45.09422065924359" lon="7.81601486599375"><ele>484.79999999999995</ele><time>2026-04-17T15:54:17Z</time></trkpt><trkpt lat="45.09431996153153" lon="7.816123651239454"><ele>483.2</ele><time>2026-04-17T15:54:19Z</time></trkpt><trkpt lat="45.094355741022945" lon="7.8162149852288"><ele>481.6</ele><time>2026-04-17T15:54:20Z</time></trkpt><trkpt lat="45.09439740002725" lon="7.816306643114053"><ele>480.0</ele><time>2026-04-17T15:54:21Z</time></trkpt><trkpt lat="45.09445935306593" lon="7.816405985015543"><ele>480.0</ele><time>2026-04-17T15:54:22Z</time></trkpt><trkpt lat="45.09452856479807" lon="7.816510070764606"><ele>480.0</ele><time>2026-04-17T15:54:23Z</time></trkpt><trkpt lat="45.09458152263591" lon="7.816617549776277"><ele>480.0</ele><time>2026-04-17T15:54:24Z</time></trkpt><trkpt lat="45.094651751043344" lon="7.816706105039407"><ele>480.0</ele><time>2026-04-17T15:54:25Z</time></trkpt><trkpt lat="45.09470549427995" lon="7.8167884834499155"><ele>480.0</ele><time>2026-04-17T15:54:26Z</time></trkpt><trkpt lat="45.09474220307177" lon="7.816870957745618"><ele>480.0</ele><time>2026-04-17T15:54:27Z</time></trkpt><trkpt lat="45.09479449113982" lon="7.816951989452167"><ele>477.6</ele><time>2026-04-17T15:54:28Z</time></trkpt><trkpt lat="45.09486039717757" lon="7.817026009795965"><ele>475.2</ele><time>2026-04-17T15:54:29Z</time></trkpt><trkpt lat="45.09495745351525" lon="7.817160717102726"><ele>472.79999999999995</ele><time>2026-04-17T15:54:31Z</time></trkpt><trkpt lat="45.09503056305174" lon="7.817249066349067"><ele>470.4</ele><time>2026-04-17T15:54:32Z</time></trkpt><trkpt lat="45.09509177465726" lon="7.81732168367076"><ele>468.0</ele><time>2026-04-17T15:54:33Z</time></trkpt><trkpt lat="45.095149842187624" lon="7.817400177011102"><ele>468.0</ele><time>2026-04-17T15:54:34Z</time></trkpt><trkpt lat="45.09522710927956" lon="7.817444531875713"><ele>467.99999999999994</ele><time>2026-04-17T15:54:34.999Z</time></trkpt><trkpt lat="45.095357144835354" lon="7.81743809773394"><ele>467.99999999999994</ele><time>2026-04-17T15:54:36.999Z</time></trkpt><trkpt lat="45.09542975509711" lon="7.817477587594104"><ele>468.0</ele><time>2026-04-17T15:54:37.999Z</time></trkpt><trkpt lat="45.09557444106447" lon="7.817513467834074"><ele>468.0</ele><time>2026-04-17T15:54:39.999Z</time></trkpt><trkpt lat="45.095660769164496" lon="7.817533775650616"><ele>468.0</ele><time>2026-04-17T15:54:40.999Z</time></trkpt><trkpt lat="45.09573409184879" lon="7.817553341975764"><ele>468.0</ele><time>2026-04-17T15:54:41.999Z</time></trkpt><trkpt lat="45.095846652802365" lon="7.817569046652841"><ele>468.0</ele><time>2026-04-17T15:54:44.999Z</time></trkpt><trkpt lat="45.09590854220314" lon="7.817635971611362"><ele>468.0</ele><time>2026-04-17T15:54:45.999Z</time></trkpt><trkpt lat="45.09598521164223" lon="7.817636475524777"><ele>468.0</ele><time>2026-04-17T15:54:47.999Z</time></trkpt><trkpt lat="45.09606309752405" lon="7.817658331267034"><ele>468.0</ele><time>2026-04-17T15:54:48.999Z</time></trkpt><trkpt lat="45.09618873270214" lon="7.817691768851134"><ele>467.6666666666667</ele><time>2026-04-17T15:54:50.999Z</time></trkpt><trkpt lat="45.09627525407751" lon="7.817711818622608"><ele>467.33333333333337</ele><time>2026-04-17T15:54:51.999Z</time></trkpt><trkpt lat="45.09635622962298" lon="7.817729310259267"><ele>467.0</ele><time>2026-04-17T15:54:52.999Z</time></trkpt><trkpt lat="45.09649217154855" lon="7.817754506787061"><ele>466.6666666666667</ele><time>2026-04-17T15:54:54.999Z</time></trkpt><trkpt lat="45.0965551669238" lon="7.81775917369037"><ele>466.33333333333337</ele><time>2026-04-17T15:54:55.999Z</time></trkpt><trkpt lat="45.0966320785008" lon="7.817755498736893"><ele>466.0</ele><time>2026-04-17T15:54:56.999Z</time></trkpt><trkpt lat="45.09671939954399" lon="7.817699820460438"><ele>461.83333333333337</ele><time>2026-04-17T15:54:57.999Z</time></trkpt><trkpt lat="45.0968033516665" lon="7.817639660733379"><ele>457.6666666666667</ele><time>2026-04-17T15:54:58.999Z</time></trkpt><trkpt lat="45.09687594455627" lon="7.817570647647347"><ele>453.5</ele><time>2026-04-17T15:54:59.999Z</time></trkpt><trkpt lat="45.09694056021966" lon="7.817477838086228"><ele>449.33333333333337</ele><time>2026-04-17T15:55:00.999Z</time></trkpt><trkpt lat="45.09700181828016" lon="7.817387863428006"><ele>445.1666666666667</ele><time>2026-04-17T15:55:01.999Z</time></trkpt><trkpt lat="45.097056348041626" lon="7.817311926531105"><ele>441.0</ele><time>2026-04-17T15:55:02.999Z</time></trkpt><trkpt lat="45.09710646008796" lon="7.817251318358415"><ele>441.0</ele><time>2026-04-17T15:55:03.999Z</time></trkpt><trkpt lat="45.097214008310104" lon="7.817189386988176"><ele>441.0</ele><time>2026-04-17T15:55:05.999Z</time></trkpt><trkpt lat="45.097324318064636" lon="7.817202883762536"><ele>441.0</ele><time>2026-04-17T15:55:07.999Z</time></trkpt><trkpt lat="45.09740564764985" lon="7.817241766307021"><ele>441.0</ele><time>2026-04-17T15:55:08.999Z</time></trkpt><trkpt lat="45.09747666988967" lon="7.817288073679149"><ele>441.0</ele><time>2026-04-17T15:55:09.999Z</time></trkpt><trkpt lat="45.09754841535941" lon="7.817340317405549"><ele>441.1666666666667</ele><time>2026-04-17T15:55:10.999Z</time></trkpt><trkpt lat="45.097631756403715" lon="7.817392043274035"><ele>441.33333333333337</ele><time>2026-04-17T15:55:11.999Z</time></trkpt><trkpt lat="45.09771290341678" lon="7.817461895246919"><ele>441.5</ele><time>2026-04-17T15:55:12.999Z</time></trkpt><trkpt lat="45.09777808099533" lon="7.817518888823242"><ele>441.6666666666667</ele><time>2026-04-17T15:55:13.999Z</time></trkpt><trkpt lat="45.09784527217949" lon="7.81758055312172"><ele>441.83333333333337</ele><time>2026-04-17T15:55:14.999Z</time></trkpt><trkpt lat="45.09792369193432" lon="7.8176687868775865"><ele>442.0</ele><time>2026-04-17T15:55:15.999Z</time></trkpt><trkpt lat="45.09800216301265" lon="7.817759062625366"><ele>442.0</ele><time>2026-04-17T15:55:16.999Z</time></trkpt><trkpt lat="45.098060465949146" lon="7.817837962843385"><ele>442.00000000000006</ele><time>2026-04-17T15:55:17.999Z</time></trkpt><trkpt lat="45.09813705409227" lon="7.817917463713972"><ele>442.00000000000006</ele><time>2026-04-17T15:55:18.999Z</time></trkpt><trkpt lat="45.09819872295589" lon="7.817969856045657"><ele>442.0</ele><time>2026-04-17T15:55:19.999Z</time></trkpt><trkpt lat="45.09829198767715" lon="7.818050735963793"><ele>442.0</ele><time>2026-04-17T15:55:21.999Z</time></trkpt><trkpt lat="45.098385777440875" lon="7.818121341894448"><ele>439.20000000000005</ele><time>2026-04-17T15:55:24.999Z</time></trkpt><trkpt lat="45.09843127143274" lon="7.818248656093006"><ele>436.40000000000003</ele><time>2026-04-17T15:55:26.999Z</time></trkpt><trkpt lat="45.098459072890414" lon="7.818431454920438"><ele>433.59999999999997</ele><time>2026-04-17T15:55:28.999Z</time></trkpt><trkpt lat="45.09847371553959" lon="7.818548289296443"><ele>430.79999999999995</ele><time>2026-04-17T15:55:29.999Z</time></trkpt><trkpt lat="45.09849315585901" lon="7.818659161366373"><ele>428.0</ele><time>2026-04-17T15:55:30.999Z</time></trkpt><trkpt lat="45.098529456622074" lon="7.818760584509031"><ele>425.3333333333333</ele><time>2026-04-17T15:55:31.999Z</time></trkpt><trkpt lat="45.09860433670831" lon="7.818834272432043"><ele>422.66666666666663</ele><time>2026-04-17T15:55:32.999Z</time></trkpt><trkpt lat="45.09868802049786" lon="7.8188569379428365"><ele>420.0</ele><time>2026-04-17T15:55:33.999Z</time></trkpt><trkpt lat="45.09874231331108" lon="7.8189181384299165"><ele>417.33333333333337</ele><time>2026-04-17T15:55:34.999Z</time></trkpt><trkpt lat="45.09879223473307" lon="7.818988587967532"><ele>414.6666666666667</ele><time>2026-04-17T15:55:35.999Z</time></trkpt><trkpt lat="45.09883015382202" lon="7.819077890842471"><ele>412.0</ele><time>2026-04-17T15:55:36.999Z</time></trkpt><trkpt lat="45.09886011782538" lon="7.819185712951565"><ele>412.00000000000006</ele><time>2026-04-17T15:55:37.999Z</time></trkpt><trkpt lat="45.09888771937827" lon="7.819295284107599"><ele>412.0</ele><time>2026-04-17T15:55:38.999Z</time></trkpt><trkpt lat="45.098910290884426" lon="7.819402760156788"><ele>412.0</ele><time>2026-04-17T15:55:39.999Z</time></trkpt><trkpt lat="45.09895507402307" lon="7.819481180252462"><ele>412.0</ele><time>2026-04-17T15:55:40.999Z</time></trkpt><trkpt lat="45.09902712543447" lon="7.819581302013562"><ele>412.00000000000006</ele><time>2026-04-17T15:55:42.999Z</time></trkpt><trkpt lat="45.099103829552796" lon="7.81961778945448"><ele>412.0</ele><time>2026-04-17T15:55:45Z</time></trkpt><trkpt lat="45.0991748325126" lon="7.819512698724271"><ele>409.50000000000006</ele><time>2026-04-17T15:55:47Z</time></trkpt><trkpt lat="45.09920701935117" lon="7.819428051415468"><ele>407.0</ele><time>2026-04-17T15:55:48Z</time></trkpt><trkpt lat="45.099216521388776" lon="7.819337099833696"><ele>404.5</ele><time>2026-04-17T15:55:49Z</time></trkpt><trkpt lat="45.09924032861584" lon="7.8191518222527225"><ele>402.0</ele><time>2026-04-17T15:55:51Z</time></trkpt><trkpt lat="45.09925117591176" lon="7.819058624027224"><ele>399.50000000000006</ele><time>2026-04-17T15:55:52Z</time></trkpt><trkpt lat="45.09929056299185" lon="7.818909766887366"><ele>397.0</ele><time>2026-04-17T15:55:54Z</time></trkpt><trkpt lat="45.09936774620323" lon="7.818819964933686"><ele>397.00000000000006</ele><time>2026-04-17T15:55:56Z</time></trkpt><trkpt lat="45.09949233427525" lon="7.818839257247996"><ele>397.0</ele><time>2026-04-17T15:55:58Z</time></trkpt><trkpt lat="45.09956175511197" lon="7.818857587004207"><ele>397.0</ele><time>2026-04-17T15:55:59Z</time></trkpt><trkpt lat="45.0996308447637" lon="7.818875491218118"><ele>397.0</ele><time>2026-04-17T15:56:00Z</time></trkpt><trkpt lat="45.09970055515474" lon="7.818868941953562"><ele>397.00000000000006</ele><time>2026-04-17T15:56:01Z</time></trkpt><trkpt lat="45.09977556191814" lon="7.8188772628571375"><ele>397.0</ele><time>2026-04-17T15:56:02Z</time></trkpt><trkpt lat="45.09984120087505" lon="7.818858822322776"><ele>393.0</ele><time>2026-04-17T15:56:03Z</time></trkpt><trkpt lat="45.09993665112517" lon="7.818835905607176"><ele>389.0</ele><time>2026-04-17T15:56:04Z</time></trkpt><trkpt lat="45.100032776235565" lon="7.818797961548775"><ele>385.0</ele><time>2026-04-17T15:56:05Z</time></trkpt><trkpt lat="45.10011610844783" lon="7.818753571609577"><ele>381.0</ele><time>2026-04-17T15:56:06Z</time></trkpt><trkpt lat="45.10019379964586" lon="7.818698908630411"><ele>377.0</ele><time>2026-04-17T15:56:07Z</time></trkpt><trkpt lat="45.10029890398139" lon="7.8187196396447805"><ele>377.0</ele><time>2026-04-17T15:56:08Z</time></trkpt><trkpt lat="45.10039027022061" lon="7.8187027016011825"><ele>377.0</ele><time>2026-04-17T15:56:09Z</time></trkpt><trkpt lat="45.100492161436605" lon="7.818714266408636"><ele>377.0</ele><time>2026-04-17T15:56:10Z</time></trkpt><trkpt lat="45.10060975678541" lon="7.8186772065701335"><ele>377.0</ele><time>2026-04-17T15:56:12Z</time></trkpt><trkpt lat="45.100606979380906" lon="7.818573490135188"><ele>377.0</ele><time>2026-04-17T15:56:14Z</time></trkpt><trkpt lat="45.10057418433545" lon="7.8183896278261145"><ele>374.33333333333337</ele><time>2026-04-17T15:56:16Z</time></trkpt><trkpt lat="45.100630418315454" lon="7.818278364134657"><ele>371.6666666666667</ele><time>2026-04-17T15:56:17Z</time></trkpt><trkpt lat="45.10066453058809" lon="7.818170028501258"><ele>369.0</ele><time>2026-04-17T15:56:18Z</time></trkpt><trkpt lat="45.10071134883753" lon="7.8180943521325865"><ele>366.3333333333333</ele><time>2026-04-17T15:56:19Z</time></trkpt><trkpt lat="45.10075804645836" lon="7.817988931612469"><ele>363.66666666666663</ele><time>2026-04-17T15:56:20Z</time></trkpt><trkpt lat="45.10079862640813" lon="7.817870103361997"><ele>361.0</ele><time>2026-04-17T15:56:21Z</time></trkpt><trkpt lat="45.10083121242567" lon="7.817740803149147"><ele>361.0</ele><time>2026-04-17T15:56:22Z</time></trkpt><trkpt lat="45.100909651829674" lon="7.817655544619865"><ele>361.0</ele><time>2026-04-17T15:56:23Z</time></trkpt><trkpt lat="45.10095943103431" lon="7.817561441060445"><ele>361.0</ele><time>2026-04-17T15:56:24Z</time></trkpt><trkpt lat="45.101024251444734" lon="7.817484413390472"><ele>361.0</ele><time>2026-04-17T15:56:25Z</time></trkpt><trkpt lat="45.101134575495585" lon="7.8174355381186125"><ele>361.0</ele><time>2026-04-17T15:56:27Z</time></trkpt><trkpt lat="45.101235070874786" lon="7.817407462875525"><ele>363.6</ele><time>2026-04-17T15:56:29Z</time></trkpt><trkpt lat="45.10130642073686" lon="7.817404404823213"><ele>366.20000000000005</ele><time>2026-04-17T15:56:31Z</time></trkpt><trkpt lat="45.101414615404806" lon="7.817449441290846"><ele>368.79999999999995</ele><time>2026-04-17T15:56:33Z</time></trkpt><trkpt lat="45.10152569444676" lon="7.817425714167706"><ele>371.4</ele><time>2026-04-17T15:56:35Z</time></trkpt><trkpt lat="45.1016417817467" lon="7.8174770842158"><ele>374.0</ele><time>2026-04-17T15:56:37Z</time></trkpt><trkpt lat="45.10174812217227" lon="7.817548665939054"><ele>366.79999999999995</ele><time>2026-04-17T15:56:39Z</time></trkpt><trkpt lat="45.101837222885024" lon="7.817642449281265"><ele>359.59999999999997</ele><time>2026-04-17T15:56:40.999Z</time></trkpt><trkpt lat="45.101958338892054" lon="7.817647485687407"><ele>352.4</ele><time>2026-04-17T15:56:42.999Z</time></trkpt><trkpt lat="45.102055646432305" lon="7.817573938487615"><ele>345.2</ele><time>2026-04-17T15:56:43.999Z</time></trkpt><trkpt lat="45.10212055972419" lon="7.817517986180134"><ele>338.0</ele><time>2026-04-17T15:56:44.999Z</time></trkpt><trkpt lat="45.10217693662315" lon="7.817461667154522"><ele>338.0</ele><time>2026-04-17T15:56:45.999Z</time></trkpt><trkpt lat="45.10223217772358" lon="7.817380225704838"><ele>338.0</ele><time>2026-04-17T15:56:46.999Z</time></trkpt><trkpt lat="45.10225897843459" lon="7.817292084499151"><ele>338.0</ele><time>2026-04-17T15:56:47.999Z</time></trkpt><trkpt lat="45.102256305936294" lon="7.817179879468195"><ele>338.0</ele><time>2026-04-17T15:56:48.999Z</time></trkpt><trkpt lat="45.10222497303925" lon="7.817086512099999"><ele>338.0</ele><time>2026-04-17T15:56:49.999Z</time></trkpt><trkpt lat="45.10216862510013" lon="7.816996868041135"><ele>338.0</ele><time>2026-04-17T15:56:50.999Z</time></trkpt><trkpt lat="45.10207639328607" lon="7.816886698716715"><ele>338.1666666666667</ele><time>2026-04-17T15:56:52.999Z</time></trkpt><trkpt lat="45.10209586836465" lon="7.816792714610353"><ele>338.33333333333337</ele><time>2026-04-17T15:56:54.999Z</time></trkpt><trkpt lat="45.10213632621786" lon="7.816683892015745"><ele>338.5</ele><time>2026-04-17T15:56:55.999Z</time></trkpt><trkpt lat="45.102205980386564" lon="7.81662525045857"><ele>338.6666666666667</ele><time>2026-04-17T15:56:56.999Z</time></trkpt><trkpt lat="45.10227333914295" lon="7.8165304348965945"><ele>338.8333333333333</ele><time>2026-04-17T15:56:57.999Z</time></trkpt><trkpt lat="45.10235208368224" lon="7.816458546891183"><ele>339.0</ele><time>2026-04-17T15:56:58.999Z</time></trkpt><trkpt lat="45.10243939621293" lon="7.816383356948851"><ele>334.8333333333333</ele><time>2026-04-17T15:56:59.999Z</time></trkpt><trkpt lat="45.102518586651584" lon="7.81633733309113"><ele>330.6666666666667</ele><time>2026-04-17T15:57:00.999Z</time></trkpt><trkpt lat="45.10260512411879" lon="7.816344651716929"><ele>326.5</ele><time>2026-04-17T15:57:01.999Z</time></trkpt><trkpt lat="45.1026906630789" lon="7.816356148081935"><ele>322.33333333333337</ele><time>2026-04-17T15:57:02.999Z</time></trkpt><trkpt lat="45.10278558170556" lon="7.816361388591032"><ele>318.1666666666667</ele><time>2026-04-17T15:57:03.999Z</time></trkpt><trkpt lat="45.10287809628473" lon="7.816340064067731"><ele>314.0</ele><time>2026-04-17T15:57:04.999Z</time></trkpt><trkpt lat="45.10296300186047" lon="7.816324731786441"><ele>314.0</ele><time>2026-04-17T15:57:05.999Z</time></trkpt><trkpt lat="45.103040753531694" lon="7.816314053685019"><ele>314.0</ele><time>2026-04-17T15:57:06.999Z</time></trkpt><trkpt lat="45.10312964453212" lon="7.816280138210215"><ele>314.0</ele><time>2026-04-17T15:57:07.999Z</time></trkpt><trkpt lat="45.10322993612829" lon="7.816240930732187"><ele>314.0</ele><time>2026-04-17T15:57:08.999Z</time></trkpt><trkpt lat="45.10333015682611" lon="7.816202755825251"><ele>314.0</ele><time>2026-04-17T15:57:09.999Z</time></trkpt><trkpt lat="45.10343252476954" lon="7.816168738144626"><ele>311.2</ele><time>2026-04-17T15:57:10.999Z</time></trkpt><trkpt lat="45.10353476515819" lon="7.8161435390723994"><ele>308.4</ele><time>2026-04-17T15:57:11.999Z</time></trkpt><trkpt lat="45.10363692519355" lon="7.816127070506744"><ele>305.6</ele><time>2026-04-17T15:57:12.999Z</time></trkpt><trkpt lat="45.103741041058605" lon="7.816107721771458"><ele>302.8</ele><time>2026-04-17T15:57:13.999Z</time></trkpt><trkpt lat="45.10384477031824" lon="7.816080596110511"><ele>300.0</ele><time>2026-04-17T15:57:14.999Z</time></trkpt><trkpt lat="45.10394397443727" lon="7.816049614325363"><ele>300.0</ele><time>2026-04-17T15:57:15.999Z</time></trkpt><trkpt lat="45.10403057714748" lon="7.816020934654615"><ele>300.0</ele><time>2026-04-17T15:57:16.999Z</time></trkpt><trkpt lat="45.10409877650438" lon="7.816001242950859"><ele>300.0</ele><time>2026-04-17T15:57:17.999Z</time></trkpt><trkpt lat="45.104181628084234" lon="7.816010570930267"><ele>300.0</ele><time>2026-04-17T15:57:19.999Z</time></trkpt><trkpt lat="45.10422065376825" lon="7.816138375005787"><ele>300.0</ele><time>2026-04-17T15:57:22.999Z</time></trkpt><trkpt lat="45.10420276323496" lon="7.816228823601206"><ele>300.0</ele><time>2026-04-17T15:57:23.999Z</time></trkpt><trkpt lat="45.104196417615846" lon="7.816337083720317"><ele>298.1666666666667</ele><time>2026-04-17T15:57:24.999Z</time></trkpt><trkpt lat="45.104205462871114" lon="7.816449297681886"><ele>296.3333333333333</ele><time>2026-04-17T15:57:25.999Z</time></trkpt><trkpt lat="45.10421757066603" lon="7.81657279334614"><ele>294.5</ele><time>2026-04-17T15:57:26.999Z</time></trkpt><trkpt lat="45.10422891496911" lon="7.816684164653659"><ele>292.66666666666663</ele><time>2026-04-17T15:57:27.999Z</time></trkpt><trkpt lat="45.10424444798206" lon="7.816788256882079"><ele>290.8333333333333</ele><time>2026-04-17T15:57:28.999Z</time></trkpt><trkpt lat="45.10426888727648" lon="7.816926831616346"><ele>289.0</ele><time>2026-04-17T15:57:30.999Z</time></trkpt><trkpt lat="45.10431091769467" lon="7.817007577725353"><ele>287.2</ele><time>2026-04-17T15:57:32.999Z</time></trkpt><trkpt lat="45.10441947790667" lon="7.817052510855113"><ele>285.4</ele><time>2026-04-17T15:57:35.999Z</time></trkpt><trkpt lat="45.10449655337479" lon="7.817007068458705"><ele>283.6</ele><time>2026-04-17T15:57:36.999Z</time></trkpt><trkpt lat="45.10461663048994" lon="7.816981957175826"><ele>281.8</ele><time>2026-04-17T15:57:38.999Z</time></trkpt><trkpt lat="45.1046786739477" lon="7.816999736619995"><ele>280.0</ele><time>2026-04-17T15:57:39.999Z</time></trkpt><trkpt lat="45.10478588710249" lon="7.817020104937565"><ele>280.0</ele><time>2026-04-17T15:57:41.999Z</time></trkpt><trkpt lat="45.104894815122734" lon="7.81699164112708"><ele>280.0</ele><time>2026-04-17T15:57:43.999Z</time></trkpt><trkpt lat="45.104964141673115" lon="7.816917362199861"><ele>280.0</ele><time>2026-04-17T15:57:44.999Z</time></trkpt><trkpt lat="45.105034898404256" lon="7.816843686085696"><ele>280.0</ele><time>2026-04-17T15:57:45.999Z</time></trkpt><trkpt lat="45.10508994776039" lon="7.816751032528194"><ele>280.0</ele><time>2026-04-17T15:57:46.999Z</time></trkpt><trkpt lat="45.10515903487821" lon="7.816686609430961"><ele>279.0</ele><time>2026-04-17T15:57:47.999Z</time></trkpt><trkpt lat="45.1052260590151" lon="7.81661874311122"><ele>278.0</ele><time>2026-04-17T15:57:48.999Z</time></trkpt><trkpt lat="45.10529593460703" lon="7.816549779159273"><ele>277.0</ele><time>2026-04-17T15:57:50Z</time></trkpt><trkpt lat="45.10537198735621" lon="7.816493261099419"><ele>276.0</ele><time>2026-04-17T15:57:51Z</time></trkpt><trkpt lat="45.10546208118159" lon="7.8164502704408365"><ele>275.0</ele><time>2026-04-17T15:57:52Z</time></trkpt><trkpt lat="45.10556815539109" lon="7.816393338276168"><ele>275.0</ele><time>2026-04-17T15:57:53Z</time></trkpt><trkpt lat="45.105681424623505" lon="7.816311375958323"><ele>275.0</ele><time>2026-04-17T15:57:54Z</time></trkpt><trkpt lat="45.10579431087433" lon="7.81620610118762"><ele>275.0</ele><time>2026-04-17T15:57:55Z</time></trkpt><trkpt lat="45.105717627781544" lon="7.816180749059814"><ele>275.0</ele><time>2026-04-17T15:57:56Z</time></trkpt><trkpt lat="45.10573973133146" lon="7.816082665850973"><ele>275.0</ele><time>2026-04-17T15:57:57Z</time></trkpt><trkpt lat="45.10576891411423" lon="7.815996428464764"><ele>272.83333333333337</ele><time>2026-04-17T15:57:58Z</time></trkpt><trkpt lat="45.10577936776634" lon="7.815859990728223"><ele>270.6666666666667</ele><time>2026-04-17T15:57:59Z</time></trkpt><trkpt lat="45.10581229136552" lon="7.815768384206532"><ele>268.5</ele><time>2026-04-17T15:58:00Z</time></trkpt><trkpt lat="45.10586606421301" lon="7.8156680845931055"><ele>266.3333333333333</ele><time>2026-04-17T15:58:02Z</time></trkpt><trkpt lat="45.10595979489044" lon="7.815631822906536"><ele>264.16666666666663</ele><time>2026-04-17T15:58:05Z</time></trkpt><trkpt lat="45.10602647158174" lon="7.815613945395076"><ele>262.0</ele><time>2026-04-17T15:58:06Z</time></trkpt><trkpt lat="45.10611007322292" lon="7.815623607277185"><ele>262.0</ele><time>2026-04-17T15:58:07Z</time></trkpt><trkpt lat="45.10620913489859" lon="7.815662247994034"><ele>262.0</ele><time>2026-04-17T15:58:08Z</time></trkpt><trkpt lat="45.1063286720437" lon="7.815710115725944"><ele>262.0</ele><time>2026-04-17T15:58:09Z</time></trkpt><trkpt lat="45.10644422793021" lon="7.815753906810296"><ele>262.0</ele><time>2026-04-17T15:58:10Z</time></trkpt><trkpt lat="45.106554674251825" lon="7.815783975940556"><ele>261.0</ele><time>2026-04-17T15:58:11Z</time></trkpt><trkpt lat="45.106665275291505" lon="7.815775342534091"><ele>260.0</ele><time>2026-04-17T15:58:12Z</time></trkpt><trkpt lat="45.10676030447605" lon="7.815798103424794"><ele>259.0</ele><time>2026-04-17T15:58:13Z</time></trkpt><trkpt lat="45.10685220932107" lon="7.815827426266099"><ele>258.0</ele><time>2026-04-17T15:58:14Z</time></trkpt><trkpt lat="45.10693006879206" lon="7.815899254742549"><ele>257.0</ele><time>2026-04-17T15:58:15Z</time></trkpt><trkpt lat="45.10702255291916" lon="7.815964971121415"><ele>256.4</ele><time>2026-04-17T15:58:16Z</time></trkpt><trkpt lat="45.10712940392204" lon="7.816039527779423"><ele>255.79999999999998</ele><time>2026-04-17T15:58:17Z</time></trkpt><trkpt lat="45.10722366746239" lon="7.81610196188986"><ele>255.2</ele><time>2026-04-17T15:58:18Z</time></trkpt><trkpt lat="45.10731034890497" lon="7.816159172510098"><ele>254.6</ele><time>2026-04-17T15:58:19Z</time></trkpt><trkpt lat="45.1073885575021" lon="7.816211306511666"><ele>254.0</ele><time>2026-04-17T15:58:20Z</time></trkpt><trkpt lat="45.10747649417433" lon="7.816248108945604"><ele>253.16666666666669</ele><time>2026-04-17T15:58:21Z</time></trkpt><trkpt lat="45.10754802970944" lon="7.816306428004054"><ele>252.33333333333334</ele><time>2026-04-17T15:58:22Z</time></trkpt><trkpt lat="45.10761437999109" lon="7.816351488153182"><ele>251.5</ele><time>2026-04-17T15:58:23Z</time></trkpt><trkpt lat="45.10767448021996" lon="7.816398687293857"><ele>250.66666666666669</ele><time>2026-04-17T15:58:24Z</time></trkpt><trkpt lat="45.107759664898055" lon="7.816460277550795"><ele>249.83333333333334</ele><time>2026-04-17T15:58:26Z</time></trkpt><trkpt lat="45.1077250449667" lon="7.81662050334799"><ele>249.0</ele><time>2026-04-17T15:58:31Z</time></trkpt><trkpt lat="45.10766745542494" lon="7.816705786185744"><ele>249.0</ele><time>2026-04-17T15:58:32Z</time></trkpt><trkpt lat="45.10761048794266" lon="7.816761219331256"><ele>249.0</ele><time>2026-04-17T15:58:33Z</time></trkpt><trkpt lat="45.10751113003715" lon="7.8168806997488876"><ele>249.0</ele><time>2026-04-17T15:58:34Z</time></trkpt><trkpt lat="45.10741401568502" lon="7.816994508255934"><ele>249.0</ele><time>2026-04-17T15:58:35Z</time></trkpt><trkpt lat="45.10731630619734" lon="7.817122003621636"><ele>250.66666666666669</ele><time>2026-04-17T15:58:36Z</time></trkpt><trkpt lat="45.1072101359716" lon="7.8172638813708035"><ele>252.33333333333334</ele><time>2026-04-17T15:58:37Z</time></trkpt><trkpt lat="45.10708680368335" lon="7.8174026370856895"><ele>254.0</ele><time>2026-04-17T15:58:38Z</time></trkpt><trkpt lat="45.106948370506046" lon="7.817547455544313"><ele>255.66666666666669</ele><time>2026-04-17T15:58:39Z</time></trkpt><trkpt lat="45.10681306007641" lon="7.8176900882588125"><ele>257.3333333333333</ele><time>2026-04-17T15:58:40Z</time></trkpt><trkpt lat="45.1066817707678" lon="7.817848991777953"><ele>259.0</ele><time>2026-04-17T15:58:41Z</time></trkpt><trkpt lat="45.106558915281305" lon="7.817973410164215"><ele>259.0</ele><time>2026-04-17T15:58:42Z</time></trkpt><trkpt lat="45.106420498593224" lon="7.818068065973636"><ele>259.0</ele><time>2026-04-17T15:58:43Z</time></trkpt><trkpt lat="45.106283195661774" lon="7.8181555786252614"><ele>259.0</ele><time>2026-04-17T15:58:44Z</time></trkpt><trkpt lat="45.10613715751091" lon="7.8182108882699355"><ele>259.0</ele><time>2026-04-17T15:58:45Z</time></trkpt><trkpt lat="45.106034493353576" lon="7.818293252481644"><ele>259.0</ele><time>2026-04-17T15:58:46Z</time></trkpt><trkpt lat="45.10593726428286" lon="7.818417901169401"><ele>259.0</ele><time>2026-04-17T15:58:47Z</time></trkpt><trkpt lat="45.10582806145115" lon="7.81856064074291"><ele>259.0</ele><time>2026-04-17T15:58:48Z</time></trkpt><trkpt lat="45.105771705140526" lon="7.8187538553473335"><ele>259.25</ele><time>2026-04-17T15:58:49Z</time></trkpt><trkpt lat="45.10569954066056" lon="7.8189211204437665"><ele>259.5</ele><time>2026-04-17T15:58:50Z</time></trkpt><trkpt lat="45.10564788293689" lon="7.819066307030663"><ele>259.75</ele><time>2026-04-17T15:58:51Z</time></trkpt><trkpt lat="45.10559366680193" lon="7.8191934698570655"><ele>260.0</ele><time>2026-04-17T15:58:52Z</time></trkpt><trkpt lat="45.10554625515006" lon="7.8193121739326426"><ele>261.0</ele><time>2026-04-17T15:58:53Z</time></trkpt><trkpt lat="45.105495879719264" lon="7.819402770325079"><ele>262.0</ele><time>2026-04-17T15:58:54Z</time></trkpt><trkpt lat="45.10549070719283" lon="7.819526061653628"><ele>263.0</ele><time>2026-04-17T15:58:55Z</time></trkpt><trkpt lat="45.10546185689236" lon="7.819647250624816"><ele>264.0</ele><time>2026-04-17T15:58:56Z</time></trkpt><trkpt lat="45.10540307640185" lon="7.8197646426102"><ele>265.0</ele><time>2026-04-17T15:58:57Z</time></trkpt><trkpt lat="45.10536017678179" lon="7.819872387222567"><ele>266.0</ele><time>2026-04-17T15:58:58Z</time></trkpt><trkpt lat="45.10534710724191" lon="7.8199713990153334"><ele>266.0</ele><time>2026-04-17T15:58:59Z</time></trkpt><trkpt lat="45.105320650838735" lon="7.82005437497184"><ele>266.0</ele><time>2026-04-17T15:59:00Z</time></trkpt><trkpt lat="45.10528245844736" lon="7.820209426130237"><ele>266.0</ele><time>2026-04-17T15:59:02Z</time></trkpt><trkpt lat="45.10532001821952" lon="7.820359215141277"><ele>266.0</ele><time>2026-04-17T15:59:03.999Z</time></trkpt><trkpt lat="45.10536374248848" lon="7.82046400930525"><ele>266.0</ele><time>2026-04-17T15:59:04.999Z</time></trkpt><trkpt lat="45.105410056882384" lon="7.8205657878217245"><ele>268.6</ele><time>2026-04-17T15:59:05.999Z</time></trkpt><trkpt lat="45.10545333182659" lon="7.82069900502479"><ele>271.20000000000005</ele><time>2026-04-17T15:59:06.999Z</time></trkpt><trkpt lat="45.105507532940514" lon="7.820820026862522"><ele>273.79999999999995</ele><time>2026-04-17T15:59:07.999Z</time></trkpt><trkpt lat="45.10553862483048" lon="7.820930843554014"><ele>276.4</ele><time>2026-04-17T15:59:08.999Z</time></trkpt><trkpt lat="45.10555325911706" lon="7.821050310815705"><ele>279.0</ele><time>2026-04-17T15:59:09.999Z</time></trkpt><trkpt lat="45.10556942768539" lon="7.821187539499385"><ele>280.6666666666667</ele><time>2026-04-17T15:59:10.999Z</time></trkpt><trkpt lat="45.10561265993301" lon="7.821325831822117"><ele>282.3333333333333</ele><time>2026-04-17T15:59:11.999Z</time></trkpt><trkpt lat="45.105667749128045" lon="7.821447291321006"><ele>284.0</ele><time>2026-04-17T15:59:12.999Z</time></trkpt><trkpt lat="45.105709392043075" lon="7.821548625627751"><ele>285.66666666666663</ele><time>2026-04-17T15:59:13.999Z</time></trkpt><trkpt lat="45.105767191911106" lon="7.821606356662484"><ele>287.3333333333333</ele><time>2026-04-17T15:59:14.999Z</time></trkpt><trkpt lat="45.105820350924986" lon="7.821669221513557"><ele>289.0</ele><time>2026-04-17T15:59:15.999Z</time></trkpt><trkpt lat="45.10583813267892" lon="7.821832508060704"><ele>291.0</ele><time>2026-04-17T15:59:17.999Z</time></trkpt><trkpt lat="45.1057952112048" lon="7.821905875863196"><ele>293.0</ele><time>2026-04-17T15:59:18.999Z</time></trkpt><trkpt lat="45.10573457043755" lon="7.8219517692690355"><ele>295.0</ele><time>2026-04-17T15:59:19.999Z</time></trkpt><trkpt lat="45.10563420439205" lon="7.821911853882393"><ele>297.0</ele><time>2026-04-17T15:59:20.999Z</time></trkpt><trkpt lat="45.10554561159946" lon="7.821934587181921"><ele>299.0</ele><time>2026-04-17T15:59:21.999Z</time></trkpt><trkpt lat="45.105451980141105" lon="7.821944057160753"><ele>301.0</ele><time>2026-04-17T15:59:22.999Z</time></trkpt><trkpt lat="45.105375264768234" lon="7.821973380066465"><ele>301.0</ele><time>2026-04-17T15:59:23.999Z</time></trkpt><trkpt lat="45.10530949321294" lon="7.822089746058127"><ele>301.0</ele><time>2026-04-17T15:59:25.999Z</time></trkpt><trkpt lat="45.10529054894111" lon="7.822214876625507"><ele>301.0</ele><time>2026-04-17T15:59:26.999Z</time></trkpt><trkpt lat="45.10526831236536" lon="7.822355500855067"><ele>301.0</ele><time>2026-04-17T15:59:27.999Z</time></trkpt><trkpt lat="45.10525927961144" lon="7.822499480340939"><ele>301.0</ele><time>2026-04-17T15:59:28.999Z</time></trkpt><trkpt lat="45.105238023210475" lon="7.822643898452977"><ele>302.2</ele><time>2026-04-17T15:59:29.999Z</time></trkpt><trkpt lat="45.10521712315022" lon="7.822782788450031"><ele>303.40000000000003</ele><time>2026-04-17T15:59:30.999Z</time></trkpt><trkpt lat="45.105208173104025" lon="7.822930999506106"><ele>304.6</ele><time>2026-04-17T15:59:31.999Z</time></trkpt><trkpt lat="45.105213525561965" lon="7.82309261846034"><ele>305.8</ele><time>2026-04-17T15:59:32.999Z</time></trkpt><trkpt lat="45.10522688788434" lon="7.823249901268705"><ele>307.0</ele><time>2026-04-17T15:59:33.999Z</time></trkpt><trkpt lat="45.10524885544741" lon="7.82337752969693"><ele>307.5</ele><time>2026-04-17T15:59:34.999Z</time></trkpt><trkpt lat="45.105284510469204" lon="7.82350295300112"><ele>308.0</ele><time>2026-04-17T15:59:35.999Z</time></trkpt><trkpt lat="45.10534307143917" lon="7.82363560257425"><ele>308.5</ele><time>2026-04-17T15:59:36.999Z</time></trkpt><trkpt lat="45.10541476967429" lon="7.823790111809124"><ele>309.0</ele><time>2026-04-17T15:59:37.999Z</time></trkpt><trkpt lat="45.10548029883422" lon="7.823938210711461"><ele>309.0</ele><time>2026-04-17T15:59:38.999Z</time></trkpt><trkpt lat="45.10556517639654" lon="7.824068552346448"><ele>309.0</ele><time>2026-04-17T15:59:39.999Z</time></trkpt><trkpt lat="45.10563567366088" lon="7.824188355170631"><ele>309.0</ele><time>2026-04-17T15:59:40.999Z</time></trkpt><trkpt lat="45.10569536233253" lon="7.824278012561642"><ele>309.0</ele><time>2026-04-17T15:59:41.999Z</time></trkpt><trkpt lat="45.10575855542755" lon="7.824367091532682"><ele>309.0</ele><time>2026-04-17T15:59:42.999Z</time></trkpt><trkpt lat="45.10582497825955" lon="7.824443327110617"><ele>311.0</ele><time>2026-04-17T15:59:43.999Z</time></trkpt><trkpt lat="45.105915111202066" lon="7.824487984208869"><ele>313.0</ele><time>2026-04-17T15:59:44.999Z</time></trkpt><trkpt lat="45.10601160370872" lon="7.8245181328591125"><ele>315.0</ele><time>2026-04-17T15:59:45.999Z</time></trkpt><trkpt lat="45.106075575856785" lon="7.824611202100235"><ele>317.0</ele><time>2026-04-17T15:59:46.999Z</time></trkpt><trkpt lat="45.106127481352026" lon="7.824717788270214"><ele>319.0</ele><time>2026-04-17T15:59:47.999Z</time></trkpt><trkpt lat="45.10618157613835" lon="7.824841803686262"><ele>319.0</ele><time>2026-04-17T15:59:48.999Z</time></trkpt><trkpt lat="45.106254926225176" lon="7.825004863479638"><ele>319.0</ele><time>2026-04-17T15:59:49.999Z</time></trkpt><trkpt lat="45.106314974763414" lon="7.825209599018709"><ele>319.0</ele><time>2026-04-17T15:59:50.999Z</time></trkpt><trkpt lat="45.10634836479324" lon="7.825390923085423"><ele>319.0</ele><time>2026-04-17T15:59:51.999Z</time></trkpt><trkpt lat="45.10638584675029" lon="7.825544190592629"><ele>320.25</ele><time>2026-04-17T15:59:52.999Z</time></trkpt><trkpt lat="45.106400081693195" lon="7.825681545096418"><ele>321.5</ele><time>2026-04-17T15:59:53.999Z</time></trkpt><trkpt lat="45.106413772070454" lon="7.825839115383717"><ele>322.75</ele><time>2026-04-17T15:59:54.999Z</time></trkpt><trkpt lat="45.1064107690954" lon="7.8260208315076465"><ele>324.0</ele><time>2026-04-17T15:59:56Z</time></trkpt><trkpt lat="45.10641977299404" lon="7.826202224069863"><ele>324.2</ele><time>2026-04-17T15:59:57Z</time></trkpt><trkpt lat="45.10643190161514" lon="7.82635611503583"><ele>324.4</ele><time>2026-04-17T15:59:58Z</time></trkpt><trkpt lat="45.10644842342434" lon="7.82646319127349"><ele>324.6</ele><time>2026-04-17T15:59:59Z</time></trkpt><trkpt lat="45.10653834982858" lon="7.826593307321522"><ele>324.8</ele><time>2026-04-17T16:00:01Z</time></trkpt><trkpt lat="45.106648854459394" lon="7.826575866182356"><ele>325.0</ele><time>2026-04-17T16:00:02Z</time></trkpt><trkpt lat="45.10671909812526" lon="7.826629525686531"><ele>328.5</ele><time>2026-04-17T16:00:03Z</time></trkpt><trkpt lat="45.10678101035181" lon="7.826703775343582"><ele>332.0</ele><time>2026-04-17T16:00:04Z</time></trkpt><trkpt lat="45.106812285370474" lon="7.826884702811221"><ele>335.5</ele><time>2026-04-17T16:00:05Z</time></trkpt><trkpt lat="45.106888537183885" lon="7.827068998222687"><ele>339.0</ele><time>2026-04-17T16:00:06Z</time></trkpt><trkpt lat="45.10696982953442" lon="7.82726073746609"><ele>341.6666666666667</ele><time>2026-04-17T16:00:07Z</time></trkpt><trkpt lat="45.10705354401461" lon="7.827459362236656"><ele>344.33333333333337</ele><time>2026-04-17T16:00:08Z</time></trkpt><trkpt lat="45.10714794724777" lon="7.827662702196492"><ele>347.0</ele><time>2026-04-17T16:00:09Z</time></trkpt><trkpt lat="45.10725070636929" lon="7.827832901205209"><ele>349.20000000000005</ele><time>2026-04-17T16:00:10Z</time></trkpt><trkpt lat="45.10731897015881" lon="7.827974939024511"><ele>351.4</ele><time>2026-04-17T16:00:11Z</time></trkpt><trkpt lat="45.10737525550962" lon="7.828079705213689"><ele>353.6</ele><time>2026-04-17T16:00:12Z</time></trkpt><trkpt lat="45.10742676213141" lon="7.828214658283028"><ele>355.79999999999995</ele><time>2026-04-17T16:00:13Z</time></trkpt><trkpt lat="45.10746466716208" lon="7.828310945789289"><ele>358.0</ele><time>2026-04-17T16:00:14Z</time></trkpt><trkpt lat="45.10750809334816" lon="7.828453625341525"><ele>358.66666666666663</ele><time>2026-04-17T16:00:16Z</time></trkpt><trkpt lat="45.10763324359662" lon="7.828437353917761"><ele>359.3333333333333</ele><time>2026-04-17T16:00:23Z</time></trkpt><trkpt lat="45.10767200759005" lon="7.8283543848116945"><ele>360.0</ele><time>2026-04-17T16:00:24Z</time></trkpt><trkpt lat="45.10772357868526" lon="7.828285099008174"><ele>360.6666666666667</ele><time>2026-04-17T16:00:26Z</time></trkpt><trkpt lat="45.107774201781275" lon="7.828171990271487"><ele>361.33333333333337</ele><time>2026-04-17T16:00:41Z</time></trkpt><trkpt lat="45.107810402937396" lon="7.82809536028588"><ele>362.0</ele><time>2026-04-17T16:00:42Z</time></trkpt><trkpt lat="45.10788981994795" lon="7.828006086929505"><ele>362.0</ele><time>2026-04-17T16:00:44Z</time></trkpt><trkpt lat="45.10798900102747" lon="7.82789524654657"><ele>362.0</ele><time>2026-04-17T16:00:46Z</time></trkpt><trkpt lat="45.10804431734124" lon="7.827836807126216"><ele>362.0</ele><time>2026-04-17T16:00:47Z</time></trkpt><trkpt lat="45.10811318665287" lon="7.827809374278563"><ele>362.0</ele><time>2026-04-17T16:00:48Z</time></trkpt><trkpt lat="45.1081939109853" lon="7.827785256572853"><ele>362.0</ele><time>2026-04-17T16:00:49Z</time></trkpt><trkpt lat="45.1082764250689" lon="7.827777259701681"><ele>362.0</ele><time>2026-04-17T16:00:50Z</time></trkpt><trkpt lat="45.10835480233341" lon="7.827771449764051"><ele>361.20000000000005</ele><time>2026-04-17T16:00:51Z</time></trkpt><trkpt lat="45.10850335439615" lon="7.827785579818594"><ele>360.4</ele><time>2026-04-17T16:00:53Z</time></trkpt><trkpt lat="45.10859536185747" lon="7.827775264123498"><ele>359.6</ele><time>2026-04-17T16:00:54Z</time></trkpt><trkpt lat="45.10867408116098" lon="7.827760084465742"><ele>358.79999999999995</ele><time>2026-04-17T16:00:55Z</time></trkpt><trkpt lat="45.10877181910318" lon="7.827734113087846"><ele>358.0</ele><time>2026-04-17T16:00:57Z</time></trkpt><trkpt lat="45.108857617222895" lon="7.827646541354624"><ele>360.79999999999995</ele><time>2026-04-17T16:00:58.999Z</time></trkpt><trkpt lat="45.10888460390424" lon="7.82746699616649"><ele>363.6</ele><time>2026-04-17T16:01:00.999Z</time></trkpt><trkpt lat="45.108866019026074" lon="7.827369458534622"><ele>366.4</ele><time>2026-04-17T16:01:02.999Z</time></trkpt><trkpt lat="45.10884907638017" lon="7.827202112873788"><ele>369.20000000000005</ele><time>2026-04-17T16:01:04.999Z</time></trkpt><trkpt lat="45.108841902317415" lon="7.827100251314082"><ele>372.0</ele><time>2026-04-17T16:01:05.999Z</time></trkpt><trkpt lat="45.10884293213344" lon="7.826913955035676"><ele>371.20000000000005</ele><time>2026-04-17T16:01:07.999Z</time></trkpt><trkpt lat="45.108901507842795" lon="7.826779992065286"><ele>370.4</ele><time>2026-04-17T16:01:09.999Z</time></trkpt><trkpt lat="45.10893933794756" lon="7.82669471274018"><ele>369.6</ele><time>2026-04-17T16:01:11.999Z</time></trkpt><trkpt lat="45.109018946259354" lon="7.826706511713569"><ele>368.79999999999995</ele><time>2026-04-17T16:01:13.999Z</time></trkpt><trkpt lat="45.10910026200286" lon="7.82682155431536"><ele>368.0</ele><time>2026-04-17T16:01:15.999Z</time></trkpt><trkpt lat="45.10919914052851" lon="7.82686078966667"><ele>368.0</ele><time>2026-04-17T16:01:17.999Z</time></trkpt><trkpt lat="45.10927664588797" lon="7.826875596677372"><ele>368.0</ele><time>2026-04-17T16:01:18.999Z</time></trkpt><trkpt lat="45.1093589566742" lon="7.826834228225542"><ele>368.0</ele><time>2026-04-17T16:01:19.999Z</time></trkpt><trkpt lat="45.1095108949462" lon="7.826837690337467"><ele>368.0</ele><time>2026-04-17T16:01:21.999Z</time></trkpt><trkpt lat="45.10958309486201" lon="7.826873891494981"><ele>368.0</ele><time>2026-04-17T16:01:22.999Z</time></trkpt><trkpt lat="45.10966728768005" lon="7.82691555495472"><ele>368.0</ele><time>2026-04-17T16:01:23.999Z</time></trkpt><trkpt lat="45.10975958793764" lon="7.826959700415205"><ele>368.0</ele><time>2026-04-17T16:01:24.999Z</time></trkpt><trkpt lat="45.109844608213464" lon="7.827000363981661"><ele>368.0</ele><time>2026-04-17T16:01:25.999Z</time></trkpt><trkpt lat="45.10992387657242" lon="7.8270170250599325"><ele>368.0</ele><time>2026-04-17T16:01:26.999Z</time></trkpt><trkpt lat="45.10999378220502" lon="7.827080606168346"><ele>368.0</ele><time>2026-04-17T16:01:27.999Z</time></trkpt><trkpt lat="45.11008894034723" lon="7.827153386190522"><ele>367.0</ele><time>2026-04-17T16:01:28.999Z</time></trkpt><trkpt lat="45.11017150933345" lon="7.827182575767475"><ele>366.0</ele><time>2026-04-17T16:01:29.999Z</time></trkpt><trkpt lat="45.11024946699185" lon="7.827225024335085"><ele>365.0</ele><time>2026-04-17T16:01:30.999Z</time></trkpt><trkpt lat="45.11032731968874" lon="7.827251315243499"><ele>364.0</ele><time>2026-04-17T16:01:31.999Z</time></trkpt><trkpt lat="45.11039575181498" lon="7.827294186383794"><ele>363.0</ele><time>2026-04-17T16:01:32.999Z</time></trkpt><trkpt lat="45.11048107978067" lon="7.827330320008317"><ele>362.0</ele><time>2026-04-17T16:01:33.999Z</time></trkpt><trkpt lat="45.110546923946615" lon="7.8273533530969654"><ele>362.0</ele><time>2026-04-17T16:01:34.999Z</time></trkpt><trkpt lat="45.110643121836056" lon="7.827384920600572"><ele>362.0</ele><time>2026-04-17T16:01:35.999Z</time></trkpt><trkpt lat="45.11073907822128" lon="7.827436988757485"><ele>362.0</ele><time>2026-04-17T16:01:36.999Z</time></trkpt><trkpt lat="45.110829782712855" lon="7.827440819882517"><ele>362.0</ele><time>2026-04-17T16:01:37.999Z</time></trkpt><trkpt lat="45.11091825117175" lon="7.827446486458701"><ele>362.0</ele><time>2026-04-17T16:01:38.999Z</time></trkpt><trkpt lat="45.111001030358395" lon="7.827455776380099"><ele>357.6</ele><time>2026-04-17T16:01:39.999Z</time></trkpt><trkpt lat="45.111060831262144" lon="7.827489492326829"><ele>353.20000000000005</ele><time>2026-04-17T16:01:40.999Z</time></trkpt><trkpt lat="45.11115233220245" lon="7.827498652758685"><ele>348.8</ele><time>2026-04-17T16:01:41.999Z</time></trkpt><trkpt lat="45.11124368989315" lon="7.827498688172569"><ele>344.4</ele><time>2026-04-17T16:01:42.999Z</time></trkpt><trkpt lat="45.11135987348744" lon="7.8275160006022375"><ele>340.0</ele><time>2026-04-17T16:01:43.999Z</time></trkpt><trkpt lat="45.111454302417314" lon="7.827527900668105"><ele>340.0</ele><time>2026-04-17T16:01:44.999Z</time></trkpt><trkpt lat="45.11155293019664" lon="7.827513038322472"><ele>340.0</ele><time>2026-04-17T16:01:45.999Z</time></trkpt><trkpt lat="45.11164287848383" lon="7.827494865493437"><ele>340.0</ele><time>2026-04-17T16:01:46.999Z</time></trkpt><trkpt lat="45.11174185559613" lon="7.8274602391357915"><ele>340.0</ele><time>2026-04-17T16:01:47.999Z</time></trkpt><trkpt lat="45.11183245380632" lon="7.827424814594313"><ele>340.0</ele><time>2026-04-17T16:01:48.999Z</time></trkpt><trkpt lat="45.11191869810308" lon="7.82739520436981"><ele>337.8333333333333</ele><time>2026-04-17T16:01:49.999Z</time></trkpt><trkpt lat="45.111991395294986" lon="7.827377600940519"><ele>335.66666666666663</ele><time>2026-04-17T16:01:50.999Z</time></trkpt><trkpt lat="45.11207285865136" lon="7.827379838053131"><ele>333.5</ele><time>2026-04-17T16:01:51.999Z</time></trkpt><trkpt lat="45.112156364985225" lon="7.827398151318329"><ele>331.3333333333333</ele><time>2026-04-17T16:01:52.999Z</time></trkpt><trkpt lat="45.11223833457378" lon="7.827420455320163"><ele>329.1666666666667</ele><time>2026-04-17T16:01:53.999Z</time></trkpt><trkpt lat="45.11232166298927" lon="7.827426984406453"><ele>327.0</ele><time>2026-04-17T16:01:54.999Z</time></trkpt><trkpt lat="45.11238876694565" lon="7.8273896883695455"><ele>327.40000000000003</ele><time>2026-04-17T16:01:55.999Z</time></trkpt><trkpt lat="45.11246833420189" lon="7.827384373357325"><ele>327.8</ele><time>2026-04-17T16:01:56.999Z</time></trkpt><trkpt lat="45.112584938485114" lon="7.827328786907421"><ele>328.2</ele><time>2026-04-17T16:01:58.999Z</time></trkpt><trkpt lat="45.11267146902198" lon="7.8273003057779045"><ele>328.6</ele><time>2026-04-17T16:01:59.999Z</time></trkpt><trkpt lat="45.112760882005" lon="7.827281913587152"><ele>329.0</ele><time>2026-04-17T16:02:00.999Z</time></trkpt><trkpt lat="45.112859972738605" lon="7.827276237780462"><ele>329.0</ele><time>2026-04-17T16:02:02Z</time></trkpt><trkpt lat="45.112963555234415" lon="7.827289715549253"><ele>329.0</ele><time>2026-04-17T16:02:03Z</time></trkpt><trkpt lat="45.11307236501502" lon="7.827311026691534"><ele>329.0</ele><time>2026-04-17T16:02:04Z</time></trkpt><trkpt lat="45.113190104480005" lon="7.8273278949812255"><ele>329.0</ele><time>2026-04-17T16:02:05Z</time></trkpt><trkpt lat="45.11331775344075" lon="7.827306847810759"><ele>330.5</ele><time>2026-04-17T16:02:06Z</time></trkpt><trkpt lat="45.11345082893021" lon="7.827276790507013"><ele>332.0</ele><time>2026-04-17T16:02:07Z</time></trkpt><trkpt lat="45.113602164728874" lon="7.8272495131335935"><ele>333.5</ele><time>2026-04-17T16:02:08Z</time></trkpt><trkpt lat="45.113718289368755" lon="7.827235655428434"><ele>335.0</ele><time>2026-04-17T16:02:09Z</time></trkpt><trkpt lat="45.113799639507064" lon="7.827237334142335"><ele>335.0</ele><time>2026-04-17T16:02:10Z</time></trkpt><trkpt lat="45.113864836820916" lon="7.827258886034213"><ele>335.0</ele><time>2026-04-17T16:02:11Z</time></trkpt><trkpt lat="45.114010140884794" lon="7.827271273481597"><ele>335.0</ele><time>2026-04-17T16:02:13Z</time></trkpt><trkpt lat="45.11413620018011" lon="7.827310158366135"><ele>335.0</ele><time>2026-04-17T16:02:15Z</time></trkpt><trkpt lat="45.114204583626616" lon="7.827349673970528"><ele>335.0</ele><time>2026-04-17T16:02:16Z</time></trkpt><trkpt lat="45.114293574340394" lon="7.827436482184311"><ele>335.8</ele><time>2026-04-17T16:02:17Z</time></trkpt><trkpt lat="45.114372319421285" lon="7.827513188975519"><ele>336.6</ele><time>2026-04-17T16:02:18Z</time></trkpt><trkpt lat="45.114446091049" lon="7.827603107397203"><ele>337.4</ele><time>2026-04-17T16:02:19Z</time></trkpt><trkpt lat="45.114522932214676" lon="7.827648002025046"><ele>338.2</ele><time>2026-04-17T16:02:20Z</time></trkpt><trkpt lat="45.11464962149345" lon="7.8277311381517265"><ele>339.0</ele><time>2026-04-17T16:02:22Z</time></trkpt><trkpt lat="45.11475334447444" lon="7.827759426622461"><ele>339.4</ele><time>2026-04-17T16:02:23Z</time></trkpt><trkpt lat="45.11487080871289" lon="7.82780925070534"><ele>339.79999999999995</ele><time>2026-04-17T16:02:24Z</time></trkpt><trkpt lat="45.11498979631965" lon="7.827837037585963"><ele>340.20000000000005</ele><time>2026-04-17T16:02:25Z</time></trkpt><trkpt lat="45.11508886645325" lon="7.827850941680509"><ele>340.6</ele><time>2026-04-17T16:02:26Z</time></trkpt><trkpt lat="45.115176803172034" lon="7.827856709181359"><ele>341.0</ele><time>2026-04-17T16:02:27Z</time></trkpt><trkpt lat="45.11525836190575" lon="7.827855036016936"><ele>339.0</ele><time>2026-04-17T16:02:28Z</time></trkpt><trkpt lat="45.11533976919631" lon="7.827843854316086"><ele>337.0</ele><time>2026-04-17T16:02:29Z</time></trkpt><trkpt lat="45.115426963704245" lon="7.827805202202476"><ele>335.0</ele><time>2026-04-17T16:02:30Z</time></trkpt><trkpt lat="45.11553217300811" lon="7.827785528560237"><ele>333.0</ele><time>2026-04-17T16:02:31Z</time></trkpt><trkpt lat="45.11564865888189" lon="7.8277608377670855"><ele>331.0</ele><time>2026-04-17T16:02:32Z</time></trkpt><trkpt lat="45.115749276518244" lon="7.827750996056106"><ele>328.8333333333333</ele><time>2026-04-17T16:02:33Z</time></trkpt><trkpt lat="45.1158152316261" lon="7.827738970328808"><ele>326.66666666666663</ele><time>2026-04-17T16:02:34Z</time></trkpt><trkpt lat="45.11588315601844" lon="7.82771176793547"><ele>324.5</ele><time>2026-04-17T16:02:35Z</time></trkpt><trkpt lat="45.11596061225584" lon="7.8277170537076515"><ele>322.3333333333333</ele><time>2026-04-17T16:02:36Z</time></trkpt><trkpt lat="45.1160535586407" lon="7.82770181066862"><ele>320.1666666666667</ele><time>2026-04-17T16:02:37Z</time></trkpt><trkpt lat="45.11615570301892" lon="7.827689896687848"><ele>318.0</ele><time>2026-04-17T16:02:38Z</time></trkpt><trkpt lat="45.11624470650642" lon="7.827670724156633"><ele>318.0</ele><time>2026-04-17T16:02:39Z</time></trkpt><trkpt lat="45.11631080343554" lon="7.827691680491903"><ele>318.0</ele><time>2026-04-17T16:02:40Z</time></trkpt><trkpt lat="45.11640361069572" lon="7.82768688104138"><ele>318.0</ele><time>2026-04-17T16:02:41Z</time></trkpt><trkpt lat="45.11649765218893" lon="7.827679887505572"><ele>318.0</ele><time>2026-04-17T16:02:42Z</time></trkpt><trkpt lat="45.11658895650139" lon="7.82768143942291"><ele>318.0</ele><time>2026-04-17T16:02:43Z</time></trkpt><trkpt lat="45.11667243816215" lon="7.827690688349631"><ele>318.0</ele><time>2026-04-17T16:02:44Z</time></trkpt><trkpt lat="45.11674259360677" lon="7.827703594016424"><ele>317.8333333333333</ele><time>2026-04-17T16:02:45Z</time></trkpt><trkpt lat="45.11682320141738" lon="7.827731512020573"><ele>317.6666666666667</ele><time>2026-04-17T16:02:46Z</time></trkpt><trkpt lat="45.11690601702681" lon="7.827783384583891"><ele>317.5</ele><time>2026-04-17T16:02:47Z</time></trkpt><trkpt lat="45.11700683705355" lon="7.827848959505045"><ele>317.33333333333337</ele><time>2026-04-17T16:02:48Z</time></trkpt><trkpt lat="45.11708255654459" lon="7.827899705355663"><ele>317.1666666666667</ele><time>2026-04-17T16:02:49Z</time></trkpt><trkpt lat="45.11714955947961" lon="7.827960344061311"><ele>317.0</ele><time>2026-04-17T16:02:50Z</time></trkpt><trkpt lat="45.117219861408856" lon="7.827971657090495"><ele>317.0</ele><time>2026-04-17T16:02:51Z</time></trkpt><trkpt lat="45.11729391303324" lon="7.82801404034458"><ele>317.0</ele><time>2026-04-17T16:02:52Z</time></trkpt><trkpt lat="45.11743688997135" lon="7.828016109259693"><ele>317.0</ele><time>2026-04-17T16:02:53Z</time></trkpt><trkpt lat="45.11751524624796" lon="7.827979381855592"><ele>317.0</ele><time>2026-04-17T16:02:53.999Z</time></trkpt><trkpt lat="45.117634508422974" lon="7.8279279503799915"><ele>317.0</ele><time>2026-04-17T16:02:55.999Z</time></trkpt><trkpt lat="45.11767777936509" lon="7.827844384677029"><ele>318.6</ele><time>2026-04-17T16:02:56.999Z</time></trkpt><trkpt lat="45.117796012253095" lon="7.827691683038497"><ele>320.2</ele><time>2026-04-17T16:02:58.999Z</time></trkpt><trkpt lat="45.11785417772968" lon="7.827552956890674"><ele>321.8</ele><time>2026-04-17T16:02:59.999Z</time></trkpt><trkpt lat="45.11792385259937" lon="7.827455046229575"><ele>323.4</ele><time>2026-04-17T16:03:00.999Z</time></trkpt><trkpt lat="45.11795109586823" lon="7.82735792224365"><ele>325.0</ele><time>2026-04-17T16:03:01.999Z</time></trkpt><trkpt lat="45.11799363630832" lon="7.82727221678505"><ele>325.6</ele><time>2026-04-17T16:03:02.999Z</time></trkpt><trkpt lat="45.11810375539056" lon="7.827174544021138"><ele>326.2</ele><time>2026-04-17T16:03:04.999Z</time></trkpt><trkpt lat="45.118158872695616" lon="7.827099475607105"><ele>326.79999999999995</ele><time>2026-04-17T16:03:05.999Z</time></trkpt><trkpt lat="45.11827414605024" lon="7.82716142147884"><ele>327.4</ele><time>2026-04-17T16:03:06.999Z</time></trkpt><trkpt lat="45.11837586742138" lon="7.827157465700742"><ele>328.0</ele><time>2026-04-17T16:03:07.999Z</time></trkpt><trkpt lat="45.118488737808406" lon="7.82720933454111"><ele>328.0</ele><time>2026-04-17T16:03:08.999Z</time></trkpt><trkpt lat="45.11860815678144" lon="7.827233711436399"><ele>328.0</ele><time>2026-04-17T16:03:09.999Z</time></trkpt><trkpt lat="45.11872020487083" lon="7.827265648736893"><ele>328.0</ele><time>2026-04-17T16:03:10.999Z</time></trkpt><trkpt lat="45.11882483169105" lon="7.827285618921833"><ele>328.0</ele><time>2026-04-17T16:03:11.999Z</time></trkpt><trkpt lat="45.11892187473876" lon="7.827303071740254"><ele>328.0</ele><time>2026-04-17T16:03:12.999Z</time></trkpt><trkpt lat="45.119018604099445" lon="7.827328893406776"><ele>324.75</ele><time>2026-04-17T16:03:13.999Z</time></trkpt><trkpt lat="45.11913212255093" lon="7.82732959961377"><ele>321.5</ele><time>2026-04-17T16:03:14.999Z</time></trkpt><trkpt lat="45.11926530149957" lon="7.8273524129761505"><ele>318.25</ele><time>2026-04-17T16:03:15.999Z</time></trkpt><trkpt lat="45.119395589439584" lon="7.827353460090168"><ele>315.0</ele><time>2026-04-17T16:03:16.999Z</time></trkpt><trkpt lat="45.119520643373974" lon="7.827385061065481"><ele>315.0</ele><time>2026-04-17T16:03:17.999Z</time></trkpt><trkpt lat="45.11961469962628" lon="7.827368141936373"><ele>315.0</ele><time>2026-04-17T16:03:18.999Z</time></trkpt><trkpt lat="45.11973724685698" lon="7.827340209539481"><ele>315.0</ele><time>2026-04-17T16:03:20.999Z</time></trkpt><trkpt lat="45.11983554610941" lon="7.827268750284001"><ele>315.0</ele><time>2026-04-17T16:03:21.999Z</time></trkpt><trkpt lat="45.11990117466861" lon="7.8272282277415"><ele>315.0</ele><time>2026-04-17T16:03:22.999Z</time></trkpt><trkpt lat="45.11995403611756" lon="7.8271782602363125"><ele>315.8333333333333</ele><time>2026-04-17T16:03:23.999Z</time></trkpt><trkpt lat="45.12001139534703" lon="7.827122502148423"><ele>316.6666666666667</ele><time>2026-04-17T16:03:24.999Z</time></trkpt><trkpt lat="45.12010441451399" lon="7.827038079596479"><ele>317.5</ele><time>2026-04-17T16:03:25.999Z</time></trkpt><trkpt lat="45.12016533305465" lon="7.826950875392037"><ele>318.33333333333337</ele><time>2026-04-17T16:03:26.999Z</time></trkpt><trkpt lat="45.12021167167617" lon="7.826869816779724"><ele>319.1666666666667</ele><time>2026-04-17T16:03:27.999Z</time></trkpt><trkpt lat="45.12026140680763" lon="7.826787466876319"><ele>320.0</ele><time>2026-04-17T16:03:28.999Z</time></trkpt><trkpt lat="45.120278173866765" lon="7.826693886730529"><ele>320.0</ele><time>2026-04-17T16:03:29.999Z</time></trkpt><trkpt lat="45.12029319423378" lon="7.826604119428621"><ele>320.0</ele><time>2026-04-17T16:03:30.999Z</time></trkpt><trkpt lat="45.120304275399285" lon="7.826512921294486"><ele>320.0</ele><time>2026-04-17T16:03:31.999Z</time></trkpt><trkpt lat="45.12030687744184" lon="7.826423691920206"><ele>320.0</ele><time>2026-04-17T16:03:32.999Z</time></trkpt><trkpt lat="45.12032415353678" lon="7.826329845884907"><ele>320.0</ele><time>2026-04-17T16:03:33.999Z</time></trkpt><trkpt lat="45.12035775334458" lon="7.8262445989280005"><ele>320.0</ele><time>2026-04-17T16:03:34.999Z</time></trkpt><trkpt lat="45.12041335504581" lon="7.826092098826014"><ele>320.0</ele><time>2026-04-17T16:03:36.999Z</time></trkpt><trkpt lat="45.120472036158965" lon="7.826015418720888"><ele>320.0</ele><time>2026-04-17T16:03:37.999Z</time></trkpt><trkpt lat="45.120537692212" lon="7.825984481485776"><ele>320.0</ele><time>2026-04-17T16:03:38.999Z</time></trkpt><trkpt lat="45.12060575639001" lon="7.825972087774648"><ele>320.0</ele><time>2026-04-17T16:03:39.999Z</time></trkpt><trkpt lat="45.120668980431425" lon="7.825926962037378"><ele>320.0</ele><time>2026-04-17T16:03:40.999Z</time></trkpt><trkpt lat="45.120708642010385" lon="7.825827125538642"><ele>320.0</ele><time>2026-04-17T16:03:41.999Z</time></trkpt><trkpt lat="45.12073931477803" lon="7.825743010597663"><ele>320.0</ele><time>2026-04-17T16:03:42.999Z</time></trkpt><trkpt lat="45.120770444842826" lon="7.8256377716159795"><ele>316.0</ele><time>2026-04-17T16:03:43.999Z</time></trkpt><trkpt lat="45.12078315548656" lon="7.825517477665028"><ele>312.0</ele><time>2026-04-17T16:03:44.999Z</time></trkpt><trkpt lat="45.12080706001785" lon="7.825405525484174"><ele>308.0</ele><time>2026-04-17T16:03:45.999Z</time></trkpt><trkpt lat="45.1208461909135" lon="7.825312345008952"><ele>304.0</ele><time>2026-04-17T16:03:46.999Z</time></trkpt><trkpt lat="45.12086085363136" lon="7.825216368699566"><ele>300.0</ele><time>2026-04-17T16:03:47.999Z</time></trkpt><trkpt lat="45.120890363087355" lon="7.825127118065988"><ele>296.0</ele><time>2026-04-17T16:03:48.999Z</time></trkpt><trkpt lat="45.12094428601783" lon="7.824957094222517"><ele>296.0</ele><time>2026-04-17T16:03:50.999Z</time></trkpt><trkpt lat="45.12097637040435" lon="7.824859550812474"><ele>296.0</ele><time>2026-04-17T16:03:51.999Z</time></trkpt><trkpt lat="45.12100017994945" lon="7.824770628673136"><ele>296.0</ele><time>2026-04-17T16:03:52.999Z</time></trkpt><trkpt lat="45.121075717707654" lon="7.824652077499964"><ele>296.0</ele><time>2026-04-17T16:03:54.999Z</time></trkpt><trkpt lat="45.12114625340297" lon="7.824550550361008"><ele>296.0</ele><time>2026-04-17T16:03:56.999Z</time></trkpt><trkpt lat="45.12123402384294" lon="7.824470513233375"><ele>296.0</ele><time>2026-04-17T16:03:58.999Z</time></trkpt><trkpt lat="45.121331537172374" lon="7.824462412808617"><ele>296.0</ele><time>2026-04-17T16:04:00.999Z</time></trkpt><trkpt lat="45.12141012360958" lon="7.824592220564254"><ele>296.0</ele><time>2026-04-17T16:04:02.999Z</time></trkpt><trkpt lat="45.12145917265446" lon="7.824669053287293"><ele>296.0</ele><time>2026-04-17T16:04:03.999Z</time></trkpt><trkpt lat="45.12151459384803" lon="7.8247434974725785"><ele>296.0</ele><time>2026-04-17T16:04:04.999Z</time></trkpt><trkpt lat="45.12156997085249" lon="7.8248333316429655"><ele>292.8571428571429</ele><time>2026-04-17T16:04:05.999Z</time></trkpt><trkpt lat="45.12161508867745" lon="7.824909771445863"><ele>289.7142857142857</ele><time>2026-04-17T16:04:06.999Z</time></trkpt><trkpt lat="45.121670371807525" lon="7.8249747759747015"><ele>286.57142857142856</ele><time>2026-04-17T16:04:08Z</time></trkpt><trkpt lat="45.12172236163549" lon="7.8250317754263765"><ele>283.42857142857144</ele><time>2026-04-17T16:04:09Z</time></trkpt><trkpt lat="45.12176985077665" lon="7.825103394275825"><ele>280.2857142857143</ele><time>2026-04-17T16:04:10Z</time></trkpt><trkpt lat="45.121812938112505" lon="7.825191673395795"><ele>277.14285714285717</ele><time>2026-04-17T16:04:11Z</time></trkpt><trkpt lat="45.12186709448575" lon="7.825277870180623"><ele>274.0</ele><time>2026-04-17T16:04:12Z</time></trkpt><trkpt lat="45.12192159632714" lon="7.825366343406999"><ele>273.00000000000006</ele><time>2026-04-17T16:04:13Z</time></trkpt><trkpt lat="45.12197568363058" lon="7.82545265074069"><ele>272.0</ele><time>2026-04-17T16:04:14Z</time></trkpt><trkpt lat="45.12202645917651" lon="7.825525541422346"><ele>271.0</ele><time>2026-04-17T16:04:15Z</time></trkpt><trkpt lat="45.122085264701305" lon="7.825585412844543"><ele>270.0</ele><time>2026-04-17T16:04:16Z</time></trkpt><trkpt lat="45.12213883772339" lon="7.825649641892287"><ele>269.0</ele><time>2026-04-17T16:04:17Z</time></trkpt><trkpt lat="45.12220405368008" lon="7.825686687373966"><ele>268.00000000000006</ele><time>2026-04-17T16:04:18Z</time></trkpt><trkpt lat="45.122272993331244" lon="7.82574914761623"><ele>267.0</ele><time>2026-04-17T16:04:19Z</time></trkpt><trkpt lat="45.12235766531018" lon="7.825785862568565"><ele>264.5</ele><time>2026-04-17T16:04:20Z</time></trkpt><trkpt lat="45.12243896612257" lon="7.825808082140062"><ele>262.0</ele><time>2026-04-17T16:04:21Z</time></trkpt><trkpt lat="45.12252439772866" lon="7.825823382741795"><ele>259.5</ele><time>2026-04-17T16:04:22Z</time></trkpt><trkpt lat="45.12260951092289" lon="7.8258292659360125"><ele>257.0</ele><time>2026-04-17T16:04:23Z</time></trkpt><trkpt lat="45.12268015534837" lon="7.825828526052425"><ele>254.5</ele><time>2026-04-17T16:04:24Z</time></trkpt><trkpt lat="45.122761466434845" lon="7.825817479399786"><ele>252.0</ele><time>2026-04-17T16:04:25Z</time></trkpt><trkpt lat="45.122854830204" lon="7.82579405472873"><ele>252.0</ele><time>2026-04-17T16:04:26Z</time></trkpt><trkpt lat="45.12294249281002" lon="7.825762997681568"><ele>252.0</ele><time>2026-04-17T16:04:27Z</time></trkpt><trkpt lat="45.12302531814142" lon="7.825731635056424"><ele>252.0</ele><time>2026-04-17T16:04:28Z</time></trkpt><trkpt lat="45.123087333538315" lon="7.8256851299409735"><ele>252.0</ele><time>2026-04-17T16:04:29Z</time></trkpt><trkpt lat="45.12318259406859" lon="7.8256661613777005"><ele>252.0</ele><time>2026-04-17T16:04:31Z</time></trkpt><trkpt lat="45.12324403485977" lon="7.825693936620257"><ele>252.0</ele><time>2026-04-17T16:04:36Z</time></trkpt><trkpt lat="45.123241473145434" lon="7.8258529102452234"><ele>252.0</ele><time>2026-04-17T16:04:39Z</time></trkpt><trkpt lat="45.1232182403337" lon="7.82595898954924"><ele>252.0</ele><time>2026-04-17T16:04:40Z</time></trkpt><trkpt lat="45.12319020926159" lon="7.826086938249678"><ele>252.0</ele><time>2026-04-17T16:04:41Z</time></trkpt><trkpt lat="45.12315987132327" lon="7.82621600614584"><ele>252.0</ele><time>2026-04-17T16:04:42Z</time></trkpt><trkpt lat="45.12313410974286" lon="7.82633441949899"><ele>252.0</ele><time>2026-04-17T16:04:43Z</time></trkpt><trkpt lat="45.12310729870556" lon="7.826457656621861"><ele>252.0</ele><time>2026-04-17T16:04:44Z</time></trkpt><trkpt lat="45.12308509730879" lon="7.82655970531472"><ele>251.8</ele><time>2026-04-17T16:04:45Z</time></trkpt><trkpt lat="45.12306329660834" lon="7.826666479252739"><ele>251.6</ele><time>2026-04-17T16:04:46Z</time></trkpt><trkpt lat="45.12304190274309" lon="7.826800737413378"><ele>251.40000000000003</ele><time>2026-04-17T16:04:47Z</time></trkpt><trkpt lat="45.12304105406827" lon="7.826939262628883"><ele>251.20000000000002</ele><time>2026-04-17T16:04:48Z</time></trkpt><trkpt lat="45.12303886131242" lon="7.827084606344029"><ele>251.0</ele><time>2026-04-17T16:04:49Z</time></trkpt><trkpt lat="45.12302334151" lon="7.8272427846290915"><ele>250.0</ele><time>2026-04-17T16:04:49.999Z</time></trkpt><trkpt lat="45.123000743807324" lon="7.8274053560507975"><ele>249.00000000000003</ele><time>2026-04-17T16:04:50.999Z</time></trkpt><trkpt lat="45.12297205802034" lon="7.8275527887478855"><ele>248.00000000000003</ele><time>2026-04-17T16:04:51.999Z</time></trkpt><trkpt lat="45.122953588558474" lon="7.8276941644032245"><ele>247.0</ele><time>2026-04-17T16:04:52.999Z</time></trkpt><trkpt lat="45.122926561865434" lon="7.827838532121463"><ele>246.0</ele><time>2026-04-17T16:04:53.999Z</time></trkpt><trkpt lat="45.122961004852485" lon="7.828015110119857"><ele>245.0</ele><time>2026-04-17T16:04:54.999Z</time></trkpt><trkpt lat="45.122986229806855" lon="7.828201104144057"><ele>244.0</ele><time>2026-04-17T16:04:55.999Z</time></trkpt><trkpt lat="45.12299115802546" lon="7.828372733316661"><ele>243.0</ele><time>2026-04-17T16:04:56.999Z</time></trkpt><trkpt lat="45.12299383971275" lon="7.828540403749145"><ele>242.0</ele><time>2026-04-17T16:04:57.999Z</time></trkpt><trkpt lat="45.12298862188957" lon="7.828705507291121"><ele>240.25</ele><time>2026-04-17T16:04:58.999Z</time></trkpt><trkpt lat="45.12295152771435" lon="7.82886268207027"><ele>238.5</ele><time>2026-04-17T16:04:59.999Z</time></trkpt><trkpt lat="45.1229155297652" lon="7.829014647220145"><ele>236.75</ele><time>2026-04-17T16:05:00.999Z</time></trkpt><trkpt lat="45.12289167217863" lon="7.829161975941411"><ele>235.0</ele><time>2026-04-17T16:05:01.999Z</time></trkpt><trkpt lat="45.1228830544252" lon="7.829321916913661"><ele>234.0</ele><time>2026-04-17T16:05:02.999Z</time></trkpt><trkpt lat="45.12288424006046" lon="7.829490002199191"><ele>233.0</ele><time>2026-04-17T16:05:03.999Z</time></trkpt><trkpt lat="45.12287179573643" lon="7.829662363092693"><ele>232.0</ele><time>2026-04-17T16:05:04.999Z</time></trkpt><trkpt lat="45.122886204086065" lon="7.829801685762495"><ele>231.0</ele><time>2026-04-17T16:05:05.999Z</time></trkpt><trkpt lat="45.122883955430154" lon="7.829954123331352"><ele>230.0</ele><time>2026-04-17T16:05:06.999Z</time></trkpt><trkpt lat="45.122871181073194" lon="7.830108450899386"><ele>229.00000000000003</ele><time>2026-04-17T16:05:07.999Z</time></trkpt><trkpt lat="45.1228509569833" lon="7.830262182924741"><ele>228.0</ele><time>2026-04-17T16:05:08.999Z</time></trkpt><trkpt lat="45.12282510067355" lon="7.830395659415475"><ele>227.0</ele><time>2026-04-17T16:05:09.999Z</time></trkpt><trkpt lat="45.12279899020332" lon="7.830502223452799"><ele>226.0</ele><time>2026-04-17T16:05:10.999Z</time></trkpt><trkpt lat="45.12278025363255" lon="7.830597075271909"><ele>225.00000000000003</ele><time>2026-04-17T16:05:11.999Z</time></trkpt><trkpt lat="45.12276144044417" lon="7.830713943381894"><ele>224.0</ele><time>2026-04-17T16:05:13.999Z</time></trkpt><trkpt lat="45.12277256444381" lon="7.830841613901776"><ele>224.0</ele><time>2026-04-17T16:05:16.999Z</time></trkpt><trkpt lat="45.122837701913106" lon="7.830852342944224"><ele>223.99999999999997</ele><time>2026-04-17T16:05:17.999Z</time></trkpt><trkpt lat="45.12293476115561" lon="7.83081974377798"><ele>223.99999999999997</ele><time>2026-04-17T16:05:18.999Z</time></trkpt><trkpt lat="45.12302272129583" lon="7.830783370098082"><ele>224.0</ele><time>2026-04-17T16:05:19.999Z</time></trkpt><trkpt lat="45.12314284710412" lon="7.830751295174987"><ele>224.0</ele><time>2026-04-17T16:05:20.999Z</time></trkpt><trkpt lat="45.12326910600768" lon="7.830709588315619"><ele>222.33333333333334</ele><time>2026-04-17T16:05:21.999Z</time></trkpt><trkpt lat="45.12341171320674" lon="7.830675638979181"><ele>220.66666666666669</ele><time>2026-04-17T16:05:22.999Z</time></trkpt><trkpt lat="45.1235701537159" lon="7.830649980152686"><ele>219.0</ele><time>2026-04-17T16:05:23.999Z</time></trkpt><trkpt lat="45.123728943338136" lon="7.830593197435943"><ele>219.0</ele><time>2026-04-17T16:05:24.999Z</time></trkpt><trkpt lat="45.123880609014996" lon="7.830567924261748"><ele>219.0</ele><time>2026-04-17T16:05:25.999Z</time></trkpt><trkpt lat="45.124027037871286" lon="7.830537573448654"><ele>219.0</ele><time>2026-04-17T16:05:26.999Z</time></trkpt><trkpt lat="45.12417265508653" lon="7.830515187302788"><ele>219.0</ele><time>2026-04-17T16:05:27.999Z</time></trkpt><trkpt lat="45.12432865578647" lon="7.830486745195471"><ele>218.0</ele><time>2026-04-17T16:05:28.999Z</time></trkpt><trkpt lat="45.124477248745016" lon="7.830465440637288"><ele>217.0</ele><time>2026-04-17T16:05:29.999Z</time></trkpt><trkpt lat="45.12461923402971" lon="7.830453037782515"><ele>216.0</ele><time>2026-04-17T16:05:30.999Z</time></trkpt><trkpt lat="45.1247567857131" lon="7.830443385595185"><ele>215.0</ele><time>2026-04-17T16:05:31.999Z</time></trkpt><trkpt lat="45.12488890632949" lon="7.830436362662245"><ele>214.0</ele><time>2026-04-17T16:05:32.999Z</time></trkpt><trkpt lat="45.12500710199639" lon="7.8304228039927315"><ele>213.0</ele><time>2026-04-17T16:05:33.999Z</time></trkpt><trkpt lat="45.12512279460597" lon="7.830409324894357"><ele>212.0</ele><time>2026-04-17T16:05:34.999Z</time></trkpt><trkpt lat="45.125242189084176" lon="7.830400573378177"><ele>211.0</ele><time>2026-04-17T16:05:35.999Z</time></trkpt><trkpt lat="45.12534877277172" lon="7.83039096592119"><ele>210.99999999999997</ele><time>2026-04-17T16:05:36.999Z</time></trkpt><trkpt lat="45.125449804367925" lon="7.830380763005836"><ele>211.0</ele><time>2026-04-17T16:05:37.999Z</time></trkpt><trkpt lat="45.125541207614226" lon="7.83038102383817"><ele>211.0</ele><time>2026-04-17T16:05:38.999Z</time></trkpt><trkpt lat="45.125622742022976" lon="7.830369210134676"><ele>211.0</ele><time>2026-04-17T16:05:39.999Z</time></trkpt><trkpt lat="45.12569733232503" lon="7.830347151277293"><ele>210.99999999999997</ele><time>2026-04-17T16:05:40.999Z</time></trkpt><trkpt lat="45.125769384274086" lon="7.830350627958989"><ele>211.0</ele><time>2026-04-17T16:05:41.999Z</time></trkpt><trkpt lat="45.12583350271562" lon="7.830311304708535"><ele>210.8</ele><time>2026-04-17T16:05:42.999Z</time></trkpt><trkpt lat="45.12589056381813" lon="7.830273071943196"><ele>210.60000000000002</ele><time>2026-04-17T16:05:43.999Z</time></trkpt><trkpt lat="45.12599122861939" lon="7.830185294390123"><ele>210.4</ele><time>2026-04-17T16:05:45.999Z</time></trkpt><trkpt lat="45.126055562427666" lon="7.830126949368281"><ele>210.2</ele><time>2026-04-17T16:05:47.999Z</time></trkpt><trkpt lat="45.12612490511255" lon="7.830113825927023"><ele>210.0</ele><time>2026-04-17T16:05:54.999Z</time></trkpt><trkpt lat="45.12608563816022" lon="7.830314682889993"><ele>210.0</ele><time>2026-04-17T16:05:56.999Z</time></trkpt><trkpt lat="45.12602891206601" lon="7.830388703779301"><ele>210.0</ele><time>2026-04-17T16:05:57.999Z</time></trkpt><trkpt lat="45.12599401013605" lon="7.830485195179887"><ele>210.0</ele><time>2026-04-17T16:05:58.999Z</time></trkpt><trkpt lat="45.12594063037816" lon="7.83059749482055"><ele>210.0</ele><time>2026-04-17T16:05:59.999Z</time></trkpt><trkpt lat="45.12588904680646" lon="7.830690032999618"><ele>210.0</ele><time>2026-04-17T16:06:00.999Z</time></trkpt><trkpt lat="45.12584186928589" lon="7.830801055397776"><ele>210.0</ele><time>2026-04-17T16:06:01.999Z</time></trkpt><trkpt lat="45.125794150595105" lon="7.830904386089429"><ele>210.25</ele><time>2026-04-17T16:06:02.999Z</time></trkpt><trkpt lat="45.12573294723169" lon="7.831029772000029"><ele>210.5</ele><time>2026-04-17T16:06:03.999Z</time></trkpt><trkpt lat="45.12566000102673" lon="7.8311713446346385"><ele>210.75</ele><time>2026-04-17T16:06:04.999Z</time></trkpt><trkpt lat="45.1255819576932" lon="7.831316317442061"><ele>211.0</ele><time>2026-04-17T16:06:05.999Z</time></trkpt><trkpt lat="45.12550452274366" lon="7.831470899629339"><ele>211.0</ele><time>2026-04-17T16:06:06.999Z</time></trkpt><trkpt lat="45.125439131341636" lon="7.831610313565574"><ele>211.0</ele><time>2026-04-17T16:06:07.999Z</time></trkpt><trkpt lat="45.12537618186493" lon="7.831729914200694"><ele>211.0</ele><time>2026-04-17T16:06:08.999Z</time></trkpt><trkpt lat="45.12531524782036" lon="7.831839502098362"><ele>211.0</ele><time>2026-04-17T16:06:09.999Z</time></trkpt><trkpt lat="45.125243066839666" lon="7.8319718441098285"><ele>211.0</ele><time>2026-04-17T16:06:10.999Z</time></trkpt><trkpt lat="45.12518176797501" lon="7.8321129423079086"><ele>211.0</ele><time>2026-04-17T16:06:11.999Z</time></trkpt><trkpt lat="45.12511255536332" lon="7.8322595121440886"><ele>211.0</ele><time>2026-04-17T16:06:12.999Z</time></trkpt><trkpt lat="45.12503778515517" lon="7.83240907084113"><ele>211.0</ele><time>2026-04-17T16:06:14Z</time></trkpt><trkpt lat="45.12496191822264" lon="7.832533506998049"><ele>211.0</ele><time>2026-04-17T16:06:15Z</time></trkpt><trkpt lat="45.12489814490352" lon="7.832702533379715"><ele>212.5</ele><time>2026-04-17T16:06:16Z</time></trkpt><trkpt lat="45.12482043665757" lon="7.832850122052051"><ele>214.0</ele><time>2026-04-17T16:06:17Z</time></trkpt><trkpt lat="45.12473954983669" lon="7.832994215761357"><ele>215.5</ele><time>2026-04-17T16:06:18Z</time></trkpt><trkpt lat="45.12467186586673" lon="7.833123455240143"><ele>217.0</ele><time>2026-04-17T16:06:19Z</time></trkpt><trkpt lat="45.12461536760149" lon="7.833264875556346"><ele>217.0</ele><time>2026-04-17T16:06:20Z</time></trkpt><trkpt lat="45.12456598084282" lon="7.833400874992342"><ele>217.0</ele><time>2026-04-17T16:06:21Z</time></trkpt><trkpt lat="45.12452043960472" lon="7.83353621693705"><ele>217.0</ele><time>2026-04-17T16:06:22Z</time></trkpt><trkpt lat="45.124488473462954" lon="7.8336845097090215"><ele>217.0</ele><time>2026-04-17T16:06:23Z</time></trkpt><trkpt lat="45.12446105456861" lon="7.833800180203377"><ele>217.0</ele><time>2026-04-17T16:06:24Z</time></trkpt><trkpt lat="45.12444168825078" lon="7.833902783463766"><ele>217.0</ele><time>2026-04-17T16:06:25Z</time></trkpt><trkpt lat="45.124425965170744" lon="7.833992229520774"><ele>217.0</ele><time>2026-04-17T16:06:26Z</time></trkpt><trkpt lat="45.12440945282902" lon="7.834120468565749"><ele>217.0</ele><time>2026-04-17T16:06:28Z</time></trkpt><trkpt lat="45.1246257341446" lon="7.834194433291372"><ele>217.0</ele><time>2026-04-17T16:06:30Z</time></trkpt><trkpt lat="45.12473159726241" lon="7.834189578200363"><ele>216.99999999999997</ele><time>2026-04-17T16:06:31Z</time></trkpt><trkpt lat="45.12479652464442" lon="7.834186350384632"><ele>217.0</ele><time>2026-04-17T16:06:32Z</time></trkpt><trkpt lat="45.12487075951281" lon="7.834176875139981"><ele>217.0</ele><time>2026-04-17T16:06:33Z</time></trkpt><trkpt lat="45.12493550903679" lon="7.834166594599612"><ele>217.0</ele><time>2026-04-17T16:06:34Z</time></trkpt><trkpt lat="45.12500105317407" lon="7.834167873633787"><ele>216.99999999999997</ele><time>2026-04-17T16:06:35Z</time></trkpt><trkpt lat="45.12510184860224" lon="7.834229091455515"><ele>217.0</ele><time>2026-04-17T16:06:37Z</time></trkpt><trkpt lat="45.12515012319344" lon="7.834328003075332"><ele>215.8</ele><time>2026-04-17T16:06:38Z</time></trkpt><trkpt lat="45.12522467687851" lon="7.834403362127794"><ele>214.6</ele><time>2026-04-17T16:06:39Z</time></trkpt><trkpt lat="45.125281241244124" lon="7.834517513832784"><ele>213.4</ele><time>2026-04-17T16:06:41Z</time></trkpt><trkpt lat="45.12532572325556" lon="7.834594835815215"><ele>212.20000000000002</ele><time>2026-04-17T16:06:43Z</time></trkpt><trkpt lat="45.12522933014279" lon="7.834780319348558"><ele>211.0</ele><time>2026-04-17T16:06:47Z</time></trkpt><trkpt lat="45.125154612120724" lon="7.834893978919096"><ele>210.99999999999997</ele><time>2026-04-17T16:06:49Z</time></trkpt><trkpt lat="45.12510081812494" lon="7.834975392682086"><ele>211.0</ele><time>2026-04-17T16:07:34.999Z</time></trkpt><trkpt lat="45.12505997634298" lon="7.8350484069001824"><ele>211.0</ele><time>2026-04-17T16:07:36.999Z</time></trkpt><trkpt lat="45.12500861075094" lon="7.8351429993398805"><ele>211.0</ele><time>2026-04-17T16:07:38.999Z</time></trkpt><trkpt lat="45.125056206430564" lon="7.835225001921093"><ele>210.99999999999997</ele><time>2026-04-17T16:09:14Z</time></trkpt><trkpt lat="45.1250446470527" lon="7.835327016454866"><ele>211.0</ele><time>2026-04-17T16:09:16Z</time></trkpt><trkpt lat="45.125124218604086" lon="7.835298410099709"><ele>211.0</ele><time>2026-04-17T16:09:23Z</time></trkpt><trkpt lat="45.12522452308133" lon="7.835229270653796"><ele>211.0</ele><time>2026-04-17T16:09:26Z</time></trkpt></trkseg></trk></gpx>